Wetterdaten: Montag, 15.02.2016
Datum Zeit Temp. A. Feuchte A. Luftdruck Regen Wind Richtung Richtung Sonnenschein ET UV Solar Taupunkt Windchill Windben Empfang
15.02.2016 00:00 5,3 C 89 % 998,2 hPa 0,0 l/m 7,4 km/h (2 Bft) SW 235 0 min 0,000 mm 0,0 UV-I 0 W/m 3,6 C 4,4 C 11,3 km/h (2 Bft) 100,00 %
15.02.2016 00:02 5,3 C 89 % 998,3 hPa 0,0 l/m 9,3 km/h (2 Bft) S-SW 212 0 min 0,000 mm 0,0 UV-I 0 W/m 3,6 C 2,9 C 14,5 km/h (3 Bft) 94,59 %
15.02.2016 00:03 5,3 C 89 % 998,4 hPa 0,0 l/m 10,6 km/h (2 Bft) SW 220 0 min 0,000 mm 0,0 UV-I 0 W/m 3,6 C 2,0 C 14,5 km/h (3 Bft) 100,00 %
15.02.2016 00:04 5,3 C 89 % 998,5 hPa 0,0 l/m 10,4 km/h (2 Bft) W-SW 248 0 min 0,000 mm 0,0 UV-I 0 W/m 3,6 C 2,1 C 16,1 km/h (3 Bft) 95,65 %
15.02.2016 00:05 5,3 C 89 % 998,5 hPa 0,0 l/m 10,3 km/h (2 Bft) W-SW 246 0 min 0,000 mm 0,0 UV-I 0 W/m 3,6 C 2,2 C 16,1 km/h (3 Bft) 100,00 %
15.02.2016 00:06 5,3 C 89 % 998,5 hPa 0,0 l/m 12,3 km/h (3 Bft) W-SW 240 0 min 0,000 mm 0,0 UV-I 0 W/m 3,6 C 0,9 C 16,1 km/h (3 Bft) 100,00 %
15.02.2016 00:07 5,3 C 89 % 998,5 hPa 0,0 l/m 12,6 km/h (3 Bft) W-SW 258 0 min 0,000 mm 0,0 UV-I 0 W/m 3,6 C 0,7 C 16,1 km/h (3 Bft) 100,00 %
15.02.2016 00:08 5,3 C 89 % 998,5 hPa 0,0 l/m 10,0 km/h (2 Bft) W-SW 240 0 min 0,000 mm 0,0 UV-I 0 W/m 3,6 C 2,4 C 16,1 km/h (3 Bft) 91,30 %
15.02.2016 00:09 5,3 C 90 % 998,6 hPa 0,0 l/m 10,4 km/h (2 Bft) W-SW 251 0 min 0,000 mm 0,0 UV-I 0 W/m 3,8 C 2,1 C 14,5 km/h (3 Bft) 95,83 %
15.02.2016 00:10 5,3 C 90 % 998,6 hPa 0,0 l/m 13,8 km/h (3 Bft) W-SW 250 0 min 0,000 mm 0,0 UV-I 0 W/m 3,8 C 0,1 C 20,9 km/h (4 Bft) 95,65 %
15.02.2016 00:11 5,3 C 90 % 998,6 hPa 0,0 l/m 12,7 km/h (3 Bft) SW 234 0 min 0,000 mm 0,0 UV-I 0 W/m 3,8 C 0,7 C 16,1 km/h (3 Bft) 100,00 %
15.02.2016 00:12 5,3 C 90 % 998,6 hPa 0,0 l/m 13,9 km/h (3 Bft) W-SW 244 0 min 0,000 mm 0,0 UV-I 0 W/m 3,8 C 0,0 C 20,9 km/h (4 Bft) 100,00 %
15.02.2016 00:13 5,3 C 90 % 998,7 hPa 0,0 l/m 8,4 km/h (2 Bft) SW 234 0 min 0,000 mm 0,0 UV-I 0 W/m 3,8 C 3,6 C 14,5 km/h (3 Bft) 100,00 %
15.02.2016 00:14 5,3 C 90 % 998,7 hPa 0,0 l/m 12,1 km/h (2 Bft) SW 223 0 min 0,000 mm 0,0 UV-I 0 W/m 3,8 C 1,0 C 19,3 km/h (3 Bft) 100,00 %
15.02.2016 00:15 5,3 C 90 % 998,8 hPa 0,0 l/m 9,9 km/h (2 Bft) W-SW 243 0 min 0,000 mm 0,0 UV-I 0 W/m 3,8 C 2,5 C 12,9 km/h (3 Bft) 100,00 %
15.02.2016 00:16 5,3 C 90 % 998,8 hPa 0,0 l/m 11,2 km/h (2 Bft) W 273 0 min 0,000 mm 0,0 UV-I 0 W/m 3,8 C 1,6 C 16,1 km/h (3 Bft) 100,00 %
15.02.2016 00:17 5,3 C 90 % 998,8 hPa 0,0 l/m 13,0 km/h (3 Bft) W-SW 239 0 min 0,000 mm 0,0 UV-I 0 W/m 3,8 C 0,5 C 19,3 km/h (3 Bft) 100,00 %
15.02.2016 00:18 5,3 C 90 % 998,8 hPa 0,0 l/m 11,9 km/h (2 Bft) SW 219 0 min 0,000 mm 0,0 UV-I 0 W/m 3,8 C 1,2 C 19,3 km/h (3 Bft) 100,00 %
15.02.2016 00:19 5,3 C 90 % 998,8 hPa 0,0 l/m 15,9 km/h (3 Bft) SW 236 0 min 0,000 mm 0,0 UV-I 0 W/m 3,8 C -1,0 C 22,5 km/h (4 Bft) 100,00 %
15.02.2016 00:20 5,2 C 90 % 998,9 hPa 0,0 l/m 15,9 km/h (3 Bft) SW 234 0 min 0,000 mm 0,0 UV-I 0 W/m 3,7 C -1,1 C 22,5 km/h (4 Bft) 100,00 %
15.02.2016 00:21 5,2 C 90 % 998,9 hPa 0,0 l/m 15,3 km/h (3 Bft) SW 215 0 min 0,000 mm 0,0 UV-I 0 W/m 3,7 C -0,8 C 20,9 km/h (4 Bft) 100,00 %
15.02.2016 00:22 5,2 C 90 % 998,9 hPa 0,0 l/m 15,0 km/h (3 Bft) W-SW 251 0 min 0,000 mm 0,0 UV-I 0 W/m 3,7 C -0,7 C 19,3 km/h (3 Bft) 100,00 %
15.02.2016 00:23 5,2 C 90 % 998,9 hPa 0,0 l/m 12,6 km/h (3 Bft) SW 225 0 min 0,000 mm 0,0 UV-I 0 W/m 3,7 C 0,6 C 16,1 km/h (3 Bft) 100,00 %
15.02.2016 00:24 5,1 C 90 % 998,9 hPa 0,0 l/m 18,8 km/h (3 Bft) SW 215 0 min 0,000 mm 0,0 UV-I 0 W/m 3,6 C -2,6 C 22,5 km/h (4 Bft) 100,00 %
15.02.2016 00:25 5,1 C 91 % 999,0 hPa 0,0 l/m 14,8 km/h (3 Bft) S-SW 194 0 min 0,000 mm 0,0 UV-I 0 W/m 3,8 C -0,7 C 22,5 km/h (4 Bft) 95,65 %
15.02.2016 00:26 5,1 C 91 % 998,9 hPa 0,0 l/m 17,5 km/h (3 Bft) SW 235 0 min 0,000 mm 0,0 UV-I 0 W/m 3,8 C -2,0 C 25,7 km/h (4 Bft) 100,00 %
15.02.2016 00:27 5,1 C 91 % 999,0 hPa 0,0 l/m 12,9 km/h (3 Bft) SW 228 0 min 0,000 mm 0,0 UV-I 0 W/m 3,8 C 0,3 C 22,5 km/h (4 Bft) 95,65 %
15.02.2016 00:28 5,1 C 91 % 999,0 hPa 0,0 l/m 16,2 km/h (3 Bft) W-SW 242 0 min 0,000 mm 0,0 UV-I 0 W/m 3,8 C -1,4 C 22,5 km/h (4 Bft) 95,83 %
15.02.2016 00:29 5,0 C 92 % 999,1 hPa 0,0 l/m 13,5 km/h (3 Bft) W 261 0 min 0,000 mm 0,0 UV-I 0 W/m 3,8 C -0,1 C 22,5 km/h (4 Bft) 95,65 %
15.02.2016 00:30 5,0 C 92 % 999,1 hPa 0,0 l/m 14,7 km/h (3 Bft) W-SW 242 0 min 0,000 mm 0,0 UV-I 0 W/m 3,8 C -0,8 C 20,9 km/h (4 Bft) 100,00 %
15.02.2016 00:31 5,0 C 92 % 999,1 hPa 0,0 l/m 17,9 km/h (3 Bft) SW 235 0 min 0,000 mm 0,0 UV-I 0 W/m 3,8 C -2,3 C 24,1 km/h (4 Bft) 100,00 %
15.02.2016 00:32 5,0 C 92 % 999,1 hPa 0,0 l/m 15,6 km/h (3 Bft) W-SW 252 0 min 0,000 mm 0,0 UV-I 0 W/m 3,8 C -1,2 C 19,3 km/h (3 Bft) 100,00 %
15.02.2016 00:33 4,9 C 92 % 999,2 hPa 0,0 l/m 12,6 km/h (3 Bft) W-SW 245 0 min 0,000 mm 0,0 UV-I 0 W/m 3,7 C 0,3 C 16,1 km/h (3 Bft) 95,65 %
15.02.2016 00:34 4,9 C 92 % 999,1 hPa 0,0 l/m 19,3 km/h (3 Bft) SW 227 0 min 0,000 mm 0,0 UV-I 0 W/m 3,7 C -3,0 C 27,4 km/h (4 Bft) 100,00 %
15.02.2016 00:35 4,9 C 92 % 999,2 hPa 0,0 l/m 15,9 km/h (3 Bft) W-SW 248 0 min 0,000 mm 0,0 UV-I 0 W/m 3,7 C -1,5 C 25,7 km/h (4 Bft) 100,00 %
15.02.2016 00:36 4,9 C 92 % 999,2 hPa 0,0 l/m 16,6 km/h (3 Bft) W 265 0 min 0,000 mm 0,0 UV-I 0 W/m 3,7 C -1,8 C 22,5 km/h (4 Bft) 100,00 %
15.02.2016 00:37 4,9 C 93 % 999,3 hPa 0,2 l/m 14,1 km/h (3 Bft) SW 225 0 min 0,000 mm 0,0 UV-I 0 W/m 3,9 C -0,6 C 19,3 km/h (3 Bft) 95,65 %
15.02.2016 00:38 4,8 C 93 % 999,4 hPa 0,0 l/m 17,6 km/h (3 Bft) SW 235 0 min 0,000 mm 0,0 UV-I 0 W/m 3,8 C -2,4 C 25,7 km/h (4 Bft) 100,00 %
15.02.2016 00:39 4,8 C 93 % 999,4 hPa 0,0 l/m 17,8 km/h (3 Bft) SW 222 0 min 0,000 mm 0,0 UV-I 0 W/m 3,8 C -2,5 C 22,5 km/h (4 Bft) 100,00 %
15.02.2016 00:40 4,8 C 93 % 999,3 hPa 0,0 l/m 16,3 km/h (3 Bft) W-SW 238 0 min 0,000 mm 0,0 UV-I 0 W/m 3,8 C -1,8 C 22,5 km/h (4 Bft) 100,00 %
15.02.2016 00:41 4,8 C 93 % 999,4 hPa 0,0 l/m 13,5 km/h (3 Bft) SW 234 0 min 0,000 mm 0,0 UV-I 0 W/m 3,8 C -0,4 C 19,3 km/h (3 Bft) 100,00 %
15.02.2016 00:42 4,7 C 93 % 999,4 hPa 0,0 l/m 14,6 km/h (3 Bft) SW 223 0 min 0,000 mm 0,0 UV-I 0 W/m 3,7 C -1,1 C 20,9 km/h (4 Bft) 95,65 %
15.02.2016 00:43 4,7 C 93 % 999,4 hPa 0,0 l/m 17,8 km/h (3 Bft) SW 219 0 min 0,000 mm 0,0 UV-I 0 W/m 3,7 C -2,6 C 25,7 km/h (4 Bft) 100,00 %
15.02.2016 00:44 4,7 C 93 % 999,3 hPa 0,0 l/m 14,3 km/h (3 Bft) W 277 0 min 0,000 mm 0,0 UV-I 0 W/m 3,7 C -0,9 C 20,9 km/h (4 Bft) 100,00 %
15.02.2016 00:45 4,6 C 93 % 999,4 hPa 0,0 l/m 14,6 km/h (3 Bft) SW 227 0 min 0,000 mm 0,0 UV-I 0 W/m 3,6 C -1,2 C 24,1 km/h (4 Bft) 100,00 %
15.02.2016 00:46 4,6 C 93 % 999,4 hPa 0,0 l/m 17,2 km/h (3 Bft) SW 236 0 min 0,000 mm 0,0 UV-I 0 W/m 3,6 C -2,5 C 24,1 km/h (4 Bft) 100,00 %
15.02.2016 00:47 4,5 C 93 % 999,4 hPa 0,2 l/m 20,8 km/h (4 Bft) W-SW 247 0 min 0,000 mm 0,0 UV-I 0 W/m 3,5 C -4,1 C 29,0 km/h (5 Bft) 100,00 %
15.02.2016 00:48 4,4 C 93 % 999,5 hPa 0,0 l/m 13,5 km/h (3 Bft) W-SW 257 0 min 0,000 mm 0,0 UV-I 0 W/m 3,4 C -0,8 C 22,5 km/h (4 Bft) 100,00 %
15.02.2016 00:49 4,4 C 93 % 999,6 hPa 0,0 l/m 12,6 km/h (3 Bft) SW 227 0 min 0,000 mm 0,0 UV-I 0 W/m 3,4 C -0,3 C 16,1 km/h (3 Bft) 100,00 %
15.02.2016 00:50 4,4 C 93 % 999,5 hPa 0,0 l/m 15,3 km/h (3 Bft) W-SW 240 0 min 0,000 mm 0,0 UV-I 0 W/m 3,4 C -1,8 C 20,9 km/h (4 Bft) 100,00 %
15.02.2016 00:51 4,3 C 93 % 999,5 hPa 0,0 l/m 13,5 km/h (3 Bft) W-SW 248 0 min 0,000 mm 0,0 UV-I 0 W/m 3,3 C -0,9 C 17,7 km/h (3 Bft) 100,00 %
15.02.2016 00:52 4,3 C 93 % 999,5 hPa 0,0 l/m 22,5 km/h (4 Bft) S-SW 206 0 min 0,000 mm 0,0 UV-I 0 W/m 3,3 C -5,0 C 29,0 km/h (5 Bft) 100,00 %
15.02.2016 00:53 4,3 C 93 % 999,5 hPa 0,0 l/m 14,6 km/h (3 Bft) SW 231 0 min 0,000 mm 0,0 UV-I 0 W/m 3,3 C -1,6 C 20,9 km/h (4 Bft) 100,00 %
15.02.2016 00:54 4,2 C 93 % 999,5 hPa 0,0 l/m 15,6 km/h (3 Bft) SW 224 0 min 0,000 mm 0,0 UV-I 0 W/m 3,2 C -2,2 C 20,9 km/h (4 Bft) 100,00 %
15.02.2016 00:55 4,2 C 93 % 999,6 hPa 0,0 l/m 20,0 km/h (4 Bft) S 186 0 min 0,000 mm 0,0 UV-I 0 W/m 3,2 C -4,2 C 25,7 km/h (4 Bft) 100,00 %
15.02.2016 00:56 4,2 C 93 % 999,6 hPa 0,0 l/m 16,8 km/h (3 Bft) SW 234 0 min 0,000 mm 0,0 UV-I 0 W/m 3,2 C -2,8 C 27,4 km/h (4 Bft) 100,00 %
15.02.2016 00:57 4,1 C 93 % 999,6 hPa 0,0 l/m 20,4 km/h (4 Bft) SW 216 0 min 0,000 mm 0,0 UV-I 0 W/m 3,1 C -4,5 C 29,0 km/h (5 Bft) 100,00 %
15.02.2016 00:58 4,1 C 93 % 999,6 hPa 0,0 l/m 18,8 km/h (3 Bft) SW 226 0 min 0,000 mm 0,0 UV-I 0 W/m 3,1 C -3,8 C 27,4 km/h (4 Bft) 100,00 %
15.02.2016 00:59 4,0 C 93 % 999,7 hPa 0,0 l/m 21,7 km/h (4 Bft) S-SW 213 0 min 0,000 mm 0,0 UV-I 0 W/m 3,0 C -5,1 C 29,0 km/h (5 Bft) 100,00 %
15.02.2016 01:00 4,0 C 93 % 999,7 hPa 0,0 l/m 16,0 km/h (3 Bft) SW 224 0 min 0,000 mm 0,0 UV-I 0 W/m 3,0 C -2,7 C 22,5 km/h (4 Bft) 100,00 %
15.02.2016 01:01 3,9 C 93 % 999,7 hPa 0,0 l/m 12,3 km/h (3 Bft) SW 222 0 min 0,000 mm 0,0 UV-I 0 W/m 2,9 C -0,7 C 19,3 km/h (3 Bft) 100,00 %
15.02.2016 01:02 3,9 C 94 % 999,7 hPa 0,0 l/m 18,8 km/h (3 Bft) W-SW 240 0 min 0,000 mm 0,0 UV-I 0 W/m 3,0 C -4,1 C 25,7 km/h (4 Bft) 100,00 %
15.02.2016 01:03 3,9 C 94 % 999,8 hPa 0,0 l/m 16,3 km/h (3 Bft) S-SW 213 0 min 0,000 mm 0,0 UV-I 0 W/m 3,0 C -2,9 C 22,5 km/h (4 Bft) 91,30 %
15.02.2016 01:04 3,9 C 94 % 999,8 hPa 0,0 l/m 18,6 km/h (3 Bft) W 260 0 min 0,000 mm 0,0 UV-I 0 W/m 3,0 C -4,0 C 27,4 km/h (4 Bft) 100,00 %
15.02.2016 01:05 3,9 C 94 % 999,9 hPa 0,0 l/m 21,5 km/h (4 Bft) W-SW 248 0 min 0,000 mm 0,0 UV-I 0 W/m 3,0 C -5,2 C 27,4 km/h (4 Bft) 100,00 %
15.02.2016 01:06 3,9 C 94 % 999,9 hPa 0,0 l/m 15,2 km/h (3 Bft) W-SW 244 0 min 0,000 mm 0,0 UV-I 0 W/m 3,0 C -2,4 C 20,9 km/h (4 Bft) 95,83 %
15.02.2016 01:07 3,8 C 94 % 999,9 hPa 0,2 l/m 16,0 km/h (3 Bft) W-SW 253 0 min 0,000 mm 0,0 UV-I 0 W/m 2,9 C -2,9 C 20,9 km/h (4 Bft) 100,00 %
15.02.2016 01:08 3,8 C 94 % 999,9 hPa 0,0 l/m 19,0 km/h (3 Bft) SW 225 0 min 0,000 mm 0,0 UV-I 0 W/m 2,9 C -4,3 C 27,4 km/h (4 Bft) 100,00 %
15.02.2016 01:09 3,8 C 94 % 1000,0 hPa 0,0 l/m 15,6 km/h (3 Bft) SW 236 0 min 0,000 mm 0,0 UV-I 0 W/m 2,9 C -2,7 C 24,1 km/h (4 Bft) 100,00 %
15.02.2016 01:10 3,8 C 94 % 1000,0 hPa 0,0 l/m 18,4 km/h (3 Bft) SW 229 0 min 0,000 mm 0,0 UV-I 0 W/m 2,9 C -4,0 C 29,0 km/h (5 Bft) 100,00 %
15.02.2016 01:11 3,8 C 94 % 1000,1 hPa 0,0 l/m 20,0 km/h (4 Bft) SW 229 0 min 0,000 mm 0,0 UV-I 0 W/m 2,9 C -4,7 C 24,1 km/h (4 Bft) 100,00 %
15.02.2016 01:12 3,8 C 94 % 1000,1 hPa 0,0 l/m 12,9 km/h (3 Bft) SW 224 0 min 0,000 mm 0,0 UV-I 0 W/m 2,9 C -1,2 C 20,9 km/h (4 Bft) 100,00 %
15.02.2016 01:13 3,8 C 94 % 1000,1 hPa 0,0 l/m 17,1 km/h (3 Bft) S-SW 211 0 min 0,000 mm 0,0 UV-I 0 W/m 2,9 C -3,4 C 24,1 km/h (4 Bft) 100,00 %
15.02.2016 01:14 3,8 C 94 % 1000,1 hPa 0,2 l/m 16,5 km/h (3 Bft) W-SW 239 0 min 0,000 mm 0,0 UV-I 0 W/m 2,9 C -3,1 C 22,5 km/h (4 Bft) 100,00 %
15.02.2016 01:15 3,8 C 94 % 1000,1 hPa 0,0 l/m 18,5 km/h (3 Bft) SW 223 0 min 0,000 mm 0,0 UV-I 0 W/m 2,9 C -4,1 C 27,4 km/h (4 Bft) 95,65 %
15.02.2016 01:16 3,8 C 94 % 1000,2 hPa 0,0 l/m 17,7 km/h (3 Bft) W-SW 237 0 min 0,000 mm 0,0 UV-I 0 W/m 2,9 C -3,7 C 22,5 km/h (4 Bft) 100,00 %
15.02.2016 01:17 3,8 C 95 % 1000,2 hPa 0,0 l/m 17,3 km/h (3 Bft) W-SW 238 0 min 0,000 mm 0,0 UV-I 0 W/m 3,1 C -3,5 C 27,4 km/h (4 Bft) 95,65 %
15.02.2016 01:18 3,8 C 95 % 1000,2 hPa 0,0 l/m 14,9 km/h (3 Bft) W-SW 246 0 min 0,000 mm 0,0 UV-I 0 W/m 3,1 C -2,3 C 20,9 km/h (4 Bft) 100,00 %
15.02.2016 01:19 3,8 C 94 % 1000,2 hPa 0,0 l/m 12,1 km/h (2 Bft) W-SW 245 0 min 0,000 mm 0,0 UV-I 0 W/m 2,9 C -0,7 C 16,1 km/h (3 Bft) 91,30 %
15.02.2016 01:20 3,8 C 94 % 1000,3 hPa 0,0 l/m 14,7 km/h (3 Bft) W-SW 242 0 min 0,000 mm 0,0 UV-I 0 W/m 2,9 C -2,2 C 19,3 km/h (3 Bft) 95,83 %
15.02.2016 01:21 3,8 C 94 % 1000,3 hPa 0,0 l/m 14,7 km/h (3 Bft) W-SW 238 0 min 0,000 mm 0,0 UV-I 0 W/m 2,9 C -2,2 C 22,5 km/h (4 Bft) 91,67 %
15.02.2016 01:22 3,7 C 94 % 1000,3 hPa 0,0 l/m 14,4 km/h (3 Bft) SW 235 0 min 0,000 mm 0,0 UV-I 0 W/m 2,8 C -2,2 C 19,3 km/h (3 Bft) 100,00 %
15.02.2016 01:23 3,7 C 95 % 1000,3 hPa 0,0 l/m 14,1 km/h (3 Bft) W-SW 251 0 min 0,000 mm 0,0 UV-I 0 W/m 3,0 C -2,0 C 25,7 km/h (4 Bft) 91,67 %
15.02.2016 01:24 3,7 C 95 % 1000,3 hPa 0,2 l/m 12,9 km/h (3 Bft) W-SW 248 0 min 0,000 mm 0,0 UV-I 0 W/m 3,0 C -1,3 C 17,7 km/h (3 Bft) 96,55 %
15.02.2016 01:25 3,7 C 95 % 1000,4 hPa 0,0 l/m 14,7 km/h (3 Bft) S-SW 201 0 min 0,000 mm 0,0 UV-I 0 W/m 3,0 C -2,3 C 19,3 km/h (3 Bft) 95,83 %
15.02.2016 01:26 3,7 C 95 % 1000,4 hPa 0,0 l/m 17,2 km/h (3 Bft) S-SW 202 0 min 0,000 mm 0,0 UV-I 0 W/m 3,0 C -3,6 C 24,1 km/h (4 Bft) 91,30 %
15.02.2016 01:27 3,7 C 95 % 1000,4 hPa 0,0 l/m 19,0 km/h (3 Bft) SW 234 0 min 0,000 mm 0,0 UV-I 0 W/m 3,0 C -4,4 C 25,7 km/h (4 Bft) 100,00 %
15.02.2016 01:28 3,7 C 95 % 1000,4 hPa 0,0 l/m 15,7 km/h (3 Bft) SW 236 0 min 0,000 mm 0,0 UV-I 0 W/m 3,0 C -2,9 C 24,1 km/h (4 Bft) 95,65 %
15.02.2016 01:29 3,7 C 95 % 1000,4 hPa 0,0 l/m 16,9 km/h (3 Bft) W-SW 238 0 min 0,000 mm 0,0 UV-I 0 W/m 3,0 C -3,5 C 20,9 km/h (4 Bft) 100,00 %
15.02.2016 01:30 3,7 C 95 % 1000,4 hPa 0,0 l/m 14,2 km/h (3 Bft) S-SW 212 0 min 0,000 mm 0,0 UV-I 0 W/m 3,0 C -2,1 C 19,3 km/h (3 Bft) 86,96 %
15.02.2016 01:31 3,7 C 95 % 1000,4 hPa 0,0 l/m 16,7 km/h (3 Bft) SW 236 0 min 0,000 mm 0,0 UV-I 0 W/m 3,0 C -3,4 C 22,5 km/h (4 Bft) 100,00 %
15.02.2016 01:32 3,7 C 95 % 1000,4 hPa 0,0 l/m 13,2 km/h (3 Bft) W-SW 249 0 min 0,000 mm 0,0 UV-I 0 W/m 3,0 C -1,5 C 17,7 km/h (3 Bft) 93,33 %
15.02.2016 01:33 3,7 C 95 % 1000,4 hPa 0,2 l/m 16,5 km/h (3 Bft) W-SW 256 0 min 0,000 mm 0,0 UV-I 0 W/m 3,0 C -3,3 C 22,5 km/h (4 Bft) 100,00 %
15.02.2016 01:34 3,7 C 95 % 1000,4 hPa 0,0 l/m 13,5 km/h (3 Bft) W-SW 251 0 min 0,000 mm 0,0 UV-I 0 W/m 3,0 C -1,7 C 20,9 km/h (4 Bft) 95,83 %
15.02.2016 01:35 3,7 C 95 % 1000,5 hPa 0,0 l/m 13,7 km/h (3 Bft) SW 236 0 min 0,000 mm 0,0 UV-I 0 W/m 3,0 C -1,8 C 19,3 km/h (3 Bft) 95,65 %
15.02.2016 01:36 3,6 C 95 % 1000,5 hPa 0,0 l/m 15,0 km/h (3 Bft) W-SW 254 0 min 0,000 mm 0,0 UV-I 0 W/m 2,9 C -2,6 C 19,3 km/h (3 Bft) 100,00 %
15.02.2016 01:37 3,6 C 95 % 1000,5 hPa 0,0 l/m 14,9 km/h (3 Bft) W-SW 241 0 min 0,000 mm 0,0 UV-I 0 W/m 2,9 C -2,6 C 19,3 km/h (3 Bft) 96,15 %
15.02.2016 01:38 3,6 C 95 % 1000,5 hPa 0,0 l/m 14,1 km/h (3 Bft) SW 223 0 min 0,000 mm 0,0 UV-I 0 W/m 2,9 C -2,1 C 20,9 km/h (4 Bft) 95,83 %
15.02.2016 01:39 3,6 C 95 % 1000,5 hPa 0,0 l/m 14,5 km/h (3 Bft) S-SW 207 0 min 0,000 mm 0,0 UV-I 0 W/m 2,9 C -2,3 C 20,9 km/h (4 Bft) 94,12 %
15.02.2016 01:40 3,6 C 95 % 1000,5 hPa 0,0 l/m 11,9 km/h (2 Bft) W-SW 240 0 min 0,000 mm 0,0 UV-I 0 W/m 2,9 C -0,8 C 19,3 km/h (3 Bft) 100,00 %
15.02.2016 01:41 3,6 C 95 % 1000,5 hPa 0,0 l/m 15,9 km/h (3 Bft) SW 217 0 min 0,000 mm 0,0 UV-I 0 W/m 2,9 C -3,1 C 22,5 km/h (4 Bft) 95,65 %
15.02.2016 01:42 3,6 C 95 % 1000,5 hPa 0,0 l/m 15,2 km/h (3 Bft) SW 227 0 min 0,000 mm 0,0 UV-I 0 W/m 2,9 C -2,7 C 20,9 km/h (4 Bft) 100,00 %
15.02.2016 01:43 3,6 C 95 % 1000,5 hPa 0,0 l/m 15,4 km/h (3 Bft) W-SW 250 0 min 0,000 mm 0,0 UV-I 0 W/m 2,9 C -2,8 C 22,5 km/h (4 Bft) 96,55 %
15.02.2016 01:44 3,6 C 95 % 1000,5 hPa 0,2 l/m 17,9 km/h (3 Bft) W 278 0 min 0,000 mm 0,0 UV-I 0 W/m 2,9 C -4,1 C 25,7 km/h (4 Bft) 91,67 %
15.02.2016 01:45 3,6 C 95 % 1000,6 hPa 0,0 l/m 12,3 km/h (3 Bft) SW 221 0 min 0,000 mm 0,0 UV-I 0 W/m 2,9 C -1,0 C 17,7 km/h (3 Bft) 95,65 %
15.02.2016 01:46 3,6 C 95 % 1000,6 hPa 0,0 l/m 12,9 km/h (3 Bft) SW 227 0 min 0,000 mm 0,0 UV-I 0 W/m 2,9 C -1,4 C 20,9 km/h (4 Bft) 95,83 %
15.02.2016 01:47 3,5 C 95 % 1000,6 hPa 0,0 l/m 18,1 km/h (3 Bft) W-SW 245 0 min 0,000 mm 0,0 UV-I 0 W/m 2,8 C -4,3 C 25,7 km/h (4 Bft) 100,00 %
15.02.2016 01:48 3,5 C 95 % 1000,6 hPa 0,0 l/m 18,1 km/h (3 Bft) W-SW 246 0 min 0,000 mm 0,0 UV-I 0 W/m 2,8 C -4,3 C 25,7 km/h (4 Bft) 95,83 %
15.02.2016 01:49 3,5 C 95 % 1000,7 hPa 0,0 l/m 19,4 km/h (3 Bft) SW 236 0 min 0,000 mm 0,0 UV-I 0 W/m 2,8 C -4,9 C 27,4 km/h (4 Bft) 95,65 %
15.02.2016 01:50 3,5 C 95 % 1000,7 hPa 0,0 l/m 21,2 km/h (4 Bft) SW 223 0 min 0,000 mm 0,0 UV-I 0 W/m 2,8 C -5,6 C 25,7 km/h (4 Bft) 95,83 %
15.02.2016 01:51 3,5 C 94 % 1000,7 hPa 0,0 l/m 19,4 km/h (3 Bft) SW 236 0 min 0,000 mm 0,0 UV-I 0 W/m 2,6 C -4,9 C 24,1 km/h (4 Bft) 100,00 %
15.02.2016 01:52 3,5 C 94 % 1000,7 hPa 0,0 l/m 14,8 km/h (3 Bft) SW 228 0 min 0,000 mm 0,0 UV-I 0 W/m 2,6 C -2,6 C 22,5 km/h (4 Bft) 100,00 %
15.02.2016 01:53 3,5 C 94 % 1000,7 hPa 0,0 l/m 19,8 km/h (3 Bft) W-SW 250 0 min 0,000 mm 0,0 UV-I 0 W/m 2,6 C -5,0 C 25,7 km/h (4 Bft) 100,00 %
15.02.2016 01:54 3,5 C 94 % 1000,8 hPa 0,0 l/m 13,4 km/h (3 Bft) SW 233 0 min 0,000 mm 0,0 UV-I 0 W/m 2,6 C -1,8 C 19,3 km/h (3 Bft) 91,67 %
15.02.2016 01:55 3,4 C 94 % 1000,7 hPa 0,0 l/m 17,8 km/h (3 Bft) W-SW 242 0 min 0,000 mm 0,0 UV-I 0 W/m 2,5 C -4,3 C 27,4 km/h (4 Bft) 95,65 %
15.02.2016 01:56 3,4 C 94 % 1000,8 hPa 0,0 l/m 19,1 km/h (3 Bft) W-SW 237 0 min 0,000 mm 0,0 UV-I 0 W/m 2,5 C -4,9 C 27,4 km/h (4 Bft) 100,00 %
15.02.2016 01:57 3,4 C 94 % 1000,8 hPa 0,0 l/m 11,5 km/h (2 Bft) W-SW 242 0 min 0,000 mm 0,0 UV-I 0 W/m 2,5 C -0,8 C 17,7 km/h (3 Bft) 100,00 %
15.02.2016 01:58 3,4 C 94 % 1000,8 hPa 0,2 l/m 16,7 km/h (3 Bft) W-SW 252 0 min 0,000 mm 0,0 UV-I 0 W/m 2,5 C -3,7 C 24,1 km/h (4 Bft) 95,83 %
15.02.2016 01:59 3,4 C 94 % 1000,8 hPa 0,0 l/m 22,7 km/h (4 Bft) SW 217 0 min 0,000 mm 0,0 UV-I 0 W/m 2,5 C -6,3 C 29,0 km/h (5 Bft) 100,00 %
15.02.2016 02:00 3,4 C 94 % 1000,8 hPa 0,0 l/m 18,2 km/h (3 Bft) S-SW 205 0 min 0,000 mm 0,0 UV-I 0 W/m 2,5 C -4,5 C 24,1 km/h (4 Bft) 100,00 %
15.02.2016 02:01 3,4 C 94 % 1000,9 hPa 0,0 l/m 22,8 km/h (4 Bft) SW 228 0 min 0,000 mm 0,0 UV-I 0 W/m 2,5 C -6,3 C 27,4 km/h (4 Bft) 100,00 %
15.02.2016 02:02 3,4 C 94 % 1000,9 hPa 0,0 l/m 15,1 km/h (3 Bft) SW 236 0 min 0,000 mm 0,0 UV-I 0 W/m 2,5 C -2,9 C 25,7 km/h (4 Bft) 95,65 %
15.02.2016 02:03 3,4 C 94 % 1000,9 hPa 0,0 l/m 13,9 km/h (3 Bft) W-SW 242 0 min 0,000 mm 0,0 UV-I 0 W/m 2,5 C -2,2 C 19,3 km/h (3 Bft) 100,00 %
15.02.2016 02:04 3,4 C 94 % 1000,9 hPa 0,0 l/m 11,9 km/h (2 Bft) S-SW 206 0 min 0,000 mm 0,0 UV-I 0 W/m 2,5 C -1,0 C 17,7 km/h (3 Bft) 100,00 %
15.02.2016 02:05 3,4 C 94 % 1000,9 hPa 0,0 l/m 17,2 km/h (3 Bft) W-SW 238 0 min 0,000 mm 0,0 UV-I 0 W/m 2,5 C -4,0 C 24,1 km/h (4 Bft) 100,00 %
15.02.2016 02:06 3,4 C 94 % 1001,0 hPa 0,0 l/m 13,7 km/h (3 Bft) SW 228 0 min 0,000 mm 0,0 UV-I 0 W/m 2,5 C -2,1 C 19,3 km/h (3 Bft) 100,00 %
15.02.2016 02:07 3,3 C 94 % 1001,0 hPa 0,0 l/m 17,2 km/h (3 Bft) S-SW 199 0 min 0,000 mm 0,0 UV-I 0 W/m 2,4 C -4,1 C 24,1 km/h (4 Bft) 95,83 %
15.02.2016 02:08 3,3 C 94 % 1001,0 hPa 0,0 l/m 14,7 km/h (3 Bft) SW 236 0 min 0,000 mm 0,0 UV-I 0 W/m 2,4 C -2,8 C 22,5 km/h (4 Bft) 100,00 %
15.02.2016 02:09 3,3 C 94 % 1001,0 hPa 0,0 l/m 12,3 km/h (3 Bft) SW 235 0 min 0,000 mm 0,0 UV-I 0 W/m 2,4 C -1,4 C 19,3 km/h (3 Bft) 95,83 %
15.02.2016 02:10 3,3 C 94 % 1001,2 hPa 0,0 l/m 13,7 km/h (3 Bft) SO 131 0 min 0,000 mm 0,0 UV-I 0 W/m 2,4 C -2,3 C 24,1 km/h (4 Bft) 96,15 %
15.02.2016 02:11 3,3 C 94 % 1001,3 hPa 0,0 l/m 13,8 km/h (3 Bft) S-SW 196 0 min 0,000 mm 0,0 UV-I 0 W/m 2,4 C -2,3 C 17,7 km/h (3 Bft) 100,00 %
15.02.2016 02:12 3,3 C 94 % 1001,3 hPa 0,0 l/m 13,6 km/h (3 Bft) SW 215 0 min 0,000 mm 0,0 UV-I 0 W/m 2,4 C -2,2 C 17,7 km/h (3 Bft) 100,00 %
15.02.2016 02:13 3,3 C 94 % 1001,3 hPa 0,0 l/m 10,6 km/h (2 Bft) S 178 0 min 0,000 mm 0,0 UV-I 0 W/m 2,4 C -0,2 C 22,5 km/h (4 Bft) 95,83 %
15.02.2016 02:14 3,3 C 94 % 1001,3 hPa 0,0 l/m 14,0 km/h (3 Bft) S 178 0 min 0,000 mm 0,0 UV-I 0 W/m 2,4 C -2,4 C 22,5 km/h (4 Bft) 95,83 %
15.02.2016 02:15 3,3 C 94 % 1001,4 hPa 0,0 l/m 14,7 km/h (3 Bft) S 189 0 min 0,000 mm 0,0 UV-I 0 W/m 2,4 C -2,8 C 20,9 km/h (4 Bft) 100,00 %
15.02.2016 02:16 3,3 C 94 % 1001,4 hPa 0,0 l/m 18,1 km/h (3 Bft) S 180 0 min 0,000 mm 0,0 UV-I 0 W/m 2,4 C -4,5 C 22,5 km/h (4 Bft) 95,83 %
15.02.2016 02:17 3,3 C 94 % 1001,3 hPa 0,0 l/m 12,1 km/h (2 Bft) SW 217 0 min 0,000 mm 0,0 UV-I 0 W/m 2,4 C -1,3 C 16,1 km/h (3 Bft) 95,65 %
15.02.2016 02:18 3,3 C 94 % 1001,3 hPa 0,0 l/m 12,7 km/h (3 Bft) S-SW 207 0 min 0,000 mm 0,0 UV-I 0 W/m 2,4 C -1,6 C 20,9 km/h (4 Bft) 100,00 %
15.02.2016 02:19 3,2 C 94 % 1001,3 hPa 0,0 l/m 12,7 km/h (3 Bft) SW 225 0 min 0,000 mm 0,0 UV-I 0 W/m 2,3 C -1,8 C 19,3 km/h (3 Bft) 96,15 %
15.02.2016 02:20 3,2 C 94 % 1001,3 hPa 0,0 l/m 17,2 km/h (3 Bft) S 175 0 min 0,000 mm 0,0 UV-I 0 W/m 2,3 C -4,2 C 25,7 km/h (4 Bft) 100,00 %
15.02.2016 02:21 3,3 C 94 % 1001,3 hPa 0,0 l/m 11,8 km/h (2 Bft) SW 227 0 min 0,000 mm 0,0 UV-I 0 W/m 2,4 C -1,1 C 17,7 km/h (3 Bft) 100,00 %
15.02.2016 02:22 3,2 C 94 % 1001,4 hPa 0,0 l/m 15,2 km/h (3 Bft) W-SW 241 0 min 0,000 mm 0,0 UV-I 0 W/m 2,3 C -3,2 C 22,5 km/h (4 Bft) 100,00 %
15.02.2016 02:23 3,2 C 94 % 1001,4 hPa 0,0 l/m 14,7 km/h (3 Bft) S-SW 206 0 min 0,000 mm 0,0 UV-I 0 W/m 2,3 C -2,9 C 20,9 km/h (4 Bft) 95,65 %
15.02.2016 02:24 3,2 C 94 % 1001,4 hPa 0,0 l/m 17,1 km/h (3 Bft) S-SW 202 0 min 0,000 mm 0,0 UV-I 0 W/m 2,3 C -4,2 C 25,7 km/h (4 Bft) 100,00 %
15.02.2016 02:25 3,2 C 94 % 1001,4 hPa 0,0 l/m 18,5 km/h (3 Bft) W-SW 258 0 min 0,000 mm 0,0 UV-I 0 W/m 2,3 C -4,8 C 27,4 km/h (4 Bft) 100,00 %
15.02.2016 02:26 3,2 C 94 % 1001,5 hPa 0,0 l/m 17,3 km/h (3 Bft) SW 231 0 min 0,000 mm 0,0 UV-I 0 W/m 2,3 C -4,3 C 27,4 km/h (4 Bft) 96,30 %
15.02.2016 02:27 3,2 C 93 % 1001,4 hPa 0,0 l/m 15,4 km/h (3 Bft) S 177 0 min 0,000 mm 0,0 UV-I 0 W/m 2,2 C -3,3 C 22,5 km/h (4 Bft) 100,00 %
15.02.2016 02:28 3,2 C 93 % 1001,4 hPa 0,0 l/m 13,9 km/h (3 Bft) W-SW 257 0 min 0,000 mm 0,0 UV-I 0 W/m 2,2 C -2,5 C 25,7 km/h (4 Bft) 100,00 %
15.02.2016 02:29 3,2 C 93 % 1001,4 hPa 0,0 l/m 18,8 km/h (3 Bft) SW 232 0 min 0,000 mm 0,0 UV-I 0 W/m 2,2 C -5,0 C 24,1 km/h (4 Bft) 100,00 %
15.02.2016 02:30 3,2 C 93 % 1001,3 hPa 0,0 l/m 18,0 km/h (3 Bft) SW 229 0 min 0,000 mm 0,0 UV-I 0 W/m 2,2 C -4,6 C 24,1 km/h (4 Bft) 100,00 %
15.02.2016 02:31 3,1 C 93 % 1001,3 hPa 0,2 l/m 20,7 km/h (4 Bft) S-SW 198 0 min 0,000 mm 0,0 UV-I 0 W/m 2,1 C -5,9 C 29,0 km/h (5 Bft) 95,65 %
15.02.2016 02:32 3,1 C 93 % 1001,3 hPa 0,0 l/m 11,7 km/h (2 Bft) W-SW 251 0 min 0,000 mm 0,0 UV-I 0 W/m 2,1 C -1,2 C 14,5 km/h (3 Bft) 100,00 %
15.02.2016 02:33 3,1 C 93 % 1001,2 hPa 0,0 l/m 16,2 km/h (3 Bft) W-SW 238 0 min 0,000 mm 0,0 UV-I 0 W/m 2,1 C -3,9 C 24,1 km/h (4 Bft) 95,65 %
15.02.2016 02:34 3,1 C 93 % 1001,1 hPa 0,0 l/m 16,4 km/h (3 Bft) W 274 0 min 0,000 mm 0,0 UV-I 0 W/m 2,1 C -4,0 C 22,5 km/h (4 Bft) 100,00 %
15.02.2016 02:35 3,1 C 93 % 1001,2 hPa 0,0 l/m 13,6 km/h (3 Bft) W-SW 258 0 min 0,000 mm 0,0 UV-I 0 W/m 2,1 C -2,4 C 20,9 km/h (4 Bft) 100,00 %
15.02.2016 02:36 3,1 C 93 % 1001,1 hPa 0,0 l/m 18,0 km/h (3 Bft) SW 227 0 min 0,000 mm 0,0 UV-I 0 W/m 2,1 C -4,7 C 24,1 km/h (4 Bft) 95,65 %
15.02.2016 02:37 3,1 C 93 % 1001,1 hPa 0,0 l/m 19,6 km/h (3 Bft) W-SW 245 0 min 0,000 mm 0,0 UV-I 0 W/m 2,1 C -5,5 C 24,1 km/h (4 Bft) 100,00 %
15.02.2016 02:38 3,1 C 93 % 1001,2 hPa 0,0 l/m 15,3 km/h (3 Bft) S-SW 198 0 min 0,000 mm 0,0 UV-I 0 W/m 2,1 C -3,4 C 20,9 km/h (4 Bft) 95,65 %
15.02.2016 02:39 3,1 C 93 % 1001,1 hPa 0,0 l/m 18,7 km/h (3 Bft) S-SW 213 0 min 0,000 mm 0,0 UV-I 0 W/m 2,1 C -5,1 C 24,1 km/h (4 Bft) 100,00 %
15.02.2016 02:40 3,0 C 93 % 1001,2 hPa 0,0 l/m 14,5 km/h (3 Bft) SW 234 0 min 0,000 mm 0,0 UV-I 0 W/m 2,0 C -3,1 C 25,7 km/h (4 Bft) 100,00 %
15.02.2016 02:41 3,0 C 94 % 1001,2 hPa 0,0 l/m 16,9 km/h (3 Bft) SW 234 0 min 0,000 mm 0,0 UV-I 0 W/m 2,1 C -4,3 C 25,7 km/h (4 Bft) 95,83 %
15.02.2016 02:42 3,0 C 94 % 1001,4 hPa 0,0 l/m 13,0 km/h (3 Bft) W-SW 244 0 min 0,000 mm 0,0 UV-I 0 W/m 2,1 C -2,2 C 17,7 km/h (3 Bft) 100,00 %
15.02.2016 02:43 3,0 C 94 % 1001,4 hPa 0,0 l/m 12,0 km/h (2 Bft) SW 227 0 min 0,000 mm 0,0 UV-I 0 W/m 2,1 C -1,5 C 17,7 km/h (3 Bft) 100,00 %
15.02.2016 02:44 3,0 C 94 % 1001,5 hPa 0,0 l/m 15,9 km/h (3 Bft) W-SW 246 0 min 0,000 mm 0,0 UV-I 0 W/m 2,1 C -3,8 C 25,7 km/h (4 Bft) 100,00 %
15.02.2016 02:45 3,0 C 94 % 1001,5 hPa 0,0 l/m 16,1 km/h (3 Bft) W-SW 249 0 min 0,000 mm 0,0 UV-I 0 W/m 2,1 C -3,9 C 20,9 km/h (4 Bft) 100,00 %
15.02.2016 02:46 3,0 C 94 % 1001,6 hPa 0,0 l/m 15,8 km/h (3 Bft) W-SW 240 0 min 0,000 mm 0,0 UV-I 0 W/m 2,1 C -3,8 C 20,9 km/h (4 Bft) 95,65 %
15.02.2016 02:47 3,0 C 94 % 1001,6 hPa 0,2 l/m 18,0 km/h (3 Bft) SW 231 0 min 0,000 mm 0,0 UV-I 0 W/m 2,1 C -4,9 C 22,5 km/h (4 Bft) 100,00 %
15.02.2016 02:48 3,0 C 94 % 1001,5 hPa 0,0 l/m 13,7 km/h (3 Bft) SW 225 0 min 0,000 mm 0,0 UV-I 0 W/m 2,1 C -2,6 C 22,5 km/h (4 Bft) 100,00 %
15.02.2016 02:49 3,0 C 94 % 1001,5 hPa 0,0 l/m 14,1 km/h (3 Bft) SW 229 0 min 0,000 mm 0,0 UV-I 0 W/m 2,1 C -2,8 C 24,1 km/h (4 Bft) 100,00 %
15.02.2016 02:50 3,0 C 94 % 1001,5 hPa 0,0 l/m 14,1 km/h (3 Bft) W-SW 245 0 min 0,000 mm 0,0 UV-I 0 W/m 2,1 C -2,8 C 16,1 km/h (3 Bft) 95,65 %
15.02.2016 02:51 3,0 C 94 % 1001,5 hPa 0,0 l/m 14,1 km/h (3 Bft) W-SW 238 0 min 0,000 mm 0,0 UV-I 0 W/m 2,1 C -2,8 C 19,3 km/h (3 Bft) 100,00 %
15.02.2016 02:52 3,0 C 94 % 1001,5 hPa 0,0 l/m 14,9 km/h (3 Bft) W 266 0 min 0,000 mm 0,0 UV-I 0 W/m 2,1 C -3,3 C 20,9 km/h (4 Bft) 100,00 %
15.02.2016 02:53 3,0 C 94 % 1001,4 hPa 0,0 l/m 12,9 km/h (3 Bft) SW 229 0 min 0,000 mm 0,0 UV-I 0 W/m 2,1 C -2,1 C 17,7 km/h (3 Bft) 96,15 %
15.02.2016 02:54 3,0 C 94 % 1001,4 hPa 0,0 l/m 12,7 km/h (3 Bft) SW 217 0 min 0,000 mm 0,0 UV-I 0 W/m 2,1 C -2,0 C 16,1 km/h (3 Bft) 100,00 %
15.02.2016 02:55 3,0 C 94 % 1001,4 hPa 0,0 l/m 10,1 km/h (2 Bft) O-SO 120 0 min 0,000 mm 0,0 UV-I 0 W/m 2,1 C -0,2 C 14,5 km/h (3 Bft) 95,65 %
15.02.2016 02:56 3,0 C 94 % 1001,3 hPa 0,0 l/m 10,6 km/h (2 Bft) W-NW 294 0 min 0,000 mm 0,0 UV-I 0 W/m 2,1 C -0,6 C 14,5 km/h (3 Bft) 100,00 %
15.02.2016 02:57 3,0 C 94 % 1001,4 hPa 0,0 l/m 11,0 km/h (2 Bft) W-SW 257 0 min 0,000 mm 0,0 UV-I 0 W/m 2,1 C -0,9 C 16,1 km/h (3 Bft) 95,65 %
15.02.2016 02:58 2,9 C 94 % 1001,3 hPa 0,0 l/m 13,2 km/h (3 Bft) SW 220 0 min 0,000 mm 0,0 UV-I 0 W/m 2,0 C -2,4 C 17,7 km/h (3 Bft) 100,00 %
15.02.2016 02:59 2,9 C 94 % 1001,2 hPa 0,0 l/m 12,5 km/h (3 Bft) W-SW 257 0 min 0,000 mm 0,0 UV-I 0 W/m 2,0 C -2,0 C 16,1 km/h (3 Bft) 95,65 %
15.02.2016 03:00 2,9 C 94 % 1001,1 hPa 0,0 l/m 13,2 km/h (3 Bft) S-SW 203 0 min 0,000 mm 0,0 UV-I 0 W/m 2,0 C -2,4 C 16,1 km/h (3 Bft) 95,83 %
15.02.2016 03:01 2,9 C 94 % 1001,0 hPa 0,0 l/m 13,5 km/h (3 Bft) W 271 0 min 0,000 mm 0,0 UV-I 0 W/m 2,0 C -2,6 C 17,7 km/h (3 Bft) 100,00 %
15.02.2016 03:02 2,9 C 94 % 1001,0 hPa 0,0 l/m 12,9 km/h (3 Bft) SW 224 0 min 0,000 mm 0,0 UV-I 0 W/m 2,0 C -2,2 C 17,7 km/h (3 Bft) 100,00 %
15.02.2016 03:03 2,9 C 94 % 1001,1 hPa 0,0 l/m 11,8 km/h (2 Bft) W 273 0 min 0,000 mm 0,0 UV-I 0 W/m 2,0 C -1,5 C 16,1 km/h (3 Bft) 95,65 %
15.02.2016 03:04 2,9 C 94 % 1001,2 hPa 0,0 l/m 10,9 km/h (2 Bft) SW 214 0 min 0,000 mm 0,0 UV-I 0 W/m 2,0 C -0,9 C 17,7 km/h (3 Bft) 95,83 %
15.02.2016 03:05 2,9 C 94 % 1001,2 hPa 0,0 l/m 10,0 km/h (2 Bft) S-SW 201 0 min 0,000 mm 0,0 UV-I 0 W/m 2,0 C -0,2 C 16,1 km/h (3 Bft) 100,00 %
15.02.2016 03:06 2,9 C 94 % 1001,3 hPa 0,0 l/m 12,1 km/h (2 Bft) SW 227 0 min 0,000 mm 0,0 UV-I 0 W/m 2,0 C -1,7 C 16,1 km/h (3 Bft) 100,00 %
15.02.2016 03:07 2,9 C 94 % 1001,3 hPa 0,0 l/m 16,0 km/h (3 Bft) SW 216 0 min 0,000 mm 0,0 UV-I 0 W/m 2,0 C -4,0 C 20,9 km/h (4 Bft) 100,00 %
15.02.2016 03:08 2,9 C 94 % 1001,3 hPa 0,0 l/m 15,5 km/h (3 Bft) W-SW 238 0 min 0,000 mm 0,0 UV-I 0 W/m 2,0 C -3,7 C 22,5 km/h (4 Bft) 100,00 %
15.02.2016 03:09 2,9 C 94 % 1001,3 hPa 0,0 l/m 11,7 km/h (2 Bft) SW 219 0 min 0,000 mm 0,0 UV-I 0 W/m 2,0 C -1,5 C 16,1 km/h (3 Bft) 100,00 %
15.02.2016 03:10 2,9 C 94 % 1001,3 hPa 0,2 l/m 12,0 km/h (2 Bft) SW 222 0 min 0,000 mm 0,0 UV-I 0 W/m 2,0 C -1,7 C 16,1 km/h (3 Bft) 100,00 %
15.02.2016 03:11 2,9 C 94 % 1001,3 hPa 0,0 l/m 13,7 km/h (3 Bft) SW 225 0 min 0,000 mm 0,0 UV-I 0 W/m 2,0 C -2,7 C 22,5 km/h (4 Bft) 91,30 %
15.02.2016 03:12 2,9 C 94 % 1001,4 hPa 0,0 l/m 17,0 km/h (3 Bft) SW 233 0 min 0,000 mm 0,0 UV-I 0 W/m 2,0 C -4,5 C 22,5 km/h (4 Bft) 95,83 %
15.02.2016 03:13 2,9 C 94 % 1001,4 hPa 0,0 l/m 15,5 km/h (3 Bft) W-SW 238 0 min 0,000 mm 0,0 UV-I 0 W/m 2,0 C -3,7 C 20,9 km/h (4 Bft) 93,33 %
15.02.2016 03:14 2,9 C 94 % 1001,4 hPa 0,0 l/m 11,8 km/h (2 Bft) W-SW 244 0 min 0,000 mm 0,0 UV-I 0 W/m 2,0 C -1,5 C 17,7 km/h (3 Bft) 100,00 %
15.02.2016 03:15 2,9 C 94 % 1001,4 hPa 0,0 l/m 17,7 km/h (3 Bft) SW 234 0 min 0,000 mm 0,0 UV-I 0 W/m 2,0 C -4,8 C 22,5 km/h (4 Bft) 100,00 %
15.02.2016 03:16 2,9 C 94 % 1001,3 hPa 0,0 l/m 12,0 km/h (2 Bft) W 260 0 min 0,000 mm 0,0 UV-I 0 W/m 2,0 C -1,7 C 16,1 km/h (3 Bft) 96,15 %
15.02.2016 03:17 2,9 C 94 % 1001,5 hPa 0,0 l/m 15,4 km/h (3 Bft) SW 232 0 min 0,000 mm 0,0 UV-I 0 W/m 2,0 C -3,7 C 24,1 km/h (4 Bft) 96,15 %
15.02.2016 03:18 2,9 C 94 % 1001,6 hPa 0,0 l/m 14,6 km/h (3 Bft) W-SW 254 0 min 0,000 mm 0,0 UV-I 0 W/m 2,0 C -3,2 C 17,7 km/h (3 Bft) 100,00 %
15.02.2016 03:19 2,9 C 94 % 1001,6 hPa 0,0 l/m 10,7 km/h (2 Bft) W-SW 238 0 min 0,000 mm 0,0 UV-I 0 W/m 2,0 C -0,8 C 17,7 km/h (3 Bft) 100,00 %
15.02.2016 03:20 2,9 C 94 % 1001,7 hPa 0,0 l/m 12,9 km/h (3 Bft) SW 221 0 min 0,000 mm 0,0 UV-I 0 W/m 2,0 C -2,2 C 17,7 km/h (3 Bft) 100,00 %
15.02.2016 03:21 2,9 C 94 % 1001,7 hPa 0,0 l/m 11,7 km/h (2 Bft) S-SW 202 0 min 0,000 mm 0,0 UV-I 0 W/m 2,0 C -1,5 C 17,7 km/h (3 Bft) 95,83 %
15.02.2016 03:22 2,9 C 94 % 1001,7 hPa 0,0 l/m 14,6 km/h (3 Bft) W-SW 254 0 min 0,000 mm 0,0 UV-I 0 W/m 2,0 C -3,2 C 19,3 km/h (3 Bft) 100,00 %
15.02.2016 03:23 2,8 C 94 % 1001,8 hPa 0,0 l/m 9,8 km/h (2 Bft) W-SW 245 0 min 0,000 mm 0,0 UV-I 0 W/m 1,9 C -0,2 C 14,5 km/h (3 Bft) 95,83 %
15.02.2016 03:24 2,8 C 94 % 1001,8 hPa 0,0 l/m 16,8 km/h (3 Bft) W-SW 242 0 min 0,000 mm 0,0 UV-I 0 W/m 1,9 C -4,5 C 20,9 km/h (4 Bft) 100,00 %
15.02.2016 03:25 2,8 C 94 % 1001,8 hPa 0,0 l/m 16,2 km/h (3 Bft) SW 223 0 min 0,000 mm 0,0 UV-I 0 W/m 1,9 C -4,2 C 22,5 km/h (4 Bft) 95,83 %
15.02.2016 03:26 2,8 C 94 % 1001,9 hPa 0,0 l/m 12,6 km/h (3 Bft) SW 224 0 min 0,000 mm 0,0 UV-I 0 W/m 1,9 C -2,2 C 17,7 km/h (3 Bft) 100,00 %
15.02.2016 03:27 2,8 C 94 % 1001,9 hPa 0,0 l/m 16,9 km/h (3 Bft) SW 227 0 min 0,000 mm 0,0 UV-I 0 W/m 1,9 C -4,6 C 22,5 km/h (4 Bft) 95,83 %
15.02.2016 03:28 2,8 C 94 % 1001,9 hPa 0,0 l/m 13,2 km/h (3 Bft) SW 214 0 min 0,000 mm 0,0 UV-I 0 W/m 1,9 C -2,5 C 24,1 km/h (4 Bft) 95,65 %
15.02.2016 03:29 2,8 C 94 % 1001,9 hPa 0,0 l/m 13,8 km/h (3 Bft) SW 227 0 min 0,000 mm 0,0 UV-I 0 W/m 1,9 C -2,9 C 22,5 km/h (4 Bft) 100,00 %
15.02.2016 03:30 2,8 C 94 % 1002,0 hPa 0,0 l/m 15,3 km/h (3 Bft) SW 229 0 min 0,000 mm 0,0 UV-I 0 W/m 1,9 C -3,8 C 20,9 km/h (4 Bft) 91,30 %
15.02.2016 03:31 2,8 C 94 % 1002,0 hPa 0,0 l/m 17,3 km/h (3 Bft) S-SW 209 0 min 0,000 mm 0,0 UV-I 0 W/m 1,9 C -4,8 C 25,7 km/h (4 Bft) 100,00 %
15.02.2016 03:32 2,8 C 94 % 1002,0 hPa 0,0 l/m 14,2 km/h (3 Bft) SW 234 0 min 0,000 mm 0,0 UV-I 0 W/m 1,9 C -3,1 C 20,9 km/h (4 Bft) 95,65 %
15.02.2016 03:33 2,8 C 94 % 1002,0 hPa 0,0 l/m 10,5 km/h (2 Bft) W-SW 241 0 min 0,000 mm 0,0 UV-I 0 W/m 1,9 C -0,7 C 14,5 km/h (3 Bft) 95,83 %
15.02.2016 03:34 2,8 C 94 % 1002,0 hPa 0,0 l/m 9,9 km/h (2 Bft) W-SW 240 0 min 0,000 mm 0,0 UV-I 0 W/m 1,9 C -0,3 C 16,1 km/h (3 Bft) 91,30 %
15.02.2016 03:35 2,8 C 94 % 1002,0 hPa 0,0 l/m 15,4 km/h (3 Bft) S 190 0 min 0,000 mm 0,0 UV-I 0 W/m 1,9 C -3,8 C 20,9 km/h (4 Bft) 95,83 %
15.02.2016 03:36 2,8 C 94 % 1002,0 hPa 0,0 l/m 12,1 km/h (2 Bft) SW 232 0 min 0,000 mm 0,0 UV-I 0 W/m 1,9 C -1,8 C 16,1 km/h (3 Bft) 96,15 %
15.02.2016 03:37 2,8 C 94 % 1002,0 hPa 0,0 l/m 13,6 km/h (3 Bft) W-SW 242 0 min 0,000 mm 0,0 UV-I 0 W/m 1,9 C -2,8 C 17,7 km/h (3 Bft) 95,83 %
15.02.2016 03:38 2,9 C 94 % 1002,0 hPa 0,0 l/m 12,0 km/h (2 Bft) S-SW 201 0 min 0,000 mm 0,0 UV-I 0 W/m 2,0 C -1,7 C 19,3 km/h (3 Bft) 100,00 %
15.02.2016 03:39 2,9 C 94 % 1002,0 hPa 0,0 l/m 11,6 km/h (2 Bft) S-SO 155 0 min 0,000 mm 0,0 UV-I 0 W/m 2,0 C -1,4 C 16,1 km/h (3 Bft) 95,65 %
15.02.2016 03:40 2,9 C 94 % 1001,9 hPa 0,0 l/m 9,9 km/h (2 Bft) SW 226 0 min 0,000 mm 0,0 UV-I 0 W/m 2,0 C -0,2 C 16,1 km/h (3 Bft) 100,00 %
15.02.2016 03:41 2,9 C 94 % 1001,9 hPa 0,0 l/m 12,7 km/h (3 Bft) S 185 0 min 0,000 mm 0,0 UV-I 0 W/m 2,0 C -2,1 C 17,7 km/h (3 Bft) 96,15 %
15.02.2016 03:42 2,9 C 94 % 1001,9 hPa 0,0 l/m 9,1 km/h (2 Bft) S-SW 202 0 min 0,000 mm 0,0 UV-I 0 W/m 2,0 C 0,5 C 14,5 km/h (3 Bft) 100,00 %
15.02.2016 03:43 2,9 C 94 % 1001,9 hPa 0,0 l/m 10,5 km/h (2 Bft) S-SW 196 0 min 0,000 mm 0,0 UV-I 0 W/m 2,0 C -0,6 C 16,1 km/h (3 Bft) 95,65 %
15.02.2016 03:44 2,9 C 94 % 1002,0 hPa 0,0 l/m 10,8 km/h (2 Bft) S-SW 211 0 min 0,000 mm 0,0 UV-I 0 W/m 2,0 C -0,8 C 14,5 km/h (3 Bft) 92,59 %
15.02.2016 03:45 2,9 C 94 % 1002,0 hPa 0,0 l/m 13,0 km/h (3 Bft) SW 219 0 min 0,000 mm 0,0 UV-I 0 W/m 2,0 C -2,3 C 17,7 km/h (3 Bft) 100,00 %
15.02.2016 03:46 2,9 C 94 % 1002,1 hPa 0,0 l/m 12,5 km/h (3 Bft) SW 227 0 min 0,000 mm 0,0 UV-I 0 W/m 2,0 C -2,0 C 17,7 km/h (3 Bft) 95,83 %
15.02.2016 03:47 2,9 C 94 % 1002,1 hPa 0,0 l/m 12,2 km/h (2 Bft) W-SW 238 0 min 0,000 mm 0,0 UV-I 0 W/m 2,0 C -1,8 C 16,1 km/h (3 Bft) 100,00 %
15.02.2016 03:48 2,9 C 94 % 1002,2 hPa 0,0 l/m 12,0 km/h (2 Bft) SW 222 0 min 0,000 mm 0,0 UV-I 0 W/m 2,0 C -1,7 C 19,3 km/h (3 Bft) 92,59 %
15.02.2016 03:49 2,9 C 94 % 1002,2 hPa 0,0 l/m 12,4 km/h (3 Bft) S 179 0 min 0,000 mm 0,0 UV-I 0 W/m 2,0 C -1,9 C 20,9 km/h (4 Bft) 100,00 %
15.02.2016 03:50 2,9 C 94 % 1002,2 hPa 0,0 l/m 12,1 km/h (2 Bft) W 263 0 min 0,000 mm 0,0 UV-I 0 W/m 2,0 C -1,7 C 17,7 km/h (3 Bft) 95,83 %
15.02.2016 03:51 2,9 C 94 % 1002,2 hPa 0,0 l/m 10,3 km/h (2 Bft) SW 234 0 min 0,000 mm 0,0 UV-I 0 W/m 2,0 C -0,5 C 12,9 km/h (3 Bft) 95,83 %
15.02.2016 03:52 2,9 C 94 % 1002,2 hPa 0,0 l/m 10,1 km/h (2 Bft) W-SW 254 0 min 0,000 mm 0,0 UV-I 0 W/m 2,0 C -0,3 C 16,1 km/h (3 Bft) 95,65 %
15.02.2016 03:53 2,9 C 94 % 1002,1 hPa 0,0 l/m 13,5 km/h (3 Bft) S-SW 205 0 min 0,000 mm 0,0 UV-I 0 W/m 2,0 C -2,6 C 20,9 km/h (4 Bft) 100,00 %
15.02.2016 03:54 2,9 C 94 % 1002,1 hPa 0,0 l/m 10,7 km/h (2 Bft) SW 227 0 min 0,000 mm 0,0 UV-I 0 W/m 2,0 C -0,8 C 14,5 km/h (3 Bft) 96,15 %
15.02.2016 03:55 2,9 C 94 % 1002,0 hPa 0,0 l/m 10,3 km/h (2 Bft) W 262 0 min 0,000 mm 0,0 UV-I 0 W/m 2,0 C -0,5 C 16,1 km/h (3 Bft) 95,83 %
15.02.2016 03:56 3,0 C 94 % 1002,1 hPa 0,0 l/m 7,8 km/h (2 Bft) S-SW 201 0 min 0,000 mm 0,0 UV-I 0 W/m 2,1 C 1,7 C 11,3 km/h (2 Bft) 100,00 %
15.02.2016 03:57 3,0 C 94 % 1002,1 hPa 0,0 l/m 11,7 km/h (2 Bft) SW 233 0 min 0,000 mm 0,0 UV-I 0 W/m 2,1 C -1,3 C 16,1 km/h (3 Bft) 100,00 %
15.02.2016 03:58 2,9 C 94 % 1002,1 hPa 0,0 l/m 9,2 km/h (2 Bft) W-SW 241 0 min 0,000 mm 0,0 UV-I 0 W/m 2,0 C 0,4 C 12,9 km/h (3 Bft) 100,00 %
15.02.2016 03:59 3,0 C 94 % 1002,1 hPa 0,0 l/m 13,3 km/h (3 Bft) SW 231 0 min 0,000 mm 0,0 UV-I 0 W/m 2,1 C -2,4 C 17,7 km/h (3 Bft) 100,00 %
15.02.2016 04:00 3,0 C 94 % 1002,1 hPa 0,0 l/m 10,1 km/h (2 Bft) S-SW 211 0 min 0,000 mm 0,0 UV-I 0 W/m 2,1 C -0,2 C 14,5 km/h (3 Bft) 100,00 %
15.02.2016 04:01 3,0 C 94 % 1002,1 hPa 0,0 l/m 13,6 km/h (3 Bft) W-SW 240 0 min 0,000 mm 0,0 UV-I 0 W/m 2,1 C -2,5 C 17,7 km/h (3 Bft) 100,00 %
15.02.2016 04:02 3,0 C 94 % 1002,2 hPa 0,0 l/m 9,0 km/h (2 Bft) W-SW 244 0 min 0,000 mm 0,0 UV-I 0 W/m 2,1 C 0,6 C 12,9 km/h (3 Bft) 100,00 %
15.02.2016 04:03 3,0 C 94 % 1002,1 hPa 0,0 l/m 8,4 km/h (2 Bft) SW 223 0 min 0,000 mm 0,0 UV-I 0 W/m 2,1 C 1,2 C 16,1 km/h (3 Bft) 100,00 %
15.02.2016 04:04 3,0 C 94 % 1002,2 hPa 0,0 l/m 9,6 km/h (2 Bft) S 186 0 min 0,000 mm 0,0 UV-I 0 W/m 2,1 C 0,2 C 12,9 km/h (3 Bft) 100,00 %
15.02.2016 04:05 3,0 C 94 % 1002,2 hPa 0,0 l/m 8,3 km/h (2 Bft) SW 232 0 min 0,000 mm 0,0 UV-I 0 W/m 2,1 C 1,2 C 11,3 km/h (2 Bft) 100,00 %
15.02.2016 04:06 3,0 C 94 % 1002,2 hPa 0,0 l/m 10,7 km/h (2 Bft) W-SW 237 0 min 0,000 mm 0,0 UV-I 0 W/m 2,1 C -0,7 C 17,7 km/h (3 Bft) 100,00 %
15.02.2016 04:07 3,0 C 94 % 1002,2 hPa 0,0 l/m 10,7 km/h (2 Bft) S-SW 210 0 min 0,000 mm 0,0 UV-I 0 W/m 2,1 C -0,7 C 16,1 km/h (3 Bft) 100,00 %
15.02.2016 04:08 3,0 C 94 % 1002,2 hPa 0,0 l/m 11,3 km/h (2 Bft) W-SW 247 0 min 0,000 mm 0,0 UV-I 0 W/m 2,1 C -1,1 C 16,1 km/h (3 Bft) 95,65 %
15.02.2016 04:09 3,0 C 94 % 1002,3 hPa 0,0 l/m 6,9 km/h (2 Bft) W-SW 248 0 min 0,000 mm 0,0 UV-I 0 W/m 2,1 C 2,5 C 9,7 km/h (2 Bft) 100,00 %
15.02.2016 04:10 3,0 C 94 % 1002,3 hPa 0,0 l/m 7,7 km/h (2 Bft) S-SW 209 0 min 0,000 mm 0,0 UV-I 0 W/m 2,1 C 1,8 C 11,3 km/h (2 Bft) 91,30 %
15.02.2016 04:11 3,1 C 94 % 1002,3 hPa 0,0 l/m 10,4 km/h (2 Bft) SW 232 0 min 0,000 mm 0,0 UV-I 0 W/m 2,2 C -0,3 C 12,9 km/h (3 Bft) 100,00 %
15.02.2016 04:12 3,1 C 94 % 1002,4 hPa 0,0 l/m 8,5 km/h (2 Bft) S-SW 195 0 min 0,000 mm 0,0 UV-I 0 W/m 2,2 C 1,2 C 11,3 km/h (2 Bft) 100,00 %
15.02.2016 04:13 3,1 C 94 % 1002,4 hPa 0,0 l/m 8,5 km/h (2 Bft) S-SW 195 0 min 0,000 mm 0,0 UV-I 0 W/m 2,2 C 1,2 C 11,3 km/h (2 Bft) 95,83 %
15.02.2016 04:14 3,1 C 94 % 1002,4 hPa 0,0 l/m 10,2 km/h (2 Bft) S-SW 211 0 min 0,000 mm 0,0 UV-I 0 W/m 2,2 C -0,2 C 14,5 km/h (3 Bft) 92,31 %
15.02.2016 04:15 3,1 C 94 % 1002,3 hPa 0,0 l/m 9,3 km/h (2 Bft) W-SW 244 0 min 0,000 mm 0,0 UV-I 0 W/m 2,2 C 0,5 C 12,9 km/h (3 Bft) 100,00 %
15.02.2016 04:16 3,1 C 94 % 1002,3 hPa 0,0 l/m 10,3 km/h (2 Bft) SW 228 0 min 0,000 mm 0,0 UV-I 0 W/m 2,2 C -0,2 C 12,9 km/h (3 Bft) 100,00 %
15.02.2016 04:17 3,1 C 94 % 1002,3 hPa 0,0 l/m 8,6 km/h (2 Bft) W-SW 240 0 min 0,000 mm 0,0 UV-I 0 W/m 2,2 C 1,1 C 16,1 km/h (3 Bft) 100,00 %
15.02.2016 04:18 3,1 C 94 % 1002,3 hPa 0,0 l/m 9,7 km/h (2 Bft) S-SW 197 0 min 0,000 mm 0,0 UV-I 0 W/m 2,2 C 0,2 C 12,9 km/h (3 Bft) 100,00 %
15.02.2016 04:19 3,1 C 94 % 1002,3 hPa 0,0 l/m 9,7 km/h (2 Bft) SW 232 0 min 0,000 mm 0,0 UV-I 0 W/m 2,2 C 0,2 C 14,5 km/h (3 Bft) 95,65 %
15.02.2016 04:20 3,1 C 94 % 1002,3 hPa 0,0 l/m 12,1 km/h (2 Bft) S-SW 209 0 min 0,000 mm 0,0 UV-I 0 W/m 2,2 C -1,5 C 17,7 km/h (3 Bft) 100,00 %
15.02.2016 04:21 3,1 C 94 % 1002,3 hPa 0,0 l/m 10,4 km/h (2 Bft) SW 234 0 min 0,000 mm 0,0 UV-I 0 W/m 2,2 C -0,3 C 14,5 km/h (3 Bft) 100,00 %
15.02.2016 04:22 3,1 C 94 % 1002,3 hPa 0,0 l/m 9,0 km/h (2 Bft) W-SW 238 0 min 0,000 mm 0,0 UV-I 0 W/m 2,2 C 0,8 C 12,9 km/h (3 Bft) 100,00 %
15.02.2016 04:23 3,1 C 94 % 1002,3 hPa 0,0 l/m 10,8 km/h (2 Bft) SW 236 0 min 0,000 mm 0,0 UV-I 0 W/m 2,2 C -0,6 C 14,5 km/h (3 Bft) 95,65 %
15.02.2016 04:24 3,1 C 94 % 1002,3 hPa 0,0 l/m 12,1 km/h (2 Bft) W-SW 240 0 min 0,000 mm 0,0 UV-I 0 W/m 2,2 C -1,5 C 17,7 km/h (3 Bft) 100,00 %
15.02.2016 04:25 3,1 C 94 % 1002,3 hPa 0,0 l/m 9,6 km/h (2 Bft) SW 228 0 min 0,000 mm 0,0 UV-I 0 W/m 2,2 C 0,3 C 12,9 km/h (3 Bft) 100,00 %
15.02.2016 04:26 3,1 C 94 % 1002,4 hPa 0,0 l/m 9,5 km/h (2 Bft) SW 230 0 min 0,000 mm 0,0 UV-I 0 W/m 2,2 C 0,4 C 12,9 km/h (3 Bft) 95,83 %
15.02.2016 04:27 3,1 C 94 % 1002,5 hPa 0,0 l/m 10,7 km/h (2 Bft) SW 236 0 min 0,000 mm 0,0 UV-I 0 W/m 2,2 C -0,5 C 14,5 km/h (3 Bft) 100,00 %
15.02.2016 04:28 3,1 C 94 % 1002,4 hPa 0,0 l/m 10,4 km/h (2 Bft) SW 228 0 min 0,000 mm 0,0 UV-I 0 W/m 2,2 C -0,3 C 16,1 km/h (3 Bft) 100,00 %
15.02.2016 04:29 3,1 C 94 % 1002,4 hPa 0,0 l/m 11,3 km/h (2 Bft) W-SW 238 0 min 0,000 mm 0,0 UV-I 0 W/m 2,2 C -1,0 C 16,1 km/h (3 Bft) 100,00 %
15.02.2016 04:30 3,1 C 94 % 1002,4 hPa 0,0 l/m 12,1 km/h (2 Bft) SW 235 0 min 0,000 mm 0,0 UV-I 0 W/m 2,2 C -1,5 C 16,1 km/h (3 Bft) 95,83 %
15.02.2016 04:31 3,1 C 94 % 1002,4 hPa 0,0 l/m 10,4 km/h (2 Bft) SW 227 0 min 0,000 mm 0,0 UV-I 0 W/m 2,2 C -0,3 C 14,5 km/h (3 Bft) 100,00 %
15.02.2016 04:32 3,0 C 94 % 1002,4 hPa 0,0 l/m 8,8 km/h (2 Bft) S-SW 201 0 min 0,000 mm 0,0 UV-I 0 W/m 2,1 C 0,8 C 14,5 km/h (3 Bft) 91,30 %
15.02.2016 04:33 3,1 C 94 % 1002,4 hPa 0,0 l/m 8,2 km/h (2 Bft) S-SW 212 0 min 0,000 mm 0,0 UV-I 0 W/m 2,2 C 1,4 C 11,3 km/h (2 Bft) 100,00 %
15.02.2016 04:34 3,1 C 94 % 1002,4 hPa 0,0 l/m 7,0 km/h (2 Bft) W-SW 241 0 min 0,000 mm 0,0 UV-I 0 W/m 2,2 C 2,5 C 11,3 km/h (2 Bft) 100,00 %
15.02.2016 04:35 3,1 C 94 % 1002,4 hPa 0,0 l/m 9,4 km/h (2 Bft) SW 225 0 min 0,000 mm 0,0 UV-I 0 W/m 2,2 C 0,4 C 14,5 km/h (3 Bft) 100,00 %
15.02.2016 04:36 3,1 C 94 % 1002,5 hPa 0,0 l/m 10,2 km/h (2 Bft) W-SW 254 0 min 0,000 mm 0,0 UV-I 0 W/m 2,2 C -0,2 C 17,7 km/h (3 Bft) 100,00 %
15.02.2016 04:37 3,1 C 94 % 1002,5 hPa 0,0 l/m 10,1 km/h (2 Bft) W-SW 240 0 min 0,000 mm 0,0 UV-I 0 W/m 2,2 C -0,1 C 17,7 km/h (3 Bft) 100,00 %
15.02.2016 04:38 3,0 C 94 % 1002,5 hPa 0,0 l/m 10,9 km/h (2 Bft) W-SW 248 0 min 0,000 mm 0,0 UV-I 0 W/m 2,1 C -0,8 C 16,1 km/h (3 Bft) 100,00 %
15.02.2016 04:39 3,0 C 94 % 1002,5 hPa 0,0 l/m 8,8 km/h (2 Bft) W-SW 238 0 min 0,000 mm 0,0 UV-I 0 W/m 2,1 C 0,8 C 12,9 km/h (3 Bft) 100,00 %
15.02.2016 04:40 3,0 C 94 % 1002,5 hPa 0,0 l/m 8,4 km/h (2 Bft) SW 222 0 min 0,000 mm 0,0 UV-I 0 W/m 2,1 C 1,2 C 12,9 km/h (3 Bft) 100,00 %
15.02.2016 04:41 3,0 C 94 % 1002,5 hPa 0,0 l/m 8,8 km/h (2 Bft) W-SW 258 0 min 0,000 mm 0,0 UV-I 0 W/m 2,1 C 0,8 C 11,3 km/h (2 Bft) 100,00 %
15.02.2016 04:42 3,0 C 94 % 1002,5 hPa 0,0 l/m 8,7 km/h (2 Bft) SW 236 0 min 0,000 mm 0,0 UV-I 0 W/m 2,1 C 0,9 C 12,9 km/h (3 Bft) 100,00 %
15.02.2016 04:43 2,9 C 94 % 1002,4 hPa 0,0 l/m 7,6 km/h (2 Bft) SW 227 0 min 0,000 mm 0,0 UV-I 0 W/m 2,0 C 1,8 C 11,3 km/h (2 Bft) 100,00 %
15.02.2016 04:44 2,9 C 94 % 1002,5 hPa 0,0 l/m 7,4 km/h (2 Bft) SW 220 0 min 0,000 mm 0,0 UV-I 0 W/m 2,0 C 1,9 C 11,3 km/h (2 Bft) 100,00 %
15.02.2016 04:45 2,9 C 94 % 1002,5 hPa 0,0 l/m 8,1 km/h (2 Bft) SW 228 0 min 0,000 mm 0,0 UV-I 0 W/m 2,0 C 1,3 C 11,3 km/h (2 Bft) 95,83 %
15.02.2016 04:46 2,9 C 94 % 1002,6 hPa 0,0 l/m 6,9 km/h (2 Bft) W-SW 239 0 min 0,000 mm 0,0 UV-I 0 W/m 2,0 C 2,4 C 11,3 km/h (2 Bft) 100,00 %
15.02.2016 04:47 2,9 C 94 % 1002,5 hPa 0,0 l/m 7,2 km/h (2 Bft) SW 236 0 min 0,000 mm 0,0 UV-I 0 W/m 2,0 C 2,1 C 9,7 km/h (2 Bft) 96,30 %
15.02.2016 04:48 2,9 C 95 % 1002,5 hPa 0,0 l/m 7,6 km/h (2 Bft) SW 224 0 min 0,000 mm 0,0 UV-I 0 W/m 2,2 C 1,8 C 9,7 km/h (2 Bft) 100,00 %
15.02.2016 04:49 2,9 C 95 % 1002,5 hPa 0,0 l/m 9,6 km/h (2 Bft) W-SW 242 0 min 0,000 mm 0,0 UV-I 0 W/m 2,2 C 0,1 C 12,9 km/h (3 Bft) 95,83 %
15.02.2016 04:50 2,8 C 95 % 1002,5 hPa 0,0 l/m 8,2 km/h (2 Bft) SW 229 0 min 0,000 mm 0,0 UV-I 0 W/m 2,1 C 1,1 C 12,9 km/h (3 Bft) 100,00 %
15.02.2016 04:51 2,9 C 94 % 1002,6 hPa 0,0 l/m 9,4 km/h (2 Bft) S-SW 209 0 min 0,000 mm 0,0 UV-I 0 W/m 2,0 C 0,2 C 12,9 km/h (3 Bft) 100,00 %
15.02.2016 04:52 2,8 C 95 % 1002,6 hPa 0,0 l/m 8,2 km/h (2 Bft) S-SW 209 0 min 0,000 mm 0,0 UV-I 0 W/m 2,1 C 1,1 C 12,9 km/h (3 Bft) 100,00 %
15.02.2016 04:53 2,8 C 95 % 1002,7 hPa 0,0 l/m 8,3 km/h (2 Bft) SW 231 0 min 0,000 mm 0,0 UV-I 0 W/m 2,1 C 1,0 C 12,9 km/h (3 Bft) 95,65 %
15.02.2016 04:54 2,8 C 95 % 1002,7 hPa 0,0 l/m 5,2 km/h (1 Bft) SW 229 0 min 0,000 mm 0,0 UV-I 0 W/m 2,1 C 2,8 C 8,0 km/h (2 Bft) 95,83 %
15.02.2016 04:55 2,8 C 95 % 1002,7 hPa 0,0 l/m 5,2 km/h (1 Bft) SW 220 0 min 0,000 mm 0,0 UV-I 0 W/m 2,1 C 2,8 C 8,0 km/h (2 Bft) 100,00 %
15.02.2016 04:56 2,9 C 95 % 1002,7 hPa 0,0 l/m 7,3 km/h (2 Bft) S 182 0 min 0,000 mm 0,0 UV-I 0 W/m 2,2 C 2,0 C 12,9 km/h (3 Bft) 100,00 %
15.02.2016 04:57 2,8 C 95 % 1002,8 hPa 0,0 l/m 6,2 km/h (2 Bft) S-SW 213 0 min 0,000 mm 0,0 UV-I 0 W/m 2,1 C 2,8 C 8,0 km/h (2 Bft) 100,00 %
15.02.2016 04:58 2,9 C 95 % 1002,8 hPa 0,0 l/m 6,8 km/h (2 Bft) S-SW 204 0 min 0,000 mm 0,0 UV-I 0 W/m 2,2 C 2,5 C 9,7 km/h (2 Bft) 100,00 %
15.02.2016 04:59 2,9 C 95 % 1002,7 hPa 0,0 l/m 7,4 km/h (2 Bft) W-SW 244 0 min 0,000 mm 0,0 UV-I 0 W/m 2,2 C 1,9 C 11,3 km/h (2 Bft) 95,65 %
15.02.2016 05:00 2,9 C 95 % 1002,7 hPa 0,0 l/m 7,4 km/h (2 Bft) SW 232 0 min 0,000 mm 0,0 UV-I 0 W/m 2,2 C 1,9 C 11,3 km/h (2 Bft) 100,00 %
15.02.2016 05:01 2,9 C 95 % 1002,7 hPa 0,0 l/m 6,4 km/h (2 Bft) S-SW 213 0 min 0,000 mm 0,0 UV-I 0 W/m 2,2 C 2,9 C 11,3 km/h (2 Bft) 100,00 %
15.02.2016 05:02 2,9 C 95 % 1002,7 hPa 0,0 l/m 8,0 km/h (2 Bft) S-SW 200 0 min 0,000 mm 0,0 UV-I 0 W/m 2,2 C 1,4 C 9,7 km/h (2 Bft) 100,00 %
15.02.2016 05:03 2,9 C 95 % 1002,8 hPa 0,0 l/m 9,9 km/h (2 Bft) S-SW 200 0 min 0,000 mm 0,0 UV-I 0 W/m 2,2 C -0,2 C 11,3 km/h (2 Bft) 100,00 %
15.02.2016 05:04 2,9 C 95 % 1002,8 hPa 0,0 l/m 6,2 km/h (2 Bft) S-SW 208 0 min 0,000 mm 0,0 UV-I 0 W/m 2,2 C 2,9 C 9,7 km/h (2 Bft) 95,83 %
15.02.2016 05:05 2,9 C 95 % 1002,8 hPa 0,0 l/m 6,5 km/h (2 Bft) S-SW 213 0 min 0,000 mm 0,0 UV-I 0 W/m 2,2 C 2,8 C 9,7 km/h (2 Bft) 100,00 %
15.02.2016 05:06 2,9 C 95 % 1002,8 hPa 0,0 l/m 7,3 km/h (2 Bft) SW 235 0 min 0,000 mm 0,0 UV-I 0 W/m 2,2 C 2,0 C 11,3 km/h (2 Bft) 100,00 %
15.02.2016 05:07 2,9 C 95 % 1002,8 hPa 0,0 l/m 8,1 km/h (2 Bft) SW 223 0 min 0,000 mm 0,0 UV-I 0 W/m 2,2 C 1,3 C 11,3 km/h (2 Bft) 100,00 %
15.02.2016 05:08 2,9 C 95 % 1002,9 hPa 0,0 l/m 6,5 km/h (2 Bft) S-SW 194 0 min 0,000 mm 0,0 UV-I 0 W/m 2,2 C 2,8 C 9,7 km/h (2 Bft) 95,83 %
15.02.2016 05:09 2,9 C 95 % 1002,9 hPa 0,0 l/m 6,5 km/h (2 Bft) SW 225 0 min 0,000 mm 0,0 UV-I 0 W/m 2,2 C 2,8 C 8,0 km/h (2 Bft) 100,00 %
15.02.2016 05:10 2,9 C 95 % 1002,9 hPa 0,0 l/m 4,3 km/h (1 Bft) SW 216 0 min 0,000 mm 0,0 UV-I 0 W/m 2,2 C 2,9 C 6,4 km/h (2 Bft) 100,00 %
15.02.2016 05:11 2,9 C 95 % 1002,9 hPa 0,0 l/m 6,0 km/h (2 Bft) SW 227 0 min 0,000 mm 0,0 UV-I 0 W/m 2,2 C 2,9 C 11,3 km/h (2 Bft) 100,00 %
15.02.2016 05:12 2,9 C 95 % 1002,9 hPa 0,0 l/m 5,5 km/h (1 Bft) W-SW 238 0 min 0,000 mm 0,0 UV-I 0 W/m 2,2 C 2,9 C 11,3 km/h (2 Bft) 100,00 %
15.02.2016 05:13 2,9 C 95 % 1002,9 hPa 0,0 l/m 4,6 km/h (1 Bft) SW 223 0 min 0,000 mm 0,0 UV-I 0 W/m 2,2 C 2,9 C 6,4 km/h (2 Bft) 95,65 %
15.02.2016 05:14 2,9 C 94 % 1003,0 hPa 0,0 l/m 6,1 km/h (2 Bft) SW 236 0 min 0,000 mm 0,0 UV-I 0 W/m 2,0 C 2,9 C 8,0 km/h (2 Bft) 100,00 %
15.02.2016 05:15 2,9 C 94 % 1003,0 hPa 0,0 l/m 6,2 km/h (2 Bft) SW 236 0 min 0,000 mm 0,0 UV-I 0 W/m 2,0 C 2,9 C 8,0 km/h (2 Bft) 100,00 %
15.02.2016 05:16 2,9 C 94 % 1003,0 hPa 0,0 l/m 4,1 km/h (1 Bft) S-SW 207 0 min 0,000 mm 0,0 UV-I 0 W/m 2,0 C 2,9 C 6,4 km/h (2 Bft) 100,00 %
15.02.2016 05:17 2,9 C 94 % 1003,1 hPa 0,0 l/m 4,7 km/h (1 Bft) SW 227 0 min 0,000 mm 0,0 UV-I 0 W/m 2,0 C 2,9 C 8,0 km/h (2 Bft) 96,43 %
15.02.2016 05:18 2,9 C 94 % 1003,1 hPa 0,0 l/m 4,1 km/h (1 Bft) W-SW 249 0 min 0,000 mm 0,0 UV-I 0 W/m 2,0 C 2,9 C 4,8 km/h (1 Bft) 100,00 %
15.02.2016 05:19 2,9 C 95 % 1003,1 hPa 0,0 l/m 4,6 km/h (1 Bft) W 259 0 min 0,000 mm 0,0 UV-I 0 W/m 2,2 C 2,9 C 6,4 km/h (2 Bft) 95,83 %
15.02.2016 05:20 2,9 C 95 % 1003,1 hPa 0,0 l/m 3,8 km/h (1 Bft) SW 227 0 min 0,000 mm 0,0 UV-I 0 W/m 2,2 C 2,9 C 6,4 km/h (2 Bft) 95,65 %
15.02.2016 05:21 2,8 C 95 % 1003,1 hPa 0,0 l/m 4,2 km/h (1 Bft) SW 226 0 min 0,000 mm 0,0 UV-I 0 W/m 2,1 C 2,8 C 6,4 km/h (2 Bft) 95,83 %
15.02.2016 05:22 2,8 C 95 % 1003,1 hPa 0,0 l/m 5,4 km/h (1 Bft) SW 228 0 min 0,000 mm 0,0 UV-I 0 W/m 2,1 C 2,8 C 8,0 km/h (2 Bft) 100,00 %
15.02.2016 05:23 2,8 C 94 % 1003,1 hPa 0,0 l/m 4,8 km/h (1 Bft) SW 226 0 min 0,000 mm 0,0 UV-I 0 W/m 1,9 C 2,8 C 6,4 km/h (2 Bft) 100,00 %
15.02.2016 05:24 2,8 C 95 % 1003,2 hPa 0,0 l/m 4,6 km/h (1 Bft) SW 227 0 min 0,000 mm 0,0 UV-I 0 W/m 2,1 C 2,8 C 6,4 km/h (2 Bft) 95,65 %
15.02.2016 05:25 2,8 C 95 % 1003,2 hPa 0,0 l/m 5,2 km/h (1 Bft) SW 214 0 min 0,000 mm 0,0 UV-I 0 W/m 2,1 C 2,8 C 6,4 km/h (2 Bft) 100,00 %
15.02.2016 05:26 2,8 C 95 % 1003,3 hPa 0,0 l/m 4,6 km/h (1 Bft) SW 225 0 min 0,000 mm 0,0 UV-I 0 W/m 2,1 C 2,8 C 6,4 km/h (2 Bft) 91,30 %
15.02.2016 05:27 2,8 C 95 % 1003,3 hPa 0,0 l/m 5,0 km/h (1 Bft) SW 225 0 min 0,000 mm 0,0 UV-I 0 W/m 2,1 C 2,8 C 6,4 km/h (2 Bft) 100,00 %
15.02.2016 05:28 2,8 C 95 % 1003,3 hPa 0,0 l/m 4,4 km/h (1 Bft) SW 221 0 min 0,000 mm 0,0 UV-I 0 W/m 2,1 C 2,8 C 6,4 km/h (2 Bft) 96,15 %
15.02.2016 05:29 2,8 C 95 % 1003,3 hPa 0,0 l/m 3,4 km/h (1 Bft) SW 229 0 min 0,000 mm 0,0 UV-I 0 W/m 2,1 C 2,8 C 4,8 km/h (1 Bft) 100,00 %
15.02.2016 05:30 2,8 C 95 % 1003,3 hPa 0,0 l/m 4,6 km/h (1 Bft) SW 223 0 min 0,000 mm 0,0 UV-I 0 W/m 2,1 C 2,8 C 4,8 km/h (1 Bft) 95,65 %
15.02.2016 05:31 2,8 C 95 % 1003,4 hPa 0,0 l/m 4,6 km/h (1 Bft) S-SW 211 0 min 0,000 mm 0,0 UV-I 0 W/m 2,1 C 2,8 C 6,4 km/h (2 Bft) 100,00 %
15.02.2016 05:32 2,8 C 95 % 1003,4 hPa 0,0 l/m 5,2 km/h (1 Bft) S-SW 192 0 min 0,000 mm 0,0 UV-I 0 W/m 2,1 C 2,8 C 8,0 km/h (2 Bft) 95,65 %
15.02.2016 05:33 2,8 C 95 % 1003,3 hPa 0,0 l/m 6,4 km/h (2 Bft) S-SW 200 0 min 0,000 mm 0,0 UV-I 0 W/m 2,1 C 2,8 C 8,0 km/h (2 Bft) 100,00 %
15.02.2016 05:34 2,8 C 95 % 1003,3 hPa 0,0 l/m 6,4 km/h (2 Bft) S-SW 210 0 min 0,000 mm 0,0 UV-I 0 W/m 2,1 C 2,8 C 8,0 km/h (2 Bft) 95,65 %
15.02.2016 05:35 2,8 C 95 % 1003,3 hPa 0,0 l/m 5,0 km/h (1 Bft) S-SW 211 0 min 0,000 mm 0,0 UV-I 0 W/m 2,1 C 2,8 C 6,4 km/h (2 Bft) 95,83 %
15.02.2016 05:36 2,8 C 95 % 1003,3 hPa 0,0 l/m 5,2 km/h (1 Bft) SW 218 0 min 0,000 mm 0,0 UV-I 0 W/m 2,1 C 2,8 C 8,0 km/h (2 Bft) 91,30 %
15.02.2016 05:37 2,8 C 95 % 1003,2 hPa 0,0 l/m 3,6 km/h (1 Bft) SW 216 0 min 0,000 mm 0,0 UV-I 0 W/m 2,1 C 2,8 C 4,8 km/h (1 Bft) 95,83 %
15.02.2016 05:38 2,9 C 95 % 1003,2 hPa 0,0 l/m 3,8 km/h (1 Bft) SW 236 0 min 0,000 mm 0,0 UV-I 0 W/m 2,2 C 2,9 C 6,4 km/h (2 Bft) 95,83 %
15.02.2016 05:39 2,9 C 95 % 1003,2 hPa 0,0 l/m 4,5 km/h (1 Bft) SW 223 0 min 0,000 mm 0,0 UV-I 0 W/m 2,2 C 2,9 C 4,8 km/h (1 Bft) 91,30 %
15.02.2016 05:40 2,9 C 95 % 1003,3 hPa 0,0 l/m 5,2 km/h (1 Bft) SW 227 0 min 0,000 mm 0,0 UV-I 0 W/m 2,2 C 2,9 C 6,4 km/h (2 Bft) 95,83 %
15.02.2016 05:41 2,9 C 95 % 1003,3 hPa 0,0 l/m 5,1 km/h (1 Bft) W-SW 253 0 min 0,000 mm 0,0 UV-I 0 W/m 2,2 C 2,9 C 6,4 km/h (2 Bft) 91,30 %
15.02.2016 05:42 2,9 C 95 % 1003,3 hPa 0,0 l/m 4,7 km/h (1 Bft) W-SW 254 0 min 0,000 mm 0,0 UV-I 0 W/m 2,2 C 2,9 C 4,8 km/h (1 Bft) 100,00 %
15.02.2016 05:43 2,9 C 95 % 1003,2 hPa 0,0 l/m 4,3 km/h (1 Bft) W 267 0 min 0,000 mm 0,0 UV-I 0 W/m 2,2 C 2,9 C 4,8 km/h (1 Bft) 90,91 %
15.02.2016 05:44 2,9 C 95 % 1003,3 hPa 0,0 l/m 4,1 km/h (1 Bft) W 267 0 min 0,000 mm 0,0 UV-I 0 W/m 2,2 C 2,9 C 4,8 km/h (1 Bft) 100,00 %
15.02.2016 05:45 2,9 C 95 % 1003,2 hPa 0,0 l/m 4,0 km/h (1 Bft) W 267 0 min 0,000 mm 0,0 UV-I 0 W/m 2,2 C 2,9 C 4,8 km/h (1 Bft) 91,30 %
15.02.2016 05:46 2,9 C 95 % 1003,2 hPa 0,0 l/m 5,1 km/h (1 Bft) W 261 0 min 0,000 mm 0,0 UV-I 0 W/m 2,2 C 2,9 C 6,4 km/h (2 Bft) 100,00 %
15.02.2016 05:47 2,8 C 95 % 1003,2 hPa 0,0 l/m 4,5 km/h (1 Bft) W 261 0 min 0,000 mm 0,0 UV-I 0 W/m 2,1 C 2,8 C 6,4 km/h (2 Bft) 95,65 %
15.02.2016 05:48 2,8 C 95 % 1003,2 hPa 0,0 l/m 4,0 km/h (1 Bft) W 261 0 min 0,000 mm 0,0 UV-I 0 W/m 2,1 C 2,8 C 4,8 km/h (1 Bft) 95,83 %
15.02.2016 05:49 2,8 C 95 % 1003,3 hPa 0,0 l/m 3,6 km/h (1 Bft) W 261 0 min 0,000 mm 0,0 UV-I 0 W/m 2,1 C 2,8 C 4,8 km/h (1 Bft) 100,00 %
15.02.2016 05:50 2,8 C 95 % 1003,3 hPa 0,0 l/m 4,0 km/h (1 Bft) W-SW 257 0 min 0,000 mm 0,0 UV-I 0 W/m 2,1 C 2,8 C 4,8 km/h (1 Bft) 95,83 %
15.02.2016 05:51 2,8 C 95 % 1003,3 hPa 0,0 l/m 4,0 km/h (1 Bft) W-SW 257 0 min 0,000 mm 0,0 UV-I 0 W/m 2,1 C 2,8 C 4,8 km/h (1 Bft) 100,00 %
15.02.2016 05:52 2,8 C 95 % 1003,3 hPa 0,0 l/m 4,0 km/h (1 Bft) W-SW 257 0 min 0,000 mm 0,0 UV-I 0 W/m 2,1 C 2,8 C 4,8 km/h (1 Bft) 95,83 %
15.02.2016 05:53 2,8 C 95 % 1003,3 hPa 0,0 l/m 4,6 km/h (1 Bft) W-SW 257 0 min 0,000 mm 0,0 UV-I 0 W/m 2,1 C 2,8 C 6,4 km/h (2 Bft) 95,83 %
15.02.2016 05:54 2,8 C 95 % 1003,3 hPa 0,0 l/m 4,6 km/h (1 Bft) W-SW 257 0 min 0,000 mm 0,0 UV-I 0 W/m 2,1 C 2,8 C 6,4 km/h (2 Bft) 91,30 %
15.02.2016 05:55 2,8 C 96 % 1003,3 hPa 0,0 l/m 4,0 km/h (1 Bft) W-SW 257 0 min 0,000 mm 0,0 UV-I 0 W/m 2,2 C 2,8 C 4,8 km/h (1 Bft) 95,83 %
15.02.2016 05:56 2,8 C 96 % 1003,3 hPa 0,0 l/m 4,0 km/h (1 Bft) W-SW 257 0 min 0,000 mm 0,0 UV-I 0 W/m 2,2 C 2,8 C 4,8 km/h (1 Bft) 100,00 %
15.02.2016 05:57 2,8 C 96 % 1003,3 hPa 0,0 l/m 4,2 km/h (1 Bft) W 269 0 min 0,000 mm 0,0 UV-I 0 W/m 2,2 C 2,8 C 6,4 km/h (2 Bft) 95,83 %
15.02.2016 05:58 2,8 C 96 % 1003,3 hPa 0,0 l/m 5,0 km/h (1 Bft) W 263 0 min 0,000 mm 0,0 UV-I 0 W/m 2,2 C 2,8 C 6,4 km/h (2 Bft) 100,00 %
15.02.2016 05:59 2,8 C 96 % 1003,3 hPa 0,0 l/m 5,3 km/h (1 Bft) W-SW 252 0 min 0,000 mm 0,0 UV-I 0 W/m 2,2 C 2,8 C 9,7 km/h (2 Bft) 95,83 %
15.02.2016 06:00 2,8 C 96 % 1003,3 hPa 0,0 l/m 5,0 km/h (1 Bft) W-SW 252 0 min 0,000 mm 0,0 UV-I 0 W/m 2,2 C 2,8 C 6,4 km/h (2 Bft) 95,65 %
15.02.2016 06:01 2,8 C 96 % 1003,4 hPa 0,0 l/m 4,1 km/h (1 Bft) SW 236 0 min 0,000 mm 0,0 UV-I 0 W/m 2,2 C 2,8 C 6,4 km/h (2 Bft) 95,83 %
15.02.2016 06:02 2,9 C 96 % 1003,4 hPa 0,0 l/m 4,6 km/h (1 Bft) W-SW 246 0 min 0,000 mm 0,0 UV-I 0 W/m 2,3 C 2,9 C 8,0 km/h (2 Bft) 100,00 %
15.02.2016 06:03 2,8 C 96 % 1003,5 hPa 0,0 l/m 5,2 km/h (1 Bft) W-SW 246 0 min 0,000 mm 0,0 UV-I 0 W/m 2,2 C 2,8 C 9,7 km/h (2 Bft) 95,83 %
15.02.2016 06:04 2,8 C 96 % 1003,5 hPa 0,0 l/m 3,9 km/h (1 Bft) W-SW 246 0 min 0,000 mm 0,0 UV-I 0 W/m 2,2 C 2,8 C 4,8 km/h (1 Bft) 96,15 %
15.02.2016 06:05 2,9 C 96 % 1003,4 hPa 0,0 l/m 4,6 km/h (1 Bft) W-SW 257 0 min 0,000 mm 0,0 UV-I 0 W/m 2,3 C 2,9 C 6,4 km/h (2 Bft) 100,00 %
15.02.2016 06:06 2,9 C 96 % 1003,5 hPa 0,0 l/m 4,5 km/h (1 Bft) W-SW 257 0 min 0,000 mm 0,0 UV-I 0 W/m 2,3 C 2,9 C 4,8 km/h (1 Bft) 91,30 %
15.02.2016 06:07 2,9 C 96 % 1003,4 hPa 0,0 l/m 4,0 km/h (1 Bft) W-SW 257 0 min 0,000 mm 0,0 UV-I 0 W/m 2,3 C 2,9 C 4,8 km/h (1 Bft) 95,83 %
15.02.2016 06:08 2,9 C 96 % 1003,5 hPa 0,0 l/m 3,6 km/h (1 Bft) W-SW 257 0 min 0,000 mm 0,0 UV-I 0 W/m 2,3 C 2,9 C 4,8 km/h (1 Bft) 100,00 %
15.02.2016 06:09 2,9 C 95 % 1003,5 hPa 0,0 l/m 3,4 km/h (1 Bft) W-SW 257 0 min 0,000 mm 0,0 UV-I 0 W/m 2,2 C 2,9 C 4,8 km/h (1 Bft) 100,00 %
15.02.2016 06:10 2,9 C 95 % 1003,5 hPa 0,0 l/m 2,9 km/h (1 Bft) W-SW 254 0 min 0,000 mm 0,0 UV-I 0 W/m 2,2 C 2,9 C 3,2 km/h (1 Bft) 100,00 %
15.02.2016 06:11 2,9 C 95 % 1003,5 hPa 0,0 l/m 3,8 km/h (1 Bft) W-SW 252 0 min 0,000 mm 0,0 UV-I 0 W/m 2,2 C 2,9 C 4,8 km/h (1 Bft) 100,00 %
15.02.2016 06:12 2,9 C 95 % 1003,5 hPa 0,0 l/m 3,0 km/h (1 Bft) W-SW 252 0 min 0,000 mm 0,0 UV-I 0 W/m 2,2 C 2,9 C 4,8 km/h (1 Bft) 95,83 %
15.02.2016 06:13 2,9 C 95 % 1003,5 hPa 0,0 l/m 3,7 km/h (1 Bft) W-SW 252 0 min 0,000 mm 0,0 UV-I 0 W/m 2,2 C 2,9 C 4,8 km/h (1 Bft) 100,00 %
15.02.2016 06:14 2,9 C 95 % 1003,5 hPa 0,0 l/m 3,6 km/h (1 Bft) W-SW 252 0 min 0,000 mm 0,0 UV-I 0 W/m 2,2 C 2,9 C 4,8 km/h (1 Bft) 100,00 %
15.02.2016 06:15 2,9 C 95 % 1003,5 hPa 0,0 l/m 3,5 km/h (1 Bft) W-SW 252 0 min 0,000 mm 0,0 UV-I 0 W/m 2,2 C 2,9 C 4,8 km/h (1 Bft) 95,65 %
15.02.2016 06:16 2,9 C 95 % 1003,6 hPa 0,0 l/m 3,6 km/h (1 Bft) SW 234 0 min 0,000 mm 0,0 UV-I 0 W/m 2,2 C 2,9 C 6,4 km/h (2 Bft) 100,00 %
15.02.2016 06:17 2,8 C 95 % 1003,6 hPa 0,0 l/m 3,9 km/h (1 Bft) S-SW 213 0 min 0,000 mm 0,0 UV-I 0 W/m 2,1 C 2,8 C 4,8 km/h (1 Bft) 100,00 %
15.02.2016 06:18 2,8 C 95 % 1003,6 hPa 0,0 l/m 2,7 km/h (1 Bft) S-SW 213 0 min 0,000 mm 0,0 UV-I 0 W/m 2,1 C 2,8 C 4,8 km/h (1 Bft) 95,83 %
15.02.2016 06:19 2,8 C 95 % 1003,6 hPa 0,0 l/m 2,7 km/h (1 Bft) SW 221 0 min 0,000 mm 0,0 UV-I 0 W/m 2,1 C 2,8 C 4,8 km/h (1 Bft) 95,65 %
15.02.2016 06:20 2,8 C 95 % 1003,5 hPa 0,0 l/m 3,6 km/h (1 Bft) W-SW 258 0 min 0,000 mm 0,0 UV-I 0 W/m 2,1 C 2,8 C 4,8 km/h (1 Bft) 100,00 %
15.02.2016 06:21 2,8 C 96 % 1003,5 hPa 0,0 l/m 2,7 km/h (1 Bft) W-SW 258 0 min 0,000 mm 0,0 UV-I 0 W/m 2,2 C 2,8 C 4,8 km/h (1 Bft) 100,00 %
15.02.2016 06:22 2,8 C 96 % 1003,5 hPa 0,0 l/m 3,0 km/h (1 Bft) W-SW 258 0 min 0,000 mm 0,0 UV-I 0 W/m 2,2 C 2,8 C 4,8 km/h (1 Bft) 100,00 %
15.02.2016 06:23 2,8 C 96 % 1003,6 hPa 0,0 l/m 3,5 km/h (1 Bft) W-SW 258 0 min 0,000 mm 0,0 UV-I 0 W/m 2,2 C 2,8 C 4,8 km/h (1 Bft) 86,96 %
15.02.2016 06:24 2,8 C 96 % 1003,5 hPa 0,0 l/m 3,3 km/h (1 Bft) W-SW 258 0 min 0,000 mm 0,0 UV-I 0 W/m 2,2 C 2,8 C 4,8 km/h (1 Bft) 95,83 %
15.02.2016 06:25 2,8 C 96 % 1003,6 hPa 0,0 l/m 3,5 km/h (1 Bft) SW 236 0 min 0,000 mm 0,0 UV-I 0 W/m 2,2 C 2,8 C 4,8 km/h (1 Bft) 95,65 %
15.02.2016 06:26 2,8 C 96 % 1003,6 hPa 0,0 l/m 3,1 km/h (1 Bft) SW 236 0 min 0,000 mm 0,0 UV-I 0 W/m 2,2 C 2,8 C 4,8 km/h (1 Bft) 100,00 %
15.02.2016 06:27 2,8 C 96 % 1003,6 hPa 0,0 l/m 2,3 km/h (1 Bft) SW 236 0 min 0,000 mm 0,0 UV-I 0 W/m 2,2 C 2,8 C 3,2 km/h (1 Bft) 92,31 %
15.02.2016 06:28 2,8 C 96 % 1003,7 hPa 0,0 l/m 3,1 km/h (1 Bft) SW 235 0 min 0,000 mm 0,0 UV-I 0 W/m 2,2 C 2,8 C 4,8 km/h (1 Bft) 100,00 %
15.02.2016 06:29 2,8 C 96 % 1003,7 hPa 0,0 l/m 2,9 km/h (1 Bft) SW 234 0 min 0,000 mm 0,0 UV-I 0 W/m 2,2 C 2,8 C 3,2 km/h (1 Bft) 100,00 %
15.02.2016 06:30 2,8 C 96 % 1003,7 hPa 0,0 l/m 3,7 km/h (1 Bft) S-SW 193 0 min 0,000 mm 0,0 UV-I 0 W/m 2,2 C 2,8 C 4,8 km/h (1 Bft) 100,00 %
15.02.2016 06:31 2,8 C 96 % 1003,7 hPa 0,0 l/m 3,1 km/h (1 Bft) S-SW 193 0 min 0,000 mm 0,0 UV-I 0 W/m 2,2 C 2,8 C 4,8 km/h (1 Bft) 95,83 %
15.02.2016 06:32 2,8 C 96 % 1003,8 hPa 0,0 l/m 1,9 km/h (1 Bft) S-SW 193 0 min 0,000 mm 0,0 UV-I 0 W/m 2,2 C 2,8 C 3,2 km/h (1 Bft) 100,00 %
15.02.2016 06:33 2,8 C 96 % 1003,8 hPa 0,0 l/m 3,1 km/h (1 Bft) S-SW 193 0 min 0,000 mm 0,0 UV-I 0 W/m 2,2 C 2,8 C 4,8 km/h (1 Bft) 100,00 %
15.02.2016 06:34 2,8 C 96 % 1003,8 hPa 0,0 l/m 3,2 km/h (1 Bft) S-SW 193 0 min 0,000 mm 0,0 UV-I 0 W/m 2,2 C 2,8 C 4,8 km/h (1 Bft) 100,00 %
15.02.2016 06:35 2,8 C 96 % 1003,8 hPa 0,0 l/m 3,3 km/h (1 Bft) S-SW 193 0 min 0,000 mm 0,0 UV-I 0 W/m 2,2 C 2,8 C 4,8 km/h (1 Bft) 100,00 %
15.02.2016 06:36 2,8 C 96 % 1003,8 hPa 0,0 l/m 2,6 km/h (1 Bft) S-SW 193 0 min 0,000 mm 0,0 UV-I 0 W/m 2,2 C 2,8 C 3,2 km/h (1 Bft) 100,00 %
15.02.2016 06:37 2,8 C 96 % 1003,9 hPa 0,0 l/m 2,5 km/h (1 Bft) S-SW 193 0 min 0,000 mm 0,0 UV-I 0 W/m 2,2 C 2,8 C 4,8 km/h (1 Bft) 100,00 %
15.02.2016 06:38 2,8 C 96 % 1003,8 hPa 0,0 l/m 2,1 km/h (1 Bft) S-SW 193 0 min 0,000 mm 0,0 UV-I 0 W/m 2,2 C 2,8 C 3,2 km/h (1 Bft) 100,00 %
15.02.2016 06:39 2,8 C 96 % 1003,8 hPa 0,0 l/m 3,4 km/h (1 Bft) S-SW 193 0 min 0,000 mm 0,0 UV-I 0 W/m 2,2 C 2,8 C 4,8 km/h (1 Bft) 100,00 %
15.02.2016 06:40 2,8 C 96 % 1003,9 hPa 0,0 l/m 3,5 km/h (1 Bft) S-SW 193 0 min 0,000 mm 0,0 UV-I 0 W/m 2,2 C 2,8 C 4,8 km/h (1 Bft) 100,00 %
15.02.2016 06:41 2,8 C 96 % 1003,8 hPa 0,0 l/m 3,1 km/h (1 Bft) S-SW 193 0 min 0,000 mm 0,0 UV-I 0 W/m 2,2 C 2,8 C 4,8 km/h (1 Bft) 100,00 %
15.02.2016 06:42 2,8 C 96 % 1003,9 hPa 0,0 l/m 3,3 km/h (1 Bft) S-SW 193 0 min 0,000 mm 0,0 UV-I 0 W/m 2,2 C 2,8 C 4,8 km/h (1 Bft) 100,00 %
15.02.2016 06:43 2,8 C 96 % 1003,9 hPa 0,0 l/m 2,0 km/h (1 Bft) S-SW 193 0 min 0,000 mm 0,0 UV-I 0 W/m 2,2 C 2,8 C 3,2 km/h (1 Bft) 95,83 %
15.02.2016 06:44 2,8 C 96 % 1003,9 hPa 0,0 l/m 2,3 km/h (1 Bft) S-SW 193 0 min 0,000 mm 0,0 UV-I 0 W/m 2,2 C 2,8 C 3,2 km/h (1 Bft) 96,15 %
15.02.2016 06:45 2,8 C 96 % 1003,9 hPa 0,0 l/m 3,4 km/h (1 Bft) S-SW 193 0 min 0,000 mm 0,0 UV-I 0 W/m 2,2 C 2,8 C 4,8 km/h (1 Bft) 100,00 %
15.02.2016 06:46 2,8 C 96 % 1004,0 hPa 0,0 l/m 2,2 km/h (1 Bft) S-SW 193 0 min 0,000 mm 0,0 UV-I 0 W/m 2,2 C 2,8 C 4,8 km/h (1 Bft) 91,30 %
15.02.2016 06:47 2,8 C 96 % 1004,0 hPa 0,0 l/m 3,1 km/h (1 Bft) S-SW 193 0 min 0,000 mm 0,0 UV-I 0 W/m 2,2 C 2,8 C 4,8 km/h (1 Bft) 100,00 %
15.02.2016 06:48 2,8 C 96 % 1004,0 hPa 0,0 l/m 4,0 km/h (1 Bft) SW 223 0 min 0,000 mm 0,0 UV-I 0 W/m 2,2 C 2,8 C 4,8 km/h (1 Bft) 95,65 %
15.02.2016 06:49 2,8 C 96 % 1004,0 hPa 0,0 l/m 4,0 km/h (1 Bft) SW 223 0 min 0,000 mm 0,0 UV-I 0 W/m 2,2 C 2,8 C 6,4 km/h (2 Bft) 100,00 %
15.02.2016 06:50 2,8 C 96 % 1004,0 hPa 0,0 l/m 4,0 km/h (1 Bft) SW 227 0 min 0,000 mm 0,0 UV-I 0 W/m 2,2 C 2,8 C 6,4 km/h (2 Bft) 95,65 %
15.02.2016 06:51 2,8 C 96 % 1004,0 hPa 0,0 l/m 3,2 km/h (1 Bft) SW 227 0 min 0,000 mm 0,0 UV-I 0 W/m 2,2 C 2,8 C 4,8 km/h (1 Bft) 100,00 %
15.02.2016 06:52 2,8 C 96 % 1004,0 hPa 0,0 l/m 3,3 km/h (1 Bft) SW 227 0 min 0,000 mm 0,0 UV-I 0 W/m 2,2 C 2,8 C 4,8 km/h (1 Bft) 100,00 %
15.02.2016 06:53 2,8 C 96 % 1004,1 hPa 0,0 l/m 3,5 km/h (1 Bft) SW 227 0 min 0,000 mm 0,0 UV-I 0 W/m 2,2 C 2,8 C 4,8 km/h (1 Bft) 100,00 %
15.02.2016 06:54 2,8 C 96 % 1004,1 hPa 0,0 l/m 3,0 km/h (1 Bft) SW 227 0 min 0,000 mm 0,0 UV-I 0 W/m 2,2 C 2,8 C 4,8 km/h (1 Bft) 95,65 %
15.02.2016 06:55 2,8 C 96 % 1004,1 hPa 0,0 l/m 3,5 km/h (1 Bft) SW 227 0 min 0,000 mm 0,0 UV-I 0 W/m 2,2 C 2,8 C 4,8 km/h (1 Bft) 100,00 %
15.02.2016 06:56 2,8 C 96 % 1004,1 hPa 0,0 l/m 3,4 km/h (1 Bft) SW 228 0 min 0,000 mm 0,0 UV-I 0 W/m 2,2 C 2,8 C 4,8 km/h (1 Bft) 100,00 %
15.02.2016 06:57 2,8 C 96 % 1004,1 hPa 0,0 l/m 3,1 km/h (1 Bft) SW 228 0 min 0,000 mm 0,0 UV-I 0 W/m 2,2 C 2,8 C 4,8 km/h (1 Bft) 100,00 %
15.02.2016 06:58 2,8 C 96 % 1004,2 hPa 0,0 l/m 2,9 km/h (1 Bft) SW 228 0 min 0,000 mm 0,0 UV-I 0 W/m 2,2 C 2,8 C 4,8 km/h (1 Bft) 100,00 %
15.02.2016 06:59 2,8 C 96 % 1004,2 hPa 0,0 l/m 3,4 km/h (1 Bft) SW 229 0 min 0,000 mm 0,0 UV-I 0 W/m 2,2 C 2,8 C 4,8 km/h (1 Bft) 100,00 %
15.02.2016 07:00 2,8 C 96 % 1004,2 hPa 0,0 l/m 2,7 km/h (1 Bft) SW 228 0 min 0,000 mm 0,0 UV-I 0 W/m 2,2 C 2,8 C 3,2 km/h (1 Bft) 100,00 %
15.02.2016 07:01 2,8 C 96 % 1004,3 hPa 0,0 l/m 2,6 km/h (1 Bft) SW 228 0 min 0,000 mm 0,0 UV-I 0 W/m 2,2 C 2,8 C 6,4 km/h (2 Bft) 100,00 %
15.02.2016 07:02 2,8 C 96 % 1004,3 hPa 0,0 l/m 3,4 km/h (1 Bft) SW 218 0 min 0,000 mm 0,0 UV-I 0 W/m 2,2 C 2,8 C 4,8 km/h (1 Bft) 100,00 %
15.02.2016 07:03 2,8 C 96 % 1004,4 hPa 0,0 l/m 3,4 km/h (1 Bft) SW 229 0 min 0,000 mm 0,0 UV-I 0 W/m 2,2 C 2,8 C 6,4 km/h (2 Bft) 100,00 %
15.02.2016 07:04 2,8 C 96 % 1004,4 hPa 0,0 l/m 5,2 km/h (1 Bft) SW 229 0 min 0,000 mm 0,0 UV-I 0 W/m 2,2 C 2,8 C 6,4 km/h (2 Bft) 100,00 %
15.02.2016 07:05 2,8 C 96 % 1004,5 hPa 0,0 l/m 4,6 km/h (1 Bft) SW 232 0 min 0,000 mm 0,0 UV-I 0 W/m 2,2 C 2,8 C 6,4 km/h (2 Bft) 100,00 %
15.02.2016 07:06 2,8 C 96 % 1004,5 hPa 0,0 l/m 4,5 km/h (1 Bft) SW 231 0 min 0,000 mm 0,0 UV-I 0 W/m 2,2 C 2,8 C 6,4 km/h (2 Bft) 95,83 %
15.02.2016 07:07 2,8 C 96 % 1004,6 hPa 0,0 l/m 5,0 km/h (1 Bft) SW 227 0 min 0,000 mm 0,0 UV-I 0 W/m 2,2 C 2,8 C 6,4 km/h (2 Bft) 95,65 %
15.02.2016 07:08 2,8 C 96 % 1004,6 hPa 0,0 l/m 4,2 km/h (1 Bft) S-SW 213 0 min 0,000 mm 0,0 UV-I 0 W/m 2,2 C 2,8 C 4,8 km/h (1 Bft) 100,00 %
15.02.2016 07:09 2,8 C 96 % 1004,7 hPa 0,0 l/m 3,8 km/h (1 Bft) S-SW 213 0 min 0,000 mm 0,0 UV-I 0 W/m 2,2 C 2,8 C 6,4 km/h (2 Bft) 100,00 %
15.02.2016 07:10 2,8 C 96 % 1004,8 hPa 0,0 l/m 3,6 km/h (1 Bft) S-SW 213 0 min 0,000 mm 0,0 UV-I 0 W/m 2,2 C 2,8 C 4,8 km/h (1 Bft) 100,00 %
15.02.2016 07:11 2,8 C 96 % 1004,8 hPa 0,0 l/m 4,9 km/h (1 Bft) S-SW 209 0 min 0,000 mm 0,0 UV-I 0 W/m 2,2 C 2,8 C 6,4 km/h (2 Bft) 100,00 %
15.02.2016 07:12 2,8 C 96 % 1004,8 hPa 0,0 l/m 5,9 km/h (2 Bft) S-SW 196 0 min 0,000 mm 0,0 UV-I 0 W/m 2,2 C 2,8 C 8,0 km/h (2 Bft) 96,30 %
15.02.2016 07:13 2,8 C 96 % 1004,8 hPa 0,0 l/m 4,9 km/h (1 Bft) SW 220 0 min 0,000 mm 0,0 UV-I 0 W/m 2,2 C 2,8 C 6,4 km/h (2 Bft) 100,00 %
15.02.2016 07:14 2,8 C 96 % 1004,8 hPa 0,0 l/m 5,1 km/h (1 Bft) S-SW 192 0 min 0,000 mm 0,0 UV-I 0 W/m 2,2 C 2,8 C 6,4 km/h (2 Bft) 100,00 %
15.02.2016 07:15 2,8 C 96 % 1004,8 hPa 0,0 l/m 4,6 km/h (1 Bft) S-SW 212 0 min 0,000 mm 0,0 UV-I 0 W/m 2,2 C 2,8 C 6,4 km/h (2 Bft) 91,30 %
15.02.2016 07:16 2,8 C 96 % 1004,8 hPa 0,0 l/m 4,4 km/h (1 Bft) SW 229 0 min 0,000 mm 0,0 UV-I 0 W/m 2,2 C 2,8 C 6,4 km/h (2 Bft) 95,83 %
15.02.2016 07:17 2,9 C 96 % 1004,8 hPa 0,0 l/m 2,6 km/h (1 Bft) SW 221 0 min 0,000 mm 0,0 UV-I 0 W/m 2,3 C 2,9 C 4,8 km/h (1 Bft) 100,00 %
15.02.2016 07:18 2,9 C 96 % 1004,8 hPa 0,0 l/m 4,8 km/h (1 Bft) S-SW 205 0 min 0,000 mm 0,0 UV-I 0 W/m 2,3 C 2,9 C 6,4 km/h (2 Bft) 100,00 %
15.02.2016 07:19 2,9 C 96 % 1004,9 hPa 0,0 l/m 5,4 km/h (1 Bft) S 189 0 min 0,000 mm 0,0 UV-I 0 W/m 2,3 C 2,9 C 8,0 km/h (2 Bft) 100,00 %
15.02.2016 07:20 2,9 C 96 % 1004,8 hPa 0,0 l/m 6,9 km/h (2 Bft) S-SW 200 0 min 0,000 mm 0,0 UV-I 0 W/m 2,3 C 2,4 C 8,0 km/h (2 Bft) 100,00 %
15.02.2016 07:21 2,9 C 96 % 1004,9 hPa 0,0 l/m 4,4 km/h (1 Bft) S 191 0 min 0,000 mm 0,0 UV-I 0 W/m 2,3 C 2,9 C 8,0 km/h (2 Bft) 100,00 %
15.02.2016 07:22 2,9 C 96 % 1004,9 hPa 0,0 l/m 5,2 km/h (1 Bft) S-SW 211 0 min 0,000 mm 0,0 UV-I 0 W/m 2,3 C 2,9 C 6,4 km/h (2 Bft) 100,00 %
15.02.2016 07:23 2,9 C 96 % 1004,9 hPa 0,0 l/m 6,1 km/h (2 Bft) S-SW 192 0 min 0,000 mm 0,0 UV-I 0 W/m 2,3 C 2,9 C 8,0 km/h (2 Bft) 100,00 %
15.02.2016 07:24 2,9 C 96 % 1004,9 hPa 0,0 l/m 7,1 km/h (2 Bft) S-SW 200 0 min 0,000 mm 0,0 UV-I 0 W/m 2,3 C 2,2 C 9,7 km/h (2 Bft) 100,00 %
15.02.2016 07:25 2,9 C 96 % 1004,9 hPa 0,0 l/m 5,2 km/h (1 Bft) S-SW 197 0 min 0,000 mm 0,0 UV-I 0 W/m 2,3 C 2,9 C 8,0 km/h (2 Bft) 100,00 %
15.02.2016 07:26 2,9 C 96 % 1005,0 hPa 0,0 l/m 5,3 km/h (1 Bft) S-SW 204 0 min 0,000 mm 0,0 UV-I 0 W/m 2,3 C 2,9 C 6,4 km/h (2 Bft) 95,65 %
15.02.2016 07:27 2,9 C 96 % 1004,9 hPa 0,0 l/m 5,0 km/h (1 Bft) S-SW 202 0 min 0,000 mm 0,0 UV-I 4 W/m 2,3 C 2,9 C 8,0 km/h (2 Bft) 100,00 %
15.02.2016 07:28 2,9 C 96 % 1005,0 hPa 0,0 l/m 6,0 km/h (2 Bft) S-SW 196 0 min 0,000 mm 0,0 UV-I 5 W/m 2,3 C 2,9 C 8,0 km/h (2 Bft) 100,00 %
15.02.2016 07:29 2,9 C 96 % 1005,0 hPa 0,0 l/m 6,9 km/h (2 Bft) S-SW 198 0 min 0,000 mm 0,0 UV-I 5 W/m 2,3 C 2,4 C 9,7 km/h (2 Bft) 95,83 %
15.02.2016 07:30 2,9 C 96 % 1005,1 hPa 0,0 l/m 5,6 km/h (1 Bft) S-SW 205 0 min 0,000 mm 0,0 UV-I 6 W/m 2,3 C 2,9 C 6,4 km/h (2 Bft) 100,00 %
15.02.2016 07:31 2,9 C 96 % 1005,2 hPa 0,0 l/m 3,8 km/h (1 Bft) S-SW 196 0 min 0,000 mm 0,0 UV-I 7 W/m 2,3 C 2,9 C 4,8 km/h (1 Bft) 100,00 %
15.02.2016 07:32 2,9 C 96 % 1005,2 hPa 0,0 l/m 4,6 km/h (1 Bft) SW 215 0 min 0,000 mm 0,0 UV-I 8 W/m 2,3 C 2,9 C 6,4 km/h (2 Bft) 100,00 %
15.02.2016 07:33 2,9 C 96 % 1005,2 hPa 0,0 l/m 2,8 km/h (1 Bft) SW 215 0 min 0,000 mm 0,0 UV-I 9 W/m 2,3 C 2,9 C 4,8 km/h (1 Bft) 100,00 %
15.02.2016 07:34 2,9 C 96 % 1005,1 hPa 0,0 l/m 2,9 km/h (1 Bft) SW 215 0 min 0,000 mm 0,0 UV-I 11 W/m 2,3 C 2,9 C 4,8 km/h (1 Bft) 95,83 %
15.02.2016 07:35 2,9 C 96 % 1005,2 hPa 0,0 l/m 4,2 km/h (1 Bft) SW 214 0 min 0,000 mm 0,0 UV-I 12 W/m 2,3 C 2,9 C 4,8 km/h (1 Bft) 100,00 %
15.02.2016 07:36 2,9 C 96 % 1005,2 hPa 0,0 l/m 5,1 km/h (1 Bft) S-SW 205 0 min 0,000 mm 0,0 UV-I 12 W/m 2,3 C 2,9 C 6,4 km/h (2 Bft) 95,83 %
15.02.2016 07:37 2,9 C 96 % 1005,3 hPa 0,0 l/m 4,5 km/h (1 Bft) S-SW 202 0 min 0,000 mm 0,0 UV-I 12 W/m 2,3 C 2,9 C 4,8 km/h (1 Bft) 100,00 %
15.02.2016 07:38 2,9 C 96 % 1005,3 hPa 0,0 l/m 5,1 km/h (1 Bft) S-SW 202 0 min 0,000 mm 0,0 UV-I 11 W/m 2,3 C 2,9 C 6,4 km/h (2 Bft) 95,83 %
15.02.2016 07:39 2,9 C 96 % 1005,4 hPa 0,0 l/m 4,4 km/h (1 Bft) S-SW 202 0 min 0,000 mm 0,0 UV-I 11 W/m 2,3 C 2,9 C 6,4 km/h (2 Bft) 91,30 %
15.02.2016 07:40 2,9 C 96 % 1005,4 hPa 0,0 l/m 4,1 km/h (1 Bft) S 184 0 min 0,000 mm 0,0 UV-I 11 W/m 2,3 C 2,9 C 6,4 km/h (2 Bft) 100,00 %
15.02.2016 07:41 2,9 C 96 % 1005,4 hPa 0,0 l/m 5,9 km/h (2 Bft) S 184 0 min 0,000 mm 0,0 UV-I 11 W/m 2,3 C 2,9 C 8,0 km/h (2 Bft) 95,65 %
15.02.2016 07:42 2,9 C 96 % 1005,4 hPa 0,0 l/m 5,4 km/h (1 Bft) S-SW 200 0 min 0,000 mm 0,0 UV-I 11 W/m 2,3 C 2,9 C 6,4 km/h (2 Bft) 100,00 %
15.02.2016 07:43 2,9 C 96 % 1005,5 hPa 0,0 l/m 4,6 km/h (1 Bft) S-SW 198 0 min 0,000 mm 0,0 UV-I 11 W/m 2,3 C 2,9 C 6,4 km/h (2 Bft) 95,65 %
15.02.2016 07:44 2,9 C 96 % 1005,5 hPa 0,0 l/m 4,4 km/h (1 Bft) S-SW 198 0 min 0,000 mm 0,0 UV-I 11 W/m 2,3 C 2,9 C 6,4 km/h (2 Bft) 95,83 %
15.02.2016 07:45 2,9 C 96 % 1005,5 hPa 0,0 l/m 4,6 km/h (1 Bft) S-SW 209 0 min 0,000 mm 0,0 UV-I 12 W/m 2,3 C 2,9 C 6,4 km/h (2 Bft) 95,65 %
15.02.2016 07:46 2,9 C 96 % 1005,5 hPa 0,0 l/m 3,0 km/h (1 Bft) S-SW 209 0 min 0,000 mm 0,0 UV-I 12 W/m 2,3 C 2,9 C 4,8 km/h (1 Bft) 100,00 %
15.02.2016 07:47 2,9 C 96 % 1005,4 hPa 0,0 l/m 3,7 km/h (1 Bft) SW 234 0 min 0,000 mm 0,0 UV-I 12 W/m 2,3 C 2,9 C 4,8 km/h (1 Bft) 91,30 %
15.02.2016 07:48 2,9 C 96 % 1005,4 hPa 0,0 l/m 3,0 km/h (1 Bft) SW 234 0 min 0,000 mm 0,0 UV-I 14 W/m 2,3 C 2,9 C 4,8 km/h (1 Bft) 91,67 %
15.02.2016 07:49 2,9 C 96 % 1005,3 hPa 0,0 l/m 3,2 km/h (1 Bft) SW 234 0 min 0,000 mm 0,0 UV-I 14 W/m 2,3 C 2,9 C 3,2 km/h (1 Bft) 98,08 %
15.02.2016 07:52 2,9 C 96 % 1005,4 hPa 0,0 l/m 5,5 km/h (1 Bft) SW 219 0 min 0,000 mm 0,0 UV-I 19 W/m 2,3 C 2,9 C 6,4 km/h (2 Bft) 97,83 %
15.02.2016 07:53 2,9 C 96 % 1005,4 hPa 0,0 l/m 4,9 km/h (1 Bft) SW 230 0 min 0,000 mm 0,0 UV-I 21 W/m 2,3 C 2,9 C 6,4 km/h (2 Bft) 93,33 %
15.02.2016 07:54 2,9 C 96 % 1005,4 hPa 0,0 l/m 5,2 km/h (1 Bft) SW 218 0 min 0,000 mm 0,0 UV-I 23 W/m 2,3 C 2,9 C 6,4 km/h (2 Bft) 96,15 %
15.02.2016 07:55 2,9 C 96 % 1005,5 hPa 0,0 l/m 4,2 km/h (1 Bft) SW 218 0 min 0,000 mm 0,0 UV-I 24 W/m 2,3 C 2,9 C 6,4 km/h (2 Bft) 100,00 %
15.02.2016 07:56 2,9 C 96 % 1005,5 hPa 0,0 l/m 4,9 km/h (1 Bft) SW 219 0 min 0,000 mm 0,0 UV-I 26 W/m 2,3 C 2,9 C 6,4 km/h (2 Bft) 95,65 %
15.02.2016 07:57 2,9 C 96 % 1005,4 hPa 0,0 l/m 4,0 km/h (1 Bft) SW 227 0 min 0,000 mm 0,0 UV-I 26 W/m 2,3 C 2,9 C 4,8 km/h (1 Bft) 92,59 %
15.02.2016 07:58 2,9 C 96 % 1005,4 hPa 0,0 l/m 3,5 km/h (1 Bft) SW 223 0 min 0,000 mm 0,0 UV-I 26 W/m 2,3 C 2,9 C 4,8 km/h (1 Bft) 95,65 %
15.02.2016 07:59 2,9 C 96 % 1005,5 hPa 0,0 l/m 3,7 km/h (1 Bft) SW 223 0 min 0,000 mm 0,0 UV-I 26 W/m 2,3 C 2,9 C 4,8 km/h (1 Bft) 91,67 %
15.02.2016 08:00 2,9 C 96 % 1005,5 hPa 0,0 l/m 4,1 km/h (1 Bft) SW 224 0 min 0,000 mm 0,0 UV-I 25 W/m 2,3 C 2,9 C 6,4 km/h (2 Bft) 100,00 %
15.02.2016 08:01 2,9 C 96 % 1005,5 hPa 0,0 l/m 4,0 km/h (1 Bft) SW 215 0 min 0,000 mm 0,0 UV-I 24 W/m 2,3 C 2,9 C 4,8 km/h (1 Bft) 95,83 %
15.02.2016 08:02 2,9 C 96 % 1005,5 hPa 0,0 l/m 3,4 km/h (1 Bft) S-SW 196 0 min 0,000 mm 0,0 UV-I 23 W/m 2,3 C 2,9 C 4,8 km/h (1 Bft) 100,00 %
15.02.2016 08:03 3,0 C 96 % 1005,5 hPa 0,0 l/m 4,3 km/h (1 Bft) S 188 0 min 0,000 mm 0,0 UV-I 21 W/m 2,4 C 3,0 C 6,4 km/h (2 Bft) 96,43 %
15.02.2016 08:04 3,0 C 96 % 1005,5 hPa 0,0 l/m 1,5 km/h (1 Bft) S 188 0 min 0,000 mm 0,0 UV-I 23 W/m 2,4 C 3,0 C 3,2 km/h (1 Bft) 100,00 %
15.02.2016 08:05 3,0 C 96 % 1005,5 hPa 0,0 l/m 2,4 km/h (1 Bft) S 191 0 min 0,000 mm 0,0 UV-I 23 W/m 2,4 C 3,0 C 3,2 km/h (1 Bft) 96,15 %
15.02.2016 08:06 3,0 C 96 % 1005,6 hPa 0,0 l/m 2,6 km/h (1 Bft) S 191 0 min 0,000 mm 0,0 UV-I 24 W/m 2,4 C 3,0 C 3,2 km/h (1 Bft) 96,15 %
15.02.2016 08:07 3,0 C 96 % 1005,5 hPa 0,0 l/m 2,2 km/h (1 Bft) S 191 0 min 0,000 mm 0,0 UV-I 25 W/m 2,4 C 3,0 C 3,2 km/h (1 Bft) 100,00 %
15.02.2016 08:08 3,0 C 96 % 1005,5 hPa 0,0 l/m 2,0 km/h (1 Bft) S 191 0 min 0,000 mm 0,0 UV-I 26 W/m 2,4 C 3,0 C 3,2 km/h (1 Bft) 91,30 %
15.02.2016 08:09 3,0 C 96 % 1005,6 hPa 0,0 l/m 1,9 km/h (1 Bft) S 191 0 min 0,000 mm 0,0 UV-I 28 W/m 2,4 C 3,0 C 3,2 km/h (1 Bft) 100,00 %
15.02.2016 08:10 3,0 C 96 % 1005,6 hPa 0,0 l/m 1,8 km/h (1 Bft) S 191 0 min 0,000 mm 0,0 UV-I 30 W/m 2,4 C 3,0 C 4,8 km/h (1 Bft) 93,33 %
15.02.2016 08:11 3,0 C 96 % 1005,6 hPa 0,0 l/m 2,9 km/h (1 Bft) S 191 0 min 0,000 mm 0,0 UV-I 33 W/m 2,4 C 3,0 C 3,2 km/h (1 Bft) 100,00 %
15.02.2016 08:12 3,1 C 96 % 1005,6 hPa 0,0 l/m 2,7 km/h (1 Bft) S 191 0 min 0,000 mm 0,0 UV-I 36 W/m 2,5 C 3,1 C 3,2 km/h (1 Bft) 96,55 %
15.02.2016 08:13 3,1 C 96 % 1005,7 hPa 0,0 l/m 2,7 km/h (1 Bft) S 191 0 min 0,000 mm 0,0 UV-I 37 W/m 2,5 C 3,1 C 3,2 km/h (1 Bft) 100,00 %
15.02.2016 08:14 3,1 C 96 % 1005,8 hPa 0,0 l/m 2,6 km/h (1 Bft) S 191 0 min 0,000 mm 0,0 UV-I 36 W/m 2,5 C 3,1 C 4,8 km/h (1 Bft) 100,00 %
15.02.2016 08:15 3,1 C 96 % 1005,7 hPa 0,0 l/m 2,1 km/h (1 Bft) S 191 0 min 0,000 mm 0,0 UV-I 35 W/m 2,5 C 3,1 C 4,8 km/h (1 Bft) 100,00 %
15.02.2016 08:16 3,1 C 96 % 1005,7 hPa 0,0 l/m 1,8 km/h (1 Bft) S 191 0 min 0,000 mm 0,0 UV-I 33 W/m 2,5 C 3,1 C 3,2 km/h (1 Bft) 100,00 %
15.02.2016 08:17 3,1 C 96 % 1005,7 hPa 0,0 l/m 2,3 km/h (1 Bft) S 191 0 min 0,000 mm 0,0 UV-I 32 W/m 2,5 C 3,1 C 3,2 km/h (1 Bft) 100,00 %
15.02.2016 08:18 3,1 C 96 % 1005,7 hPa 0,0 l/m 3,5 km/h (1 Bft) S-SW 211 0 min 0,000 mm 0,0 UV-I 31 W/m 2,5 C 3,1 C 6,4 km/h (2 Bft) 100,00 %
15.02.2016 08:19 3,1 C 96 % 1005,7 hPa 0,0 l/m 3,3 km/h (1 Bft) S-SW 211 0 min 0,000 mm 0,0 UV-I 30 W/m 2,5 C 3,1 C 4,8 km/h (1 Bft) 100,00 %
15.02.2016 08:20 3,1 C 96 % 1005,7 hPa 0,0 l/m 3,2 km/h (1 Bft) S-SW 212 0 min 0,000 mm 0,0 UV-I 30 W/m 2,5 C 3,1 C 4,8 km/h (1 Bft) 100,00 %
15.02.2016 08:21 3,1 C 96 % 1005,8 hPa 0,0 l/m 3,8 km/h (1 Bft) SW 217 0 min 0,000 mm 0,0 UV-I 32 W/m 2,5 C 3,1 C 6,4 km/h (2 Bft) 95,65 %
15.02.2016 08:22 3,1 C 96 % 1005,8 hPa 0,0 l/m 3,8 km/h (1 Bft) S-SW 206 0 min 0,000 mm 0,0 UV-I 32 W/m 2,5 C 3,1 C 6,4 km/h (2 Bft) 100,00 %
15.02.2016 08:23 3,2 C 96 % 1005,8 hPa 0,0 l/m 3,9 km/h (1 Bft) S-SW 212 0 min 0,000 mm 0,0 UV-I 32 W/m 2,6 C 3,2 C 6,4 km/h (2 Bft) 100,00 %
15.02.2016 08:24 3,2 C 96 % 1005,8 hPa 0,0 l/m 2,2 km/h (1 Bft) S-SW 212 0 min 0,000 mm 0,0 UV-I 32 W/m 2,6 C 3,2 C 4,8 km/h (1 Bft) 100,00 %
15.02.2016 08:25 3,2 C 96 % 1005,7 hPa 0,0 l/m 4,5 km/h (1 Bft) SW 214 0 min 0,000 mm 0,0 UV-I 32 W/m 2,6 C 3,2 C 6,4 km/h (2 Bft) 95,65 %
15.02.2016 08:26 3,2 C 96 % 1005,8 hPa 0,0 l/m 4,3 km/h (1 Bft) SW 236 0 min 0,000 mm 0,0 UV-I 33 W/m 2,6 C 3,2 C 6,4 km/h (2 Bft) 100,00 %
15.02.2016 08:27 3,2 C 96 % 1005,8 hPa 0,0 l/m 4,3 km/h (1 Bft) SW 217 0 min 0,000 mm 0,0 UV-I 33 W/m 2,6 C 3,2 C 4,8 km/h (1 Bft) 96,15 %
15.02.2016 08:28 3,2 C 96 % 1005,8 hPa 0,0 l/m 3,7 km/h (1 Bft) SW 229 0 min 0,000 mm 0,0 UV-I 34 W/m 2,6 C 3,2 C 4,8 km/h (1 Bft) 96,30 %
15.02.2016 08:29 3,3 C 96 % 1005,8 hPa 0,0 l/m 4,3 km/h (1 Bft) SW 229 0 min 0,000 mm 0,0 UV-I 36 W/m 2,7 C 3,3 C 6,4 km/h (2 Bft) 100,00 %
15.02.2016 08:30 3,3 C 96 % 1005,8 hPa 0,0 l/m 4,1 km/h (1 Bft) SW 214 0 min 0,000 mm 0,0 UV-I 38 W/m 2,7 C 3,3 C 4,8 km/h (1 Bft) 100,00 %
15.02.2016 08:31 3,3 C 96 % 1005,8 hPa 0,0 l/m 5,4 km/h (1 Bft) S-SW 213 0 min 0,000 mm 0,0 UV-I 40 W/m 2,7 C 3,3 C 6,4 km/h (2 Bft) 100,00 %
15.02.2016 08:32 3,3 C 96 % 1005,8 hPa 0,0 l/m 4,6 km/h (1 Bft) W-SW 254 0 min 0,000 mm 0,0 UV-I 42 W/m 2,7 C 3,3 C 4,8 km/h (1 Bft) 100,00 %
15.02.2016 08:33 3,3 C 96 % 1005,8 hPa 0,0 l/m 4,2 km/h (1 Bft) W-SW 239 0 min 0,000 mm 0,0 UV-I 44 W/m 2,7 C 3,3 C 6,4 km/h (2 Bft) 100,00 %
15.02.2016 08:34 3,3 C 96 % 1005,8 hPa 0,0 l/m 2,7 km/h (1 Bft) W-SW 239 0 min 0,000 mm 0,0 UV-I 46 W/m 2,7 C 3,3 C 4,8 km/h (1 Bft) 100,00 %
15.02.2016 08:35 3,3 C 96 % 1005,8 hPa 0,0 l/m 2,9 km/h (1 Bft) W-SW 239 0 min 0,000 mm 0,0 UV-I 47 W/m 2,7 C 3,3 C 4,8 km/h (1 Bft) 100,00 %
15.02.2016 08:36 3,4 C 96 % 1005,8 hPa 0,0 l/m 4,2 km/h (1 Bft) W-SW 239 0 min 0,000 mm 0,0 UV-I 46 W/m 2,8 C 3,4 C 6,4 km/h (2 Bft) 100,00 %
15.02.2016 08:37 3,4 C 96 % 1005,8 hPa 0,0 l/m 4,1 km/h (1 Bft) SW 221 0 min 0,000 mm 0,0 UV-I 45 W/m 2,8 C 3,4 C 6,4 km/h (2 Bft) 100,00 %
15.02.2016 08:38 3,4 C 95 % 1005,8 hPa 0,0 l/m 4,3 km/h (1 Bft) SW 219 0 min 0,000 mm 0,0 UV-I 44 W/m 2,7 C 3,4 C 6,4 km/h (2 Bft) 100,00 %
15.02.2016 08:39 3,4 C 96 % 1005,8 hPa 0,0 l/m 2,7 km/h (1 Bft) SW 219 0 min 0,000 mm 0,0 UV-I 42 W/m 2,8 C 3,4 C 3,2 km/h (1 Bft) 96,30 %
15.02.2016 08:40 3,4 C 96 % 1005,8 hPa 0,0 l/m 4,1 km/h (1 Bft) W-SW 248 0 min 0,000 mm 0,0 UV-I 43 W/m 2,8 C 3,4 C 6,4 km/h (2 Bft) 92,86 %
15.02.2016 08:41 3,4 C 96 % 1005,8 hPa 0,0 l/m 4,7 km/h (1 Bft) W-SW 250 0 min 0,000 mm 0,0 UV-I 44 W/m 2,8 C 3,4 C 6,4 km/h (2 Bft) 100,00 %
15.02.2016 08:42 3,4 C 95 % 1005,8 hPa 0,0 l/m 5,0 km/h (1 Bft) W 260 0 min 0,000 mm 0,0 UV-I 45 W/m 2,7 C 3,4 C 6,4 km/h (2 Bft) 100,00 %
15.02.2016 08:43 3,5 C 95 % 1005,9 hPa 0,0 l/m 5,1 km/h (1 Bft) W-SW 252 0 min 0,000 mm 0,0 UV-I 46 W/m 2,8 C 3,5 C 6,4 km/h (2 Bft) 91,67 %
15.02.2016 08:44 3,5 C 95 % 1005,9 hPa 0,0 l/m 5,2 km/h (1 Bft) W-SW 254 0 min 0,000 mm 0,0 UV-I 46 W/m 2,8 C 3,5 C 6,4 km/h (2 Bft) 100,00 %
15.02.2016 08:45 3,5 C 95 % 1005,9 hPa 0,0 l/m 3,4 km/h (1 Bft) W-SW 252 0 min 0,000 mm 0,0 UV-I 46 W/m 2,8 C 3,5 C 6,4 km/h (2 Bft) 100,00 %
15.02.2016 08:46 3,5 C 95 % 1005,9 hPa 0,0 l/m 3,7 km/h (1 Bft) W-SW 252 0 min 0,000 mm 0,0 UV-I 48 W/m 2,8 C 3,5 C 6,4 km/h (2 Bft) 100,00 %
15.02.2016 08:47 3,5 C 95 % 1006,0 hPa 0,0 l/m 3,0 km/h (1 Bft) W-SW 252 0 min 0,000 mm 0,0 UV-I 50 W/m 2,8 C 3,5 C 4,8 km/h (1 Bft) 100,00 %
15.02.2016 08:48 3,6 C 95 % 1006,0 hPa 0,0 l/m 3,8 km/h (1 Bft) W-SW 252 0 min 0,000 mm 0,0 UV-I 50 W/m 2,9 C 3,6 C 4,8 km/h (1 Bft) 100,00 %
15.02.2016 08:49 3,6 C 95 % 1006,1 hPa 0,0 l/m 4,0 km/h (1 Bft) W-SW 254 0 min 0,000 mm 0,0 UV-I 49 W/m 2,9 C 3,6 C 4,8 km/h (1 Bft) 100,00 %
15.02.2016 08:50 3,6 C 95 % 1006,1 hPa 0,0 l/m 3,2 km/h (1 Bft) W-SW 254 0 min 0,000 mm 0,0 UV-I 47 W/m 2,9 C 3,6 C 4,8 km/h (1 Bft) 100,00 %
15.02.2016 08:51 3,6 C 95 % 1006,2 hPa 0,0 l/m 2,8 km/h (1 Bft) W-SW 253 0 min 0,000 mm 0,0 UV-I 49 W/m 2,9 C 3,6 C 4,8 km/h (1 Bft) 100,00 %
15.02.2016 08:52 3,6 C 95 % 1006,2 hPa 0,0 l/m 4,0 km/h (1 Bft) W-SW 251 0 min 0,000 mm 0,0 UV-I 50 W/m 2,9 C 3,6 C 4,8 km/h (1 Bft) 100,00 %
15.02.2016 08:53 3,6 C 95 % 1006,2 hPa 0,0 l/m 5,0 km/h (1 Bft) SW 235 0 min 0,000 mm 0,0 UV-I 51 W/m 2,9 C 3,6 C 6,4 km/h (2 Bft) 100,00 %
15.02.2016 08:54 3,7 C 95 % 1006,3 hPa 0,0 l/m 2,9 km/h (1 Bft) SW 235 0 min 0,000 mm 0,0 UV-I 51 W/m 3,0 C 3,7 C 4,8 km/h (1 Bft) 100,00 %
15.02.2016 08:55 3,7 C 95 % 1006,3 hPa 0,0 l/m 2,7 km/h (1 Bft) SW 236 0 min 0,000 mm 0,0 UV-I 51 W/m 3,0 C 3,7 C 4,8 km/h (1 Bft) 100,00 %
15.02.2016 08:56 3,7 C 95 % 1006,2 hPa 0,0 l/m 3,8 km/h (1 Bft) SW 236 0 min 0,000 mm 0,0 UV-I 51 W/m 3,0 C 3,7 C 4,8 km/h (1 Bft) 100,00 %
15.02.2016 08:57 3,7 C 95 % 1006,3 hPa 0,0 l/m 3,7 km/h (1 Bft) W-SW 258 0 min 0,000 mm 0,0 UV-I 52 W/m 3,0 C 3,7 C 4,8 km/h (1 Bft) 100,00 %
15.02.2016 08:58 3,7 C 95 % 1006,2 hPa 0,0 l/m 3,6 km/h (1 Bft) W-SW 247 0 min 0,000 mm 0,0 UV-I 53 W/m 3,0 C 3,7 C 6,4 km/h (2 Bft) 95,83 %
15.02.2016 08:59 3,7 C 95 % 1006,2 hPa 0,0 l/m 2,8 km/h (1 Bft) W-SW 247 0 min 0,000 mm 0,0 UV-I 54 W/m 3,0 C 3,7 C 3,2 km/h (1 Bft) 100,00 %
15.02.2016 09:00 3,7 C 95 % 1006,2 hPa 0,0 l/m 3,2 km/h (1 Bft) W-SW 247 0 min 0,025 mm 0,0 UV-I 54 W/m 3,0 C 3,7 C 4,8 km/h (1 Bft) 95,83 %
15.02.2016 09:01 3,7 C 95 % 1006,3 hPa 0,0 l/m 4,4 km/h (1 Bft) W-SW 256 0 min 0,000 mm 0,0 UV-I 54 W/m 3,0 C 3,7 C 6,4 km/h (2 Bft) 96,15 %
15.02.2016 09:02 3,8 C 95 % 1006,2 hPa 0,0 l/m 4,8 km/h (1 Bft) W-SW 258 0 min 0,000 mm 0,0 UV-I 54 W/m 3,1 C 3,8 C 6,4 km/h (2 Bft) 100,00 %
15.02.2016 09:03 3,8 C 95 % 1006,2 hPa 0,0 l/m 3,4 km/h (1 Bft) W 259 0 min 0,000 mm 0,0 UV-I 55 W/m 3,1 C 3,8 C 4,8 km/h (1 Bft) 100,00 %
15.02.2016 09:04 3,8 C 94 % 1006,2 hPa 0,0 l/m 4,2 km/h (1 Bft) W 259 0 min 0,000 mm 0,0 UV-I 57 W/m 2,9 C 3,8 C 6,4 km/h (2 Bft) 100,00 %
15.02.2016 09:05 3,8 C 94 % 1006,3 hPa 0,0 l/m 3,9 km/h (1 Bft) W 259 0 min 0,000 mm 0,0 UV-I 60 W/m 2,9 C 3,8 C 4,8 km/h (1 Bft) 100,00 %
15.02.2016 09:06 3,8 C 94 % 1006,3 hPa 0,0 l/m 3,9 km/h (1 Bft) W 259 0 min 0,000 mm 0,0 UV-I 63 W/m 2,9 C 3,8 C 4,8 km/h (1 Bft) 100,00 %
15.02.2016 09:07 3,8 C 94 % 1006,3 hPa 0,0 l/m 4,3 km/h (1 Bft) W-SW 257 0 min 0,000 mm 0,0 UV-I 63 W/m 2,9 C 3,8 C 6,4 km/h (2 Bft) 100,00 %
15.02.2016 09:08 3,8 C 94 % 1006,4 hPa 0,0 l/m 3,2 km/h (1 Bft) W-SW 257 0 min 0,000 mm 0,0 UV-I 60 W/m 2,9 C 3,8 C 4,8 km/h (1 Bft) 100,00 %
15.02.2016 09:09 3,8 C 95 % 1006,4 hPa 0,0 l/m 3,8 km/h (1 Bft) W-SW 257 0 min 0,000 mm 0,0 UV-I 58 W/m 3,1 C 3,8 C 4,8 km/h (1 Bft) 100,00 %
15.02.2016 09:10 3,9 C 95 % 1006,4 hPa 0,0 l/m 3,6 km/h (1 Bft) W 263 0 min 0,000 mm 0,0 UV-I 55 W/m 3,2 C 3,9 C 4,8 km/h (1 Bft) 100,00 %
15.02.2016 09:11 3,9 C 95 % 1006,4 hPa 0,0 l/m 3,8 km/h (1 Bft) W 263 0 min 0,000 mm 0,0 UV-I 54 W/m 3,2 C 3,9 C 4,8 km/h (1 Bft) 100,00 %
15.02.2016 09:12 3,9 C 94 % 1006,4 hPa 0,0 l/m 2,6 km/h (1 Bft) W 263 0 min 0,000 mm 0,0 UV-I 54 W/m 3,0 C 3,9 C 3,2 km/h (1 Bft) 100,00 %
15.02.2016 09:13 3,9 C 94 % 1006,4 hPa 0,0 l/m 2,1 km/h (1 Bft) W 263 0 min 0,000 mm 0,0 UV-I 54 W/m 3,0 C 3,9 C 3,2 km/h (1 Bft) 100,00 %
15.02.2016 09:14 3,9 C 94 % 1006,4 hPa 0,0 l/m 2,3 km/h (1 Bft) W 263 0 min 0,000 mm 0,0 UV-I 54 W/m 3,0 C 3,9 C 4,8 km/h (1 Bft) 86,96 %
15.02.2016 09:15 3,9 C 94 % 1006,4 hPa 0,0 l/m 3,0 km/h (1 Bft) W 263 0 min 0,000 mm 0,0 UV-I 53 W/m 3,0 C 3,9 C 4,8 km/h (1 Bft) 100,00 %
15.02.2016 09:16 3,9 C 94 % 1006,4 hPa 0,0 l/m 1,7 km/h (1 Bft) W 263 0 min 0,000 mm 0,0 UV-I 52 W/m 3,0 C 3,9 C 3,2 km/h (1 Bft) 100,00 %
15.02.2016 09:17 4,0 C 94 % 1006,4 hPa 0,0 l/m 1,2 km/h (1 Bft) W 263 0 min 0,000 mm 0,0 UV-I 51 W/m 3,1 C 4,0 C 3,2 km/h (1 Bft) 100,00 %
15.02.2016 09:18 4,0 C 94 % 1006,4 hPa 0,0 l/m 3,0 km/h (1 Bft) W 263 0 min 0,000 mm 0,0 UV-I 51 W/m 3,1 C 4,0 C 4,8 km/h (1 Bft) 100,00 %
15.02.2016 09:19 4,0 C 94 % 1006,4 hPa 0,0 l/m 3,4 km/h (1 Bft) W 263 0 min 0,000 mm 0,0 UV-I 51 W/m 3,1 C 4,0 C 4,8 km/h (1 Bft) 100,00 %
15.02.2016 09:20 4,0 C 94 % 1006,5 hPa 0,0 l/m 3,5 km/h (1 Bft) W 263 0 min 0,000 mm 0,0 UV-I 49 W/m 3,1 C 4,0 C 4,8 km/h (1 Bft) 100,00 %
15.02.2016 09:21 4,0 C 94 % 1006,5 hPa 0,0 l/m 2,2 km/h (1 Bft) W 263 0 min 0,000 mm 0,0 UV-I 49 W/m 3,1 C 4,0 C 3,2 km/h (1 Bft) 100,00 %
15.02.2016 09:22 4,0 C 94 % 1006,6 hPa 0,0 l/m 4,2 km/h (1 Bft) W 263 0 min 0,000 mm 0,0 UV-I 50 W/m 3,1 C 4,0 C 4,8 km/h (1 Bft) 100,00 %
15.02.2016 09:23 4,0 C 94 % 1006,6 hPa 0,0 l/m 3,3 km/h (1 Bft) W 263 0 min 0,000 mm 0,0 UV-I 52 W/m 3,1 C 4,0 C 4,8 km/h (1 Bft) 100,00 %
15.02.2016 09:24 4,0 C 93 % 1006,6 hPa 0,0 l/m 2,7 km/h (1 Bft) W 263 0 min 0,000 mm 0,0 UV-I 53 W/m 3,0 C 4,0 C 4,8 km/h (1 Bft) 100,00 %
15.02.2016 09:25 4,0 C 94 % 1006,7 hPa 0,0 l/m 1,9 km/h (1 Bft) W 263 0 min 0,000 mm 0,0 UV-I 54 W/m 3,1 C 4,0 C 3,2 km/h (1 Bft) 100,00 %
15.02.2016 09:26 4,1 C 94 % 1006,7 hPa 0,0 l/m 2,6 km/h (1 Bft) W 263 0 min 0,000 mm 0,0 UV-I 54 W/m 3,2 C 4,1 C 4,8 km/h (1 Bft) 100,00 %
15.02.2016 09:27 4,1 C 94 % 1006,7 hPa 0,0 l/m 2,8 km/h (1 Bft) W 263 0 min 0,000 mm 0,0 UV-I 57 W/m 3,2 C 4,1 C 3,2 km/h (1 Bft) 100,00 %
15.02.2016 09:28 4,1 C 94 % 1006,7 hPa 0,0 l/m 2,5 km/h (1 Bft) W 263 0 min 0,000 mm 0,0 UV-I 59 W/m 3,2 C 4,1 C 4,8 km/h (1 Bft) 100,00 %
15.02.2016 09:29 4,1 C 94 % 1006,8 hPa 0,0 l/m 2,5 km/h (1 Bft) W 263 0 min 0,000 mm 0,0 UV-I 64 W/m 3,2 C 4,1 C 3,2 km/h (1 Bft) 100,00 %
15.02.2016 09:30 4,1 C 94 % 1006,7 hPa 0,0 l/m 2,5 km/h (1 Bft) W 263 0 min 0,000 mm 0,0 UV-I 68 W/m 3,2 C 4,1 C 3,2 km/h (1 Bft) 100,00 %
15.02.2016 09:31 4,1 C 94 % 1006,8 hPa 0,0 l/m 4,6 km/h (1 Bft) W 262 0 min 0,000 mm 0,0 UV-I 69 W/m 3,2 C 4,1 C 6,4 km/h (2 Bft) 100,00 %
15.02.2016 09:32 4,1 C 94 % 1006,8 hPa 0,0 l/m 5,0 km/h (1 Bft) W 262 0 min 0,000 mm 0,0 UV-I 70 W/m 3,2 C 4,1 C 6,4 km/h (2 Bft) 100,00 %
15.02.2016 09:33 4,1 C 94 % 1006,8 hPa 0,0 l/m 5,3 km/h (1 Bft) W 267 0 min 0,000 mm 0,0 UV-I 70 W/m 3,2 C 4,1 C 6,4 km/h (2 Bft) 100,00 %
15.02.2016 09:34 4,1 C 94 % 1006,8 hPa 0,0 l/m 5,4 km/h (1 Bft) W 267 0 min 0,000 mm 0,0 UV-I 69 W/m 3,2 C 4,1 C 6,4 km/h (2 Bft) 100,00 %
15.02.2016 09:35 4,1 C 93 % 1006,8 hPa 0,0 l/m 4,2 km/h (1 Bft) W 266 0 min 0,000 mm 0,0 UV-I 66 W/m 3,1 C 4,1 C 6,4 km/h (2 Bft) 96,15 %
15.02.2016 09:36 4,1 C 93 % 1006,9 hPa 0,0 l/m 4,0 km/h (1 Bft) W 266 0 min 0,000 mm 0,0 UV-I 65 W/m 3,1 C 4,1 C 6,4 km/h (2 Bft) 100,00 %
15.02.2016 09:37 4,1 C 94 % 1006,9 hPa 0,0 l/m 2,8 km/h (1 Bft) W 266 0 min 0,000 mm 0,0 UV-I 69 W/m 3,2 C 4,1 C 4,8 km/h (1 Bft) 100,00 %
15.02.2016 09:38 4,1 C 93 % 1006,9 hPa 0,0 l/m 2,7 km/h (1 Bft) W 266 0 min 0,000 mm 0,0 UV-I 77 W/m 3,1 C 4,1 C 4,8 km/h (1 Bft) 100,00 %
15.02.2016 09:39 4,2 C 94 % 1007,0 hPa 0,0 l/m 2,3 km/h (1 Bft) W 266 0 min 0,000 mm 0,0 UV-I 84 W/m 3,3 C 4,2 C 3,2 km/h (1 Bft) 96,15 %
15.02.2016 09:40 4,2 C 94 % 1007,0 hPa 0,0 l/m 3,9 km/h (1 Bft) W 266 0 min 0,000 mm 0,0 UV-I 90 W/m 3,3 C 4,2 C 4,8 km/h (1 Bft) 100,00 %
15.02.2016 09:41 4,2 C 93 % 1006,9 hPa 0,0 l/m 3,6 km/h (1 Bft) W 266 0 min 0,000 mm 0,0 UV-I 92 W/m 3,2 C 4,2 C 4,8 km/h (1 Bft) 95,65 %
15.02.2016 09:42 4,2 C 93 % 1007,0 hPa 0,0 l/m 3,5 km/h (1 Bft) W 266 0 min 0,000 mm 0,0 UV-I 92 W/m 3,2 C 4,2 C 4,8 km/h (1 Bft) 100,00 %
15.02.2016 09:43 4,2 C 93 % 1007,0 hPa 0,0 l/m 3,4 km/h (1 Bft) W 266 0 min 0,000 mm 0,0 UV-I 90 W/m 3,2 C 4,2 C 4,8 km/h (1 Bft) 92,86 %
15.02.2016 09:44 4,2 C 93 % 1007,0 hPa 0,0 l/m 3,7 km/h (1 Bft) W 266 0 min 0,000 mm 0,0 UV-I 85 W/m 3,2 C 4,2 C 4,8 km/h (1 Bft) 100,00 %
15.02.2016 09:45 4,2 C 93 % 1007,0 hPa 0,0 l/m 3,7 km/h (1 Bft) W 266 0 min 0,000 mm 0,0 UV-I 78 W/m 3,2 C 4,2 C 4,8 km/h (1 Bft) 96,15 %
15.02.2016 09:46 4,2 C 93 % 1007,1 hPa 0,0 l/m 3,3 km/h (1 Bft) W 267 0 min 0,000 mm 0,0 UV-I 72 W/m 3,2 C 4,2 C 4,8 km/h (1 Bft) 100,00 %
15.02.2016 09:47 4,2 C 93 % 1007,0 hPa 0,0 l/m 3,0 km/h (1 Bft) W 267 0 min 0,000 mm 0,0 UV-I 68 W/m 3,2 C 4,2 C 4,8 km/h (1 Bft) 86,96 %
15.02.2016 09:48 4,2 C 93 % 1007,1 hPa 0,0 l/m 3,1 km/h (1 Bft) W 267 0 min 0,000 mm 0,0 UV-I 65 W/m 3,2 C 4,2 C 4,8 km/h (1 Bft) 100,00 %
15.02.2016 09:49 4,3 C 93 % 1007,1 hPa 0,0 l/m 2,7 km/h (1 Bft) W 267 0 min 0,000 mm 0,0 UV-I 63 W/m 3,3 C 4,3 C 6,4 km/h (2 Bft) 96,15 %
15.02.2016 09:50 4,3 C 93 % 1007,2 hPa 0,0 l/m 3,9 km/h (1 Bft) W 267 0 min 0,000 mm 0,0 UV-I 62 W/m 3,3 C 4,3 C 4,8 km/h (1 Bft) 91,67 %
15.02.2016 09:51 4,3 C 93 % 1007,2 hPa 0,0 l/m 2,9 km/h (1 Bft) W 267 0 min 0,000 mm 0,0 UV-I 62 W/m 3,3 C 4,3 C 4,8 km/h (1 Bft) 100,00 %
15.02.2016 09:52 4,3 C 93 % 1007,2 hPa 0,0 l/m 3,0 km/h (1 Bft) W 267 0 min 0,000 mm 0,0 UV-I 63 W/m 3,3 C 4,3 C 4,8 km/h (1 Bft) 96,15 %
15.02.2016 09:53 4,3 C 93 % 1007,2 hPa 0,0 l/m 4,5 km/h (1 Bft) W 267 0 min 0,000 mm 0,0 UV-I 65 W/m 3,3 C 4,3 C 4,8 km/h (1 Bft) 96,30 %
15.02.2016 09:54 4,3 C 93 % 1007,2 hPa 0,0 l/m 3,6 km/h (1 Bft) W 268 0 min 0,000 mm 0,0 UV-I 65 W/m 3,3 C 4,3 C 4,8 km/h (1 Bft) 96,15 %
15.02.2016 09:55 4,3 C 93 % 1007,2 hPa 0,0 l/m 4,1 km/h (1 Bft) W 267 0 min 0,000 mm 0,0 UV-I 70 W/m 3,3 C 4,3 C 4,8 km/h (1 Bft) 100,00 %
15.02.2016 09:56 4,3 C 93 % 1007,3 hPa 0,0 l/m 3,6 km/h (1 Bft) W 269 0 min 0,000 mm 0,0 UV-I 72 W/m 3,3 C 4,3 C 4,8 km/h (1 Bft) 96,15 %
15.02.2016 09:57 4,3 C 93 % 1007,3 hPa 0,0 l/m 3,3 km/h (1 Bft) W 268 0 min 0,000 mm 0,0 UV-I 73 W/m 3,3 C 4,3 C 4,8 km/h (1 Bft) 100,00 %
15.02.2016 09:58 4,3 C 93 % 1007,4 hPa 0,0 l/m 5,2 km/h (1 Bft) W 265 0 min 0,000 mm 0,0 UV-I 74 W/m 3,3 C 4,3 C 6,4 km/h (2 Bft) 94,12 %
15.02.2016 09:59 4,3 C 93 % 1007,4 hPa 0,0 l/m 3,3 km/h (1 Bft) W 265 0 min 0,000 mm 0,0 UV-I 73 W/m 3,3 C 4,3 C 4,8 km/h (1 Bft) 96,67 %
15.02.2016 10:00 4,3 C 93 % 1007,5 hPa 0,0 l/m 2,9 km/h (1 Bft) W 265 0 min 0,000 mm 0,0 UV-I 72 W/m 3,3 C 4,3 C 3,2 km/h (1 Bft) 100,00 %
15.02.2016 10:01 4,3 C 93 % 1007,4 hPa 0,0 l/m 3,4 km/h (1 Bft) W 265 0 min 0,026 mm 0,0 UV-I 72 W/m 3,3 C 4,3 C 4,8 km/h (1 Bft) 95,83 %
15.02.2016 10:02 4,3 C 94 % 1007,5 hPa 0,0 l/m 4,2 km/h (1 Bft) W 265 0 min 0,000 mm 0,0 UV-I 74 W/m 3,4 C 4,3 C 4,8 km/h (1 Bft) 96,15 %
15.02.2016 10:03 4,3 C 94 % 1007,4 hPa 0,0 l/m 3,1 km/h (1 Bft) W 261 0 min 0,000 mm 0,0 UV-I 79 W/m 3,4 C 4,3 C 6,4 km/h (2 Bft) 95,83 %
15.02.2016 10:04 4,3 C 94 % 1007,4 hPa 0,0 l/m 4,3 km/h (1 Bft) W 261 0 min 0,000 mm 0,0 UV-I 88 W/m 3,4 C 4,3 C 6,4 km/h (2 Bft) 96,55 %
15.02.2016 10:05 4,3 C 94 % 1007,4 hPa 0,0 l/m 4,4 km/h (1 Bft) W 261 0 min 0,000 mm 0,0 UV-I 104 W/m 3,4 C 4,3 C 4,8 km/h (1 Bft) 100,00 %
15.02.2016 10:06 4,3 C 94 % 1007,4 hPa 0,0 l/m 3,4 km/h (1 Bft) W 266 0 min 0,000 mm 0,0 UV-I 117 W/m 3,4 C 4,3 C 4,8 km/h (1 Bft) 100,00 %
15.02.2016 10:07 4,3 C 94 % 1007,3 hPa 0,0 l/m 4,4 km/h (1 Bft) W 265 0 min 0,000 mm 0,0 UV-I 120 W/m 3,4 C 4,3 C 6,4 km/h (2 Bft) 95,65 %
15.02.2016 10:08 4,4 C 93 % 1007,4 hPa 0,0 l/m 5,3 km/h (1 Bft) W 269 0 min 0,000 mm 0,0 UV-I 117 W/m 3,4 C 4,4 C 9,7 km/h (2 Bft) 95,65 %
15.02.2016 10:09 4,4 C 93 % 1007,4 hPa 0,0 l/m 5,2 km/h (1 Bft) W 269 0 min 0,000 mm 0,0 UV-I 113 W/m 3,4 C 4,4 C 6,4 km/h (2 Bft) 100,00 %
15.02.2016 10:10 4,4 C 93 % 1007,4 hPa 0,0 l/m 4,7 km/h (1 Bft) W 268 0 min 0,000 mm 0,0 UV-I 107 W/m 3,4 C 4,4 C 6,4 km/h (2 Bft) 95,83 %
15.02.2016 10:11 4,4 C 93 % 1007,5 hPa 0,0 l/m 4,1 km/h (1 Bft) W 273 0 min 0,000 mm 0,0 UV-I 102 W/m 3,4 C 4,4 C 4,8 km/h (1 Bft) 100,00 %
15.02.2016 10:12 4,4 C 93 % 1007,5 hPa 0,0 l/m 4,1 km/h (1 Bft) W 266 0 min 0,000 mm 0,0 UV-I 100 W/m 3,4 C 4,4 C 6,4 km/h (2 Bft) 95,83 %
15.02.2016 10:13 4,4 C 93 % 1007,5 hPa 0,0 l/m 3,9 km/h (1 Bft) W-SW 250 0 min 0,000 mm 0,0 UV-I 94 W/m 3,4 C 4,4 C 4,8 km/h (1 Bft) 100,00 %
15.02.2016 10:14 4,4 C 93 % 1007,5 hPa 0,0 l/m 3,2 km/h (1 Bft) W-SW 250 0 min 0,000 mm 0,0 UV-I 90 W/m 3,4 C 4,4 C 3,2 km/h (1 Bft) 95,83 %
15.02.2016 10:15 4,4 C 93 % 1007,5 hPa 0,0 l/m 3,9 km/h (1 Bft) W-SW 257 0 min 0,000 mm 0,0 UV-I 85 W/m 3,4 C 4,4 C 6,4 km/h (2 Bft) 96,15 %
15.02.2016 10:16 4,5 C 93 % 1007,6 hPa 0,0 l/m 5,3 km/h (1 Bft) W-SW 252 0 min 0,000 mm 0,0 UV-I 82 W/m 3,5 C 4,5 C 6,4 km/h (2 Bft) 95,83 %
15.02.2016 10:17 4,5 C 93 % 1007,7 hPa 0,0 l/m 5,4 km/h (1 Bft) W-SW 252 0 min 0,000 mm 0,0 UV-I 80 W/m 3,5 C 4,5 C 9,7 km/h (2 Bft) 95,65 %
15.02.2016 10:18 4,5 C 92 % 1007,7 hPa 0,0 l/m 4,2 km/h (1 Bft) W-SW 252 0 min 0,000 mm 0,0 UV-I 79 W/m 3,3 C 4,5 C 6,4 km/h (2 Bft) 95,83 %
15.02.2016 10:19 4,5 C 92 % 1007,7 hPa 0,0 l/m 3,6 km/h (1 Bft) W-SW 252 0 min 0,000 mm 0,0 UV-I 81 W/m 3,3 C 4,5 C 4,8 km/h (1 Bft) 100,00 %
15.02.2016 10:20 4,5 C 93 % 1007,7 hPa 0,0 l/m 4,0 km/h (1 Bft) W-SW 249 0 min 0,000 mm 0,0 UV-I 80 W/m 3,5 C 4,5 C 4,8 km/h (1 Bft) 100,00 %
15.02.2016 10:21 4,6 C 93 % 1007,7 hPa 0,0 l/m 2,1 km/h (1 Bft) W-SW 249 0 min 0,000 mm 0,0 UV-I 79 W/m 3,6 C 4,6 C 3,2 km/h (1 Bft) 95,65 %
15.02.2016 10:22 4,6 C 93 % 1007,6 hPa 0,0 l/m 2,4 km/h (1 Bft) W-SW 249 0 min 0,000 mm 0,0 UV-I 78 W/m 3,6 C 4,6 C 3,2 km/h (1 Bft) 100,00 %
15.02.2016 10:23 4,6 C 93 % 1007,6 hPa 0,0 l/m 2,8 km/h (1 Bft) W-SW 250 0 min 0,000 mm 0,0 UV-I 77 W/m 3,6 C 4,6 C 4,8 km/h (1 Bft) 100,00 %
15.02.2016 10:24 4,6 C 93 % 1007,6 hPa 0,0 l/m 2,6 km/h (1 Bft) W-SW 249 0 min 0,000 mm 0,0 UV-I 76 W/m 3,6 C 4,6 C 4,8 km/h (1 Bft) 100,00 %
15.02.2016 10:25 4,6 C 93 % 1007,6 hPa 0,0 l/m 2,3 km/h (1 Bft) W-SW 250 0 min 0,000 mm 0,0 UV-I 76 W/m 3,6 C 4,6 C 3,2 km/h (1 Bft) 96,15 %
15.02.2016 10:26 4,6 C 93 % 1007,7 hPa 0,0 l/m 2,3 km/h (1 Bft) W-SW 249 0 min 0,000 mm 0,0 UV-I 76 W/m 3,6 C 4,6 C 3,2 km/h (1 Bft) 96,30 %
15.02.2016 10:27 4,6 C 93 % 1007,7 hPa 0,0 l/m 2,2 km/h (1 Bft) W-SW 250 0 min 0,000 mm 0,0 UV-I 77 W/m 3,6 C 4,6 C 3,2 km/h (1 Bft) 98,15 %
15.02.2016 10:28 4,6 C 93 % 1007,7 hPa 0,0 l/m 2,7 km/h (1 Bft) W-SW 250 0 min 0,000 mm 0,0 UV-I 78 W/m 3,6 C 4,6 C 3,2 km/h (1 Bft) 100,00 %
15.02.2016 10:29 4,6 C 93 % 1007,7 hPa 0,0 l/m 3,3 km/h (1 Bft) W 265 0 min 0,000 mm 0,0 UV-I 82 W/m 3,6 C 4,6 C 4,8 km/h (1 Bft) 100,00 %
15.02.2016 10:30 4,6 C 93 % 1007,7 hPa 0,0 l/m 4,0 km/h (1 Bft) W 266 0 min 0,000 mm 0,0 UV-I 85 W/m 3,6 C 4,6 C 4,8 km/h (1 Bft) 100,00 %
15.02.2016 10:31 4,6 C 92 % 1007,7 hPa 0,0 l/m 4,2 km/h (1 Bft) W 266 0 min 0,000 mm 0,0 UV-I 90 W/m 3,4 C 4,6 C 4,8 km/h (1 Bft) 95,83 %
15.02.2016 10:32 4,6 C 93 % 1007,7 hPa 0,0 l/m 2,6 km/h (1 Bft) W 266 0 min 0,000 mm 0,0 UV-I 93 W/m 3,6 C 4,6 C 4,8 km/h (1 Bft) 100,00 %
15.02.2016 10:33 4,6 C 93 % 1007,7 hPa 0,0 l/m 2,3 km/h (1 Bft) W 266 0 min 0,000 mm 0,0 UV-I 96 W/m 3,6 C 4,6 C 3,2 km/h (1 Bft) 100,00 %
15.02.2016 10:34 4,6 C 93 % 1007,7 hPa 0,0 l/m 2,7 km/h (1 Bft) W 268 0 min 0,000 mm 0,0 UV-I 98 W/m 3,6 C 4,6 C 4,8 km/h (1 Bft) 100,00 %
15.02.2016 10:35 4,6 C 92 % 1007,7 hPa 0,0 l/m 3,5 km/h (1 Bft) W 268 0 min 0,000 mm 0,0 UV-I 98 W/m 3,4 C 4,6 C 4,8 km/h (1 Bft) 100,00 %
15.02.2016 10:36 4,6 C 92 % 1007,7 hPa 0,0 l/m 2,9 km/h (1 Bft) W 268 0 min 0,000 mm 0,0 UV-I 100 W/m 3,4 C 4,6 C 4,8 km/h (1 Bft) 100,00 %
15.02.2016 10:37 4,7 C 93 % 1007,7 hPa 0,0 l/m 5,4 km/h (1 Bft) W 266 0 min 0,000 mm 0,0 UV-I 103 W/m 3,7 C 4,7 C 6,4 km/h (2 Bft) 100,00 %
15.02.2016 10:38 4,7 C 93 % 1007,7 hPa 0,0 l/m 3,8 km/h (1 Bft) W 264 0 min 0,000 mm 0,0 UV-I 105 W/m 3,7 C 4,7 C 4,8 km/h (1 Bft) 100,00 %
15.02.2016 10:39 4,7 C 93 % 1007,7 hPa 0,0 l/m 2,5 km/h (1 Bft) W 265 0 min 0,000 mm 0,0 UV-I 109 W/m 3,7 C 4,7 C 3,2 km/h (1 Bft) 100,00 %
15.02.2016 10:40 4,7 C 92 % 1007,7 hPa 0,0 l/m 2,5 km/h (1 Bft) W 265 0 min 0,000 mm 0,2 UV-I 114 W/m 3,5 C 4,7 C 3,2 km/h (1 Bft) 100,00 %
15.02.2016 10:41 4,7 C 93 % 1007,7 hPa 0,0 l/m 2,1 km/h (1 Bft) W 265 0 min 0,000 mm 0,5 UV-I 120 W/m 3,7 C 4,7 C 3,2 km/h (1 Bft) 100,00 %
15.02.2016 10:42 4,7 C 93 % 1007,6 hPa 0,0 l/m 3,0 km/h (1 Bft) W 264 0 min 0,000 mm 0,5 UV-I 126 W/m 3,7 C 4,7 C 4,8 km/h (1 Bft) 92,86 %
15.02.2016 10:43 4,7 C 93 % 1007,6 hPa 0,0 l/m 4,2 km/h (1 Bft) W 265 0 min 0,000 mm 0,5 UV-I 131 W/m 3,7 C 4,7 C 4,8 km/h (1 Bft) 100,00 %
15.02.2016 10:44 4,8 C 93 % 1007,6 hPa 0,0 l/m 3,8 km/h (1 Bft) W 265 0 min 0,000 mm 0,5 UV-I 135 W/m 3,8 C 4,8 C 4,8 km/h (1 Bft) 95,65 %
15.02.2016 10:45 4,8 C 92 % 1007,7 hPa 0,0 l/m 4,4 km/h (1 Bft) W 265 0 min 0,000 mm 0,5 UV-I 131 W/m 3,6 C 4,8 C 6,4 km/h (2 Bft) 100,00 %
15.02.2016 10:46 4,7 C 92 % 1007,7 hPa 0,0 l/m 3,8 km/h (1 Bft) W 265 0 min 0,000 mm 0,5 UV-I 123 W/m 3,5 C 4,7 C 4,8 km/h (1 Bft) 100,00 %
15.02.2016 10:47 4,8 C 92 % 1007,7 hPa 0,0 l/m 3,8 km/h (1 Bft) W 262 0 min 0,000 mm 0,5 UV-I 117 W/m 3,6 C 4,8 C 4,8 km/h (1 Bft) 100,00 %
15.02.2016 10:48 4,8 C 92 % 1007,7 hPa 0,0 l/m 2,9 km/h (1 Bft) W 261 0 min 0,000 mm 0,5 UV-I 114 W/m 3,6 C 4,8 C 3,2 km/h (1 Bft) 100,00 %
15.02.2016 10:49 4,8 C 92 % 1007,7 hPa 0,0 l/m 2,9 km/h (1 Bft) W 261 0 min 0,000 mm 0,5 UV-I 112 W/m 3,6 C 4,8 C 4,8 km/h (1 Bft) 100,00 %
15.02.2016 10:50 4,8 C 92 % 1007,7 hPa 0,0 l/m 1,9 km/h (1 Bft) W 261 0 min 0,000 mm 0,3 UV-I 108 W/m 3,6 C 4,8 C 3,2 km/h (1 Bft) 100,00 %
15.02.2016 10:51 4,8 C 92 % 1007,7 hPa 0,0 l/m 1,3 km/h (1 Bft) W 261 0 min 0,000 mm 0,0 UV-I 105 W/m 3,6 C 4,8 C 3,2 km/h (1 Bft) 100,00 %
15.02.2016 10:52 4,8 C 92 % 1007,7 hPa 0,0 l/m 2,0 km/h (1 Bft) W 261 0 min 0,000 mm 0,0 UV-I 102 W/m 3,6 C 4,8 C 3,2 km/h (1 Bft) 100,00 %
15.02.2016 10:53 4,8 C 92 % 1007,7 hPa 0,0 l/m 3,6 km/h (1 Bft) W 260 0 min 0,000 mm 0,0 UV-I 102 W/m 3,6 C 4,8 C 4,8 km/h (1 Bft) 100,00 %
15.02.2016 10:54 4,8 C 92 % 1007,8 hPa 0,0 l/m 2,6 km/h (1 Bft) W 260 0 min 0,000 mm 0,0 UV-I 100 W/m 3,6 C 4,8 C 3,2 km/h (1 Bft) 100,00 %
15.02.2016 10:55 4,8 C 92 % 1007,8 hPa 0,0 l/m 3,7 km/h (1 Bft) W-SW 258 0 min 0,000 mm 0,0 UV-I 100 W/m 3,6 C 4,8 C 4,8 km/h (1 Bft) 91,30 %
15.02.2016 10:56 4,8 C 92 % 1007,8 hPa 0,0 l/m 3,4 km/h (1 Bft) W-SW 258 0 min 0,000 mm 0,0 UV-I 102 W/m 3,6 C 4,8 C 4,8 km/h (1 Bft) 96,30 %
15.02.2016 10:57 4,8 C 93 % 1007,9 hPa 0,0 l/m 4,0 km/h (1 Bft) W-SW 257 0 min 0,000 mm 0,2 UV-I 108 W/m 3,8 C 4,8 C 4,8 km/h (1 Bft) 100,00 %
15.02.2016 10:58 4,8 C 92 % 1007,9 hPa 0,0 l/m 4,0 km/h (1 Bft) W-SW 257 0 min 0,000 mm 0,5 UV-I 118 W/m 3,6 C 4,8 C 4,8 km/h (1 Bft) 100,00 %
15.02.2016 10:59 4,8 C 92 % 1007,9 hPa 0,0 l/m 3,8 km/h (1 Bft) W-SW 257 0 min 0,000 mm 0,5 UV-I 127 W/m 3,6 C 4,8 C 4,8 km/h (1 Bft) 100,00 %
15.02.2016 11:00 4,8 C 92 % 1007,9 hPa 0,0 l/m 4,8 km/h (1 Bft) W-SW 253 0 min 0,000 mm 0,5 UV-I 135 W/m 3,6 C 4,8 C 8,0 km/h (2 Bft) 100,00 %
15.02.2016 11:01 4,9 C 92 % 1008,0 hPa 0,0 l/m 5,9 km/h (2 Bft) W-SW 247 0 min 0,051 mm 0,5 UV-I 142 W/m 3,7 C 4,9 C 8,0 km/h (2 Bft) 100,00 %
15.02.2016 11:02 4,9 C 92 % 1008,0 hPa 0,0 l/m 5,5 km/h (1 Bft) W-SW 246 0 min 0,000 mm 0,5 UV-I 148 W/m 3,7 C 4,9 C 8,0 km/h (2 Bft) 100,00 %
15.02.2016 11:03 4,9 C 92 % 1008,0 hPa 0,0 l/m 4,5 km/h (1 Bft) W 267 0 min 0,000 mm 0,6 UV-I 147 W/m 3,7 C 4,9 C 6,4 km/h (2 Bft) 100,00 %
15.02.2016 11:04 5,0 C 93 % 1008,0 hPa 0,0 l/m 4,0 km/h (1 Bft) W 265 0 min 0,000 mm 0,5 UV-I 143 W/m 4,0 C 5,0 C 6,4 km/h (2 Bft) 95,83 %
15.02.2016 11:05 5,1 C 93 % 1008,1 hPa 0,0 l/m 5,6 km/h (1 Bft) W-SW 240 0 min 0,000 mm 0,5 UV-I 144 W/m 4,1 C 5,1 C 6,4 km/h (2 Bft) 100,00 %
15.02.2016 11:06 5,1 C 93 % 1008,1 hPa 0,0 l/m 4,8 km/h (1 Bft) W-SW 252 0 min 0,000 mm 0,5 UV-I 148 W/m 4,1 C 5,1 C 6,4 km/h (2 Bft) 100,00 %
15.02.2016 11:07 5,1 C 92 % 1008,1 hPa 0,0 l/m 5,3 km/h (1 Bft) W-SW 245 0 min 0,000 mm 0,5 UV-I 152 W/m 3,9 C 5,1 C 6,4 km/h (2 Bft) 100,00 %
15.02.2016 11:08 5,1 C 92 % 1008,0 hPa 0,0 l/m 5,7 km/h (1 Bft) W-SW 253 0 min 0,000 mm 0,6 UV-I 155 W/m 3,9 C 5,1 C 6,4 km/h (2 Bft) 100,00 %
15.02.2016 11:09 5,1 C 92 % 1008,0 hPa 0,0 l/m 5,1 km/h (1 Bft) W-SW 255 0 min 0,000 mm 0,6 UV-I 151 W/m 3,9 C 5,1 C 6,4 km/h (2 Bft) 100,00 %
15.02.2016 11:10 5,1 C 92 % 1008,1 hPa 0,0 l/m 4,0 km/h (1 Bft) W-SW 257 0 min 0,000 mm 0,5 UV-I 144 W/m 3,9 C 5,1 C 6,4 km/h (2 Bft) 100,00 %
15.02.2016 11:11 5,1 C 91 % 1008,0 hPa 0,0 l/m 4,6 km/h (1 Bft) W 270 0 min 0,000 mm 0,5 UV-I 132 W/m 3,8 C 5,1 C 6,4 km/h (2 Bft) 100,00 %
15.02.2016 11:12 5,1 C 92 % 1008,1 hPa 0,0 l/m 3,2 km/h (1 Bft) W 270 0 min 0,000 mm 0,5 UV-I 122 W/m 3,9 C 5,1 C 4,8 km/h (1 Bft) 100,00 %
15.02.2016 11:13 5,1 C 92 % 1008,1 hPa 0,0 l/m 4,1 km/h (1 Bft) W 269 0 min 0,000 mm 0,5 UV-I 113 W/m 3,9 C 5,1 C 4,8 km/h (1 Bft) 96,15 %
15.02.2016 11:14 5,1 C 92 % 1008,2 hPa 0,0 l/m 6,4 km/h (2 Bft) W-SW 257 0 min 0,000 mm 0,3 UV-I 109 W/m 3,9 C 5,1 C 11,3 km/h (2 Bft) 100,00 %
15.02.2016 11:15 5,1 C 91 % 1008,3 hPa 0,0 l/m 7,6 km/h (2 Bft) W 261 0 min 0,000 mm 0,0 UV-I 105 W/m 3,8 C 4,0 C 9,7 km/h (2 Bft) 100,00 %
15.02.2016 11:16 5,1 C 91 % 1008,3 hPa 0,0 l/m 6,0 km/h (2 Bft) W-SW 251 0 min 0,000 mm 0,0 UV-I 102 W/m 3,8 C 5,1 C 8,0 km/h (2 Bft) 100,00 %
15.02.2016 11:17 5,1 C 91 % 1008,3 hPa 0,0 l/m 5,1 km/h (1 Bft) SW 232 0 min 0,000 mm 0,0 UV-I 102 W/m 3,8 C 5,1 C 8,0 km/h (2 Bft) 100,00 %
15.02.2016 11:18 5,1 C 92 % 1008,4 hPa 0,0 l/m 6,6 km/h (2 Bft) W 261 0 min 0,000 mm 0,0 UV-I 102 W/m 3,9 C 4,9 C 9,7 km/h (2 Bft) 100,00 %
15.02.2016 11:19 5,1 C 92 % 1008,3 hPa 0,0 l/m 4,8 km/h (1 Bft) W-SW 250 0 min 0,000 mm 0,0 UV-I 103 W/m 3,9 C 5,1 C 6,4 km/h (2 Bft) 100,00 %
15.02.2016 11:20 5,1 C 92 % 1008,4 hPa 0,0 l/m 5,6 km/h (1 Bft) W-NW 288 0 min 0,000 mm 0,0 UV-I 105 W/m 3,9 C 5,1 C 9,7 km/h (2 Bft) 95,65 %
15.02.2016 11:21 5,1 C 92 % 1008,3 hPa 0,0 l/m 5,2 km/h (1 Bft) W-SW 237 0 min 0,000 mm 0,0 UV-I 106 W/m 3,9 C 5,1 C 9,7 km/h (2 Bft) 100,00 %
15.02.2016 11:22 5,1 C 92 % 1008,3 hPa 0,0 l/m 7,1 km/h (2 Bft) W-SW 257 0 min 0,000 mm 0,0 UV-I 109 W/m 3,9 C 4,5 C 11,3 km/h (2 Bft) 100,00 %
15.02.2016 11:23 5,1 C 92 % 1008,2 hPa 0,0 l/m 7,7 km/h (2 Bft) W-SW 241 0 min 0,000 mm 0,0 UV-I 111 W/m 3,9 C 4,0 C 11,3 km/h (2 Bft) 100,00 %
15.02.2016 11:24 5,1 C 92 % 1008,2 hPa 0,0 l/m 5,9 km/h (2 Bft) W-NW 284 0 min 0,000 mm 0,1 UV-I 112 W/m 3,9 C 5,1 C 12,9 km/h (3 Bft) 100,00 %
15.02.2016 11:25 5,1 C 92 % 1008,2 hPa 0,0 l/m 4,3 km/h (1 Bft) W 279 0 min 0,000 mm 0,5 UV-I 114 W/m 3,9 C 5,1 C 9,7 km/h (2 Bft) 100,00 %
15.02.2016 11:26 5,1 C 91 % 1008,2 hPa 0,0 l/m 6,5 km/h (2 Bft) W 271 0 min 0,000 mm 0,5 UV-I 117 W/m 3,8 C 5,0 C 11,3 km/h (2 Bft) 93,10 %
15.02.2016 11:27 5,1 C 92 % 1008,2 hPa 0,0 l/m 3,4 km/h (1 Bft) W 269 0 min 0,000 mm 0,5 UV-I 120 W/m 3,9 C 5,1 C 4,8 km/h (1 Bft) 100,00 %
15.02.2016 11:28 5,1 C 92 % 1008,2 hPa 0,0 l/m 5,3 km/h (1 Bft) W-NW 293 0 min 0,000 mm 0,5 UV-I 121 W/m 3,9 C 5,1 C 8,0 km/h (2 Bft) 100,00 %
15.02.2016 11:29 5,1 C 92 % 1008,1 hPa 0,0 l/m 4,9 km/h (1 Bft) W-NW 289 0 min 0,000 mm 0,5 UV-I 123 W/m 3,9 C 5,1 C 8,0 km/h (2 Bft) 96,55 %
15.02.2016 11:30 5,1 C 91 % 1008,1 hPa 0,0 l/m 4,7 km/h (1 Bft) W 275 0 min 0,000 mm 0,5 UV-I 125 W/m 3,8 C 5,1 C 9,7 km/h (2 Bft) 100,00 %
15.02.2016 11:31 5,1 C 91 % 1008,1 hPa 0,0 l/m 5,6 km/h (1 Bft) W 273 0 min 0,000 mm 0,5 UV-I 127 W/m 3,8 C 5,1 C 11,3 km/h (2 Bft) 100,00 %
15.02.2016 11:32 5,1 C 91 % 1008,1 hPa 0,0 l/m 4,7 km/h (1 Bft) NW 309 0 min 0,000 mm 0,5 UV-I 128 W/m 3,8 C 5,1 C 6,4 km/h (2 Bft) 100,00 %
15.02.2016 11:33 5,1 C 91 % 1008,1 hPa 0,0 l/m 9,3 km/h (2 Bft) W 280 0 min 0,000 mm 0,5 UV-I 128 W/m 3,8 C 2,7 C 14,5 km/h (3 Bft) 100,00 %
15.02.2016 11:34 5,1 C 91 % 1008,1 hPa 0,0 l/m 7,4 km/h (2 Bft) W-SW 246 0 min 0,000 mm 0,5 UV-I 130 W/m 3,8 C 4,2 C 11,3 km/h (2 Bft) 100,00 %
15.02.2016 11:35 5,1 C 91 % 1008,1 hPa 0,0 l/m 3,8 km/h (1 Bft) W 277 0 min 0,000 mm 0,5 UV-I 132 W/m 3,8 C 5,1 C 6,4 km/h (2 Bft) 100,00 %
15.02.2016 11:36 5,1 C 91 % 1008,1 hPa 0,0 l/m 5,3 km/h (1 Bft) W-NW 283 0 min 0,000 mm 0,5 UV-I 134 W/m 3,8 C 5,1 C 9,7 km/h (2 Bft) 96,30 %
15.02.2016 11:37 5,1 C 91 % 1008,1 hPa 0,0 l/m 8,4 km/h (2 Bft) W 263 0 min 0,000 mm 0,5 UV-I 134 W/m 3,8 C 3,4 C 11,3 km/h (2 Bft) 100,00 %
15.02.2016 11:38 5,1 C 91 % 1008,1 hPa 0,0 l/m 4,5 km/h (1 Bft) SW 236 0 min 0,000 mm 0,5 UV-I 134 W/m 3,8 C 5,1 C 6,4 km/h (2 Bft) 95,24 %
15.02.2016 11:39 5,1 C 91 % 1008,1 hPa 0,0 l/m 3,0 km/h (1 Bft) W-SW 252 0 min 0,000 mm 0,5 UV-I 130 W/m 3,8 C 5,1 C 6,4 km/h (2 Bft) 100,00 %
15.02.2016 11:40 5,1 C 91 % 1008,1 hPa 0,0 l/m 3,6 km/h (1 Bft) W 265 0 min 0,000 mm 0,5 UV-I 121 W/m 3,8 C 5,1 C 6,4 km/h (2 Bft) 100,00 %
15.02.2016 11:41 5,1 C 92 % 1008,2 hPa 0,0 l/m 8,8 km/h (2 Bft) W 261 0 min 0,000 mm 0,5 UV-I 113 W/m 3,9 C 3,1 C 12,9 km/h (3 Bft) 95,65 %
15.02.2016 11:42 5,1 C 91 % 1008,2 hPa 0,0 l/m 5,1 km/h (1 Bft) W-NW 286 0 min 0,000 mm 0,5 UV-I 106 W/m 3,8 C 5,1 C 9,7 km/h (2 Bft) 95,83 %
15.02.2016 11:43 5,1 C 91 % 1008,2 hPa 0,0 l/m 5,7 km/h (1 Bft) W-SW 252 0 min 0,000 mm 0,5 UV-I 104 W/m 3,8 C 5,1 C 9,7 km/h (2 Bft) 100,00 %
15.02.2016 11:44 5,1 C 92 % 1008,2 hPa 0,0 l/m 2,6 km/h (1 Bft) W-SW 248 0 min 0,000 mm 0,5 UV-I 104 W/m 3,9 C 5,1 C 6,4 km/h (2 Bft) 100,00 %
15.02.2016 11:45 5,1 C 91 % 1008,3 hPa 0,0 l/m 2,3 km/h (1 Bft) W-SW 248 0 min 0,000 mm 0,5 UV-I 104 W/m 3,8 C 5,1 C 4,8 km/h (1 Bft) 95,65 %
15.02.2016 11:46 5,1 C 91 % 1008,3 hPa 0,0 l/m 6,3 km/h (2 Bft) W-NW 286 0 min 0,000 mm 0,5 UV-I 104 W/m 3,8 C 5,1 C 9,7 km/h (2 Bft) 100,00 %
15.02.2016 11:47 5,1 C 91 % 1008,2 hPa 0,0 l/m 5,9 km/h (2 Bft) W-NW 283 0 min 0,000 mm 0,5 UV-I 108 W/m 3,8 C 5,1 C 9,7 km/h (2 Bft) 91,30 %
15.02.2016 11:48 5,1 C 92 % 1008,3 hPa 0,0 l/m 4,2 km/h (1 Bft) W 271 0 min 0,000 mm 0,5 UV-I 114 W/m 3,9 C 5,1 C 6,4 km/h (2 Bft) 96,30 %
15.02.2016 11:49 5,1 C 92 % 1008,2 hPa 0,0 l/m 5,2 km/h (1 Bft) W 278 0 min 0,000 mm 0,5 UV-I 122 W/m 3,9 C 5,1 C 11,3 km/h (2 Bft) 96,15 %
15.02.2016 11:50 5,2 C 92 % 1008,2 hPa 0,0 l/m 6,4 km/h (2 Bft) W-SW 255 0 min 0,000 mm 0,5 UV-I 131 W/m 4,0 C 5,2 C 9,7 km/h (2 Bft) 92,59 %
15.02.2016 11:51 5,2 C 91 % 1008,2 hPa 0,0 l/m 5,2 km/h (1 Bft) W-SW 248 0 min 0,000 mm 0,5 UV-I 134 W/m 3,9 C 5,2 C 9,7 km/h (2 Bft) 100,00 %
15.02.2016 11:52 5,2 C 91 % 1008,2 hPa 0,0 l/m 6,4 km/h (2 Bft) SW 228 0 min 0,000 mm 0,5 UV-I 135 W/m 3,9 C 5,2 C 8,0 km/h (2 Bft) 96,15 %
15.02.2016 11:53 5,2 C 92 % 1008,2 hPa 0,0 l/m 6,4 km/h (2 Bft) W-SW 258 0 min 0,000 mm 0,5 UV-I 132 W/m 4,0 C 5,2 C 8,0 km/h (2 Bft) 100,00 %
15.02.2016 11:54 5,2 C 91 % 1008,2 hPa 0,0 l/m 8,0 km/h (2 Bft) W-SW 255 0 min 0,000 mm 0,5 UV-I 126 W/m 3,9 C 3,8 C 11,3 km/h (2 Bft) 92,31 %
15.02.2016 11:55 5,2 C 91 % 1008,2 hPa 0,0 l/m 8,0 km/h (2 Bft) W-SW 254 0 min 0,000 mm 0,5 UV-I 121 W/m 3,9 C 3,8 C 11,3 km/h (2 Bft) 100,00 %
15.02.2016 11:56 5,2 C 91 % 1008,3 hPa 0,0 l/m 4,4 km/h (1 Bft) SW 236 0 min 0,000 mm 0,5 UV-I 118 W/m 3,9 C 5,2 C 9,7 km/h (2 Bft) 92,86 %
15.02.2016 11:57 5,2 C 91 % 1008,2 hPa 0,0 l/m 7,3 km/h (2 Bft) W-SW 258 0 min 0,000 mm 0,5 UV-I 120 W/m 3,9 C 4,4 C 9,7 km/h (2 Bft) 96,30 %
15.02.2016 11:58 5,2 C 91 % 1008,2 hPa 0,0 l/m 4,8 km/h (1 Bft) W-SW 239 0 min 0,000 mm 0,5 UV-I 121 W/m 3,9 C 5,2 C 9,7 km/h (2 Bft) 96,15 %
15.02.2016 11:59 5,2 C 91 % 1008,2 hPa 0,0 l/m 6,0 km/h (2 Bft) W-SW 252 0 min 0,000 mm 0,5 UV-I 126 W/m 3,9 C 5,2 C 8,0 km/h (2 Bft) 96,30 %
15.02.2016 12:00 5,2 C 90 % 1008,2 hPa 0,0 l/m 5,3 km/h (1 Bft) W-SW 254 0 min 0,000 mm 0,5 UV-I 130 W/m 3,7 C 5,2 C 6,4 km/h (2 Bft) 100,00 %
15.02.2016 12:01 5,2 C 91 % 1008,3 hPa 0,0 l/m 6,6 km/h (2 Bft) W-SW 246 0 min 0,050 mm 0,5 UV-I 132 W/m 3,9 C 5,0 C 8,0 km/h (2 Bft) 96,30 %
15.02.2016 12:02 5,2 C 91 % 1008,3 hPa 0,0 l/m 4,8 km/h (1 Bft) W 265 0 min 0,000 mm 0,5 UV-I 129 W/m 3,9 C 5,2 C 6,4 km/h (2 Bft) 100,00 %
15.02.2016 12:03 5,2 C 91 % 1008,3 hPa 0,0 l/m 5,8 km/h (2 Bft) W 263 0 min 0,000 mm 0,5 UV-I 121 W/m 3,9 C 5,2 C 11,3 km/h (2 Bft) 91,67 %
15.02.2016 12:04 5,2 C 91 % 1008,3 hPa 0,0 l/m 6,0 km/h (2 Bft) W-SW 247 0 min 0,000 mm 0,5 UV-I 113 W/m 3,9 C 5,2 C 8,0 km/h (2 Bft) 100,00 %
15.02.2016 12:05 5,2 C 90 % 1008,3 hPa 0,0 l/m 1,7 km/h (1 Bft) W-SW 247 0 min 0,000 mm 0,5 UV-I 109 W/m 3,7 C 5,2 C 3,2 km/h (1 Bft) 94,44 %
15.02.2016 12:06 5,2 C 91 % 1008,3 hPa 0,0 l/m 2,5 km/h (1 Bft) W 267 0 min 0,000 mm 0,5 UV-I 107 W/m 3,9 C 5,2 C 4,8 km/h (1 Bft) 100,00 %
15.02.2016 12:07 5,3 C 91 % 1008,4 hPa 0,0 l/m 2,6 km/h (1 Bft) W 267 0 min 0,000 mm 0,5 UV-I 108 W/m 4,0 C 5,3 C 3,2 km/h (1 Bft) 97,56 %
15.02.2016 12:08 5,3 C 91 % 1008,4 hPa 0,0 l/m 3,8 km/h (1 Bft) W 264 0 min 0,000 mm 0,5 UV-I 110 W/m 4,0 C 5,3 C 6,4 km/h (2 Bft) 95,65 %
15.02.2016 12:09 5,3 C 91 % 1008,4 hPa 0,0 l/m 3,3 km/h (1 Bft) W 264 0 min 0,000 mm 0,5 UV-I 113 W/m 4,0 C 5,3 C 4,8 km/h (1 Bft) 100,00 %
15.02.2016 12:10 5,3 C 91 % 1008,4 hPa 0,0 l/m 2,2 km/h (1 Bft) W 264 0 min 0,000 mm 0,5 UV-I 115 W/m 4,0 C 5,3 C 3,2 km/h (1 Bft) 95,65 %
15.02.2016 12:11 5,3 C 91 % 1008,4 hPa 0,0 l/m 1,7 km/h (1 Bft) W 264 0 min 0,000 mm 0,5 UV-I 119 W/m 4,0 C 5,3 C 3,2 km/h (1 Bft) 95,83 %
15.02.2016 12:12 5,3 C 91 % 1008,4 hPa 0,0 l/m 1,7 km/h (1 Bft) W 264 0 min 0,000 mm 0,5 UV-I 124 W/m 4,0 C 5,3 C 4,8 km/h (1 Bft) 91,30 %
15.02.2016 12:13 5,3 C 91 % 1008,5 hPa 0,0 l/m 2,9 km/h (1 Bft) W 264 0 min 0,000 mm 0,5 UV-I 129 W/m 4,0 C 5,3 C 4,8 km/h (1 Bft) 100,00 %
15.02.2016 12:14 5,3 C 91 % 1008,5 hPa 0,0 l/m 3,5 km/h (1 Bft) W 262 0 min 0,000 mm 0,5 UV-I 133 W/m 4,0 C 5,3 C 4,8 km/h (1 Bft) 91,67 %
15.02.2016 12:15 5,4 C 91 % 1008,5 hPa 0,0 l/m 2,8 km/h (1 Bft) W 262 0 min 0,000 mm 0,5 UV-I 134 W/m 4,1 C 5,4 C 4,8 km/h (1 Bft) 100,00 %
15.02.2016 12:16 5,4 C 91 % 1008,5 hPa 0,0 l/m 2,7 km/h (1 Bft) W 262 0 min 0,000 mm 0,5 UV-I 129 W/m 4,1 C 5,4 C 3,2 km/h (1 Bft) 96,30 %
15.02.2016 12:17 5,4 C 91 % 1008,5 hPa 0,0 l/m 2,7 km/h (1 Bft) W 262 0 min 0,000 mm 0,5 UV-I 126 W/m 4,1 C 5,4 C 4,8 km/h (1 Bft) 100,00 %
15.02.2016 12:18 5,4 C 91 % 1008,6 hPa 0,0 l/m 4,2 km/h (1 Bft) W 261 0 min 0,000 mm 0,5 UV-I 125 W/m 4,1 C 5,4 C 6,4 km/h (2 Bft) 96,30 %
15.02.2016 12:19 5,4 C 91 % 1008,6 hPa 0,0 l/m 4,4 km/h (1 Bft) W-SW 257 0 min 0,000 mm 0,5 UV-I 126 W/m 4,1 C 5,4 C 6,4 km/h (2 Bft) 91,30 %
15.02.2016 12:20 5,4 C 90 % 1008,6 hPa 0,0 l/m 5,7 km/h (1 Bft) W 264 0 min 0,000 mm 0,6 UV-I 129 W/m 3,9 C 5,4 C 6,4 km/h (2 Bft) 100,00 %
15.02.2016 12:21 5,4 C 90 % 1008,6 hPa 0,0 l/m 3,6 km/h (1 Bft) W 264 0 min 0,000 mm 0,6 UV-I 137 W/m 3,9 C 5,4 C 4,8 km/h (1 Bft) 95,65 %
15.02.2016 12:22 5,4 C 91 % 1008,6 hPa 0,0 l/m 4,8 km/h (1 Bft) W-SW 241 0 min 0,000 mm 0,6 UV-I 142 W/m 4,1 C 5,4 C 11,3 km/h (2 Bft) 100,00 %
15.02.2016 12:23 5,4 C 91 % 1008,6 hPa 0,0 l/m 6,4 km/h (2 Bft) W-SW 251 0 min 0,000 mm 0,6 UV-I 147 W/m 4,1 C 5,4 C 11,3 km/h (2 Bft) 95,65 %
15.02.2016 12:24 5,4 C 90 % 1008,6 hPa 0,0 l/m 5,1 km/h (1 Bft) W-SW 252 0 min 0,000 mm 0,6 UV-I 150 W/m 3,9 C 5,4 C 8,0 km/h (2 Bft) 100,00 %
15.02.2016 12:25 5,4 C 90 % 1008,6 hPa 0,0 l/m 7,6 km/h (2 Bft) W-SW 257 0 min 0,000 mm 0,6 UV-I 154 W/m 3,9 C 4,4 C 11,3 km/h (2 Bft) 100,00 %
15.02.2016 12:26 5,4 C 90 % 1008,6 hPa 0,0 l/m 4,2 km/h (1 Bft) W-NW 282 0 min 0,000 mm 0,6 UV-I 156 W/m 3,9 C 5,4 C 6,4 km/h (2 Bft) 100,00 %
15.02.2016 12:27 5,5 C 90 % 1008,6 hPa 0,0 l/m 4,8 km/h (1 Bft) W 265 0 min 0,000 mm 0,6 UV-I 156 W/m 4,0 C 5,5 C 6,4 km/h (2 Bft) 100,00 %
15.02.2016 12:28 5,5 C 91 % 1008,6 hPa 0,0 l/m 5,8 km/h (2 Bft) W 273 0 min 0,000 mm 0,6 UV-I 154 W/m 4,2 C 5,5 C 9,7 km/h (2 Bft) 100,00 %
15.02.2016 12:29 5,5 C 90 % 1008,7 hPa 0,0 l/m 3,5 km/h (1 Bft) W-NW 283 0 min 0,000 mm 0,6 UV-I 150 W/m 4,0 C 5,5 C 4,8 km/h (1 Bft) 100,00 %
15.02.2016 12:30 5,5 C 90 % 1008,6 hPa 0,0 l/m 4,1 km/h (1 Bft) W 271 0 min 0,000 mm 0,6 UV-I 146 W/m 4,0 C 5,5 C 6,4 km/h (2 Bft) 100,00 %
15.02.2016 12:31 5,5 C 90 % 1008,7 hPa 0,0 l/m 5,3 km/h (1 Bft) W 267 0 min 0,000 mm 0,6 UV-I 143 W/m 4,0 C 5,5 C 6,4 km/h (2 Bft) 100,00 %
15.02.2016 12:32 5,5 C 90 % 1008,7 hPa 0,0 l/m 6,1 km/h (2 Bft) W 263 0 min 0,000 mm 0,6 UV-I 144 W/m 4,0 C 5,5 C 9,7 km/h (2 Bft) 91,67 %
15.02.2016 12:33 5,5 C 90 % 1008,7 hPa 0,0 l/m 6,8 km/h (2 Bft) W-SW 246 0 min 0,000 mm 0,6 UV-I 148 W/m 4,0 C 5,2 C 9,7 km/h (2 Bft) 96,30 %
15.02.2016 12:34 5,5 C 90 % 1008,8 hPa 0,0 l/m 4,3 km/h (1 Bft) W-SW 245 0 min 0,000 mm 0,6 UV-I 153 W/m 4,0 C 5,5 C 4,8 km/h (1 Bft) 100,00 %
15.02.2016 12:35 5,5 C 89 % 1008,7 hPa 0,0 l/m 5,1 km/h (1 Bft) W 273 0 min 0,000 mm 0,6 UV-I 157 W/m 3,8 C 5,5 C 6,4 km/h (2 Bft) 100,00 %
15.02.2016 12:36 5,5 C 90 % 1008,8 hPa 0,0 l/m 2,7 km/h (1 Bft) W 272 0 min 0,000 mm 0,7 UV-I 159 W/m 4,0 C 5,5 C 3,2 km/h (1 Bft) 95,12 %
15.02.2016 12:37 5,6 C 90 % 1008,8 hPa 0,0 l/m 2,2 km/h (1 Bft) W 272 0 min 0,000 mm 0,7 UV-I 160 W/m 4,1 C 5,6 C 3,2 km/h (1 Bft) 100,00 %
15.02.2016 12:38 5,6 C 90 % 1008,8 hPa 0,0 l/m 4,4 km/h (1 Bft) W-SW 253 0 min 0,000 mm 0,7 UV-I 162 W/m 4,1 C 5,6 C 6,4 km/h (2 Bft) 100,00 %
15.02.2016 12:39 5,6 C 90 % 1008,8 hPa 0,0 l/m 3,5 km/h (1 Bft) W-SW 252 0 min 0,000 mm 0,7 UV-I 163 W/m 4,1 C 5,6 C 4,8 km/h (1 Bft) 95,24 %
15.02.2016 12:40 5,6 C 90 % 1008,7 hPa 0,0 l/m 3,0 km/h (1 Bft) W-SW 252 0 min 0,000 mm 0,7 UV-I 163 W/m 4,1 C 5,6 C 4,8 km/h (1 Bft) 95,65 %
15.02.2016 12:41 5,6 C 89 % 1008,8 hPa 0,0 l/m 2,2 km/h (1 Bft) W-SW 252 0 min 0,000 mm 0,7 UV-I 162 W/m 3,9 C 5,6 C 3,2 km/h (1 Bft) 100,00 %
15.02.2016 12:42 5,6 C 90 % 1008,8 hPa 0,0 l/m 2,8 km/h (1 Bft) W-SW 254 0 min 0,000 mm 0,7 UV-I 157 W/m 4,1 C 5,6 C 6,4 km/h (2 Bft) 100,00 %
15.02.2016 12:43 5,6 C 90 % 1008,8 hPa 0,0 l/m 5,0 km/h (1 Bft) W 263 0 min 0,000 mm 0,7 UV-I 152 W/m 4,1 C 5,6 C 6,4 km/h (2 Bft) 100,00 %
15.02.2016 12:44 5,7 C 90 % 1008,8 hPa 0,0 l/m 3,7 km/h (1 Bft) W-SW 252 0 min 0,000 mm 0,6 UV-I 149 W/m 4,2 C 5,7 C 4,8 km/h (1 Bft) 100,00 %
15.02.2016 12:45 5,7 C 89 % 1008,9 hPa 0,0 l/m 5,2 km/h (1 Bft) W-SW 252 0 min 0,000 mm 0,6 UV-I 152 W/m 4,0 C 5,7 C 6,4 km/h (2 Bft) 100,00 %
15.02.2016 12:46 5,7 C 89 % 1008,9 hPa 0,0 l/m 5,0 km/h (1 Bft) SW 225 0 min 0,000 mm 0,7 UV-I 161 W/m 4,0 C 5,7 C 6,4 km/h (2 Bft) 100,00 %
15.02.2016 12:47 5,7 C 90 % 1008,9 hPa 0,0 l/m 3,0 km/h (1 Bft) S 171 0 min 0,000 mm 0,7 UV-I 175 W/m 4,2 C 5,7 C 4,8 km/h (1 Bft) 100,00 %
15.02.2016 12:48 5,7 C 89 % 1009,0 hPa 0,0 l/m 5,0 km/h (1 Bft) S-SW 209 0 min 0,000 mm 0,7 UV-I 188 W/m 4,0 C 5,7 C 8,0 km/h (2 Bft) 100,00 %
15.02.2016 12:49 5,7 C 89 % 1008,9 hPa 0,0 l/m 6,8 km/h (2 Bft) W-SW 246 0 min 0,000 mm 0,8 UV-I 196 W/m 4,0 C 5,4 C 9,7 km/h (2 Bft) 100,00 %
15.02.2016 12:50 5,7 C 89 % 1009,0 hPa 0,0 l/m 8,2 km/h (2 Bft) SW 222 0 min 0,000 mm 0,8 UV-I 191 W/m 4,0 C 4,2 C 11,3 km/h (2 Bft) 100,00 %
15.02.2016 12:51 5,7 C 89 % 1009,0 hPa 0,0 l/m 6,4 km/h (2 Bft) SW 230 0 min 0,000 mm 0,7 UV-I 179 W/m 4,0 C 5,7 C 9,7 km/h (2 Bft) 100,00 %
15.02.2016 12:52 5,7 C 89 % 1009,1 hPa 0,0 l/m 4,2 km/h (1 Bft) W-SW 253 0 min 0,000 mm 0,7 UV-I 166 W/m 4,0 C 5,7 C 4,8 km/h (1 Bft) 100,00 %
15.02.2016 12:53 5,7 C 89 % 1009,1 hPa 0,0 l/m 3,0 km/h (1 Bft) W-SW 243 0 min 0,000 mm 0,7 UV-I 152 W/m 4,0 C 5,7 C 4,8 km/h (1 Bft) 100,00 %
15.02.2016 12:54 5,7 C 89 % 1009,1 hPa 0,0 l/m 6,2 km/h (2 Bft) W-SW 244 0 min 0,000 mm 0,7 UV-I 142 W/m 4,0 C 5,7 C 8,0 km/h (2 Bft) 100,00 %
15.02.2016 12:55 5,8 C 89 % 1009,1 hPa 0,0 l/m 4,2 km/h (1 Bft) W-SW 244 0 min 0,000 mm 0,6 UV-I 135 W/m 4,1 C 5,8 C 6,4 km/h (2 Bft) 100,00 %
15.02.2016 12:56 5,7 C 88 % 1009,2 hPa 0,0 l/m 4,8 km/h (1 Bft) SW 227 0 min 0,000 mm 0,6 UV-I 134 W/m 3,9 C 5,7 C 8,0 km/h (2 Bft) 100,00 %
15.02.2016 12:57 5,7 C 88 % 1009,2 hPa 0,0 l/m 5,0 km/h (1 Bft) SW 225 0 min 0,000 mm 0,6 UV-I 136 W/m 3,9 C 5,7 C 8,0 km/h (2 Bft) 100,00 %
15.02.2016 12:58 5,7 C 88 % 1009,2 hPa 0,0 l/m 8,0 km/h (2 Bft) SW 229 0 min 0,000 mm 0,6 UV-I 141 W/m 3,9 C 4,3 C 11,3 km/h (2 Bft) 100,00 %
15.02.2016 12:59 5,7 C 88 % 1009,2 hPa 0,0 l/m 5,2 km/h (1 Bft) W-SW 249 0 min 0,000 mm 0,7 UV-I 148 W/m 3,9 C 5,7 C 6,4 km/h (2 Bft) 96,15 %
15.02.2016 13:00 5,8 C 88 % 1009,3 hPa 0,0 l/m 3,6 km/h (1 Bft) W-SW 240 0 min 0,000 mm 0,7 UV-I 158 W/m 4,0 C 5,8 C 6,4 km/h (2 Bft) 100,00 %
15.02.2016 13:01 5,8 C 88 % 1009,3 hPa 0,0 l/m 5,1 km/h (1 Bft) W-SW 249 0 min 0,051 mm 0,7 UV-I 170 W/m 4,0 C 5,8 C 6,4 km/h (2 Bft) 100,00 %
15.02.2016 13:02 5,8 C 88 % 1009,3 hPa 0,0 l/m 3,9 km/h (1 Bft) W-SW 246 0 min 0,000 mm 0,7 UV-I 185 W/m 4,0 C 5,8 C 6,4 km/h (2 Bft) 100,00 %
15.02.2016 13:03 5,8 C 88 % 1009,3 hPa 0,0 l/m 6,0 km/h (2 Bft) W-SW 251 0 min 0,000 mm 0,8 UV-I 198 W/m 4,0 C 5,8 C 8,0 km/h (2 Bft) 100,00 %
15.02.2016 13:04 5,9 C 88 % 1009,3 hPa 0,0 l/m 4,7 km/h (1 Bft) W-SW 251 0 min 0,000 mm 0,8 UV-I 201 W/m 4,1 C 5,9 C 4,8 km/h (1 Bft) 100,00 %
15.02.2016 13:05 5,9 C 88 % 1009,4 hPa 0,0 l/m 5,1 km/h (1 Bft) W-SW 239 0 min 0,000 mm 0,8 UV-I 197 W/m 4,1 C 5,9 C 6,4 km/h (2 Bft) 98,26 %
15.02.2016 13:06 5,9 C 88 % 1009,4 hPa 0,0 l/m 5,1 km/h (1 Bft) W 262 0 min 0,000 mm 0,8 UV-I 185 W/m 4,1 C 5,9 C 6,4 km/h (2 Bft) 100,00 %
15.02.2016 13:07 5,9 C 88 % 1009,4 hPa 0,0 l/m 5,5 km/h (1 Bft) W 275 0 min 0,000 mm 0,7 UV-I 170 W/m 4,1 C 5,9 C 8,0 km/h (2 Bft) 100,00 %
15.02.2016 13:08 5,9 C 88 % 1009,4 hPa 0,0 l/m 4,5 km/h (1 Bft) W 259 0 min 0,000 mm 0,7 UV-I 156 W/m 4,1 C 5,9 C 6,4 km/h (2 Bft) 100,00 %
15.02.2016 13:09 5,9 C 88 % 1009,4 hPa 0,0 l/m 4,8 km/h (1 Bft) W 263 0 min 0,000 mm 0,7 UV-I 148 W/m 4,1 C 5,9 C 6,4 km/h (2 Bft) 100,00 %
15.02.2016 13:10 5,9 C 88 % 1009,4 hPa 0,0 l/m 6,0 km/h (2 Bft) W 263 0 min 0,000 mm 0,6 UV-I 145 W/m 4,1 C 5,9 C 9,7 km/h (2 Bft) 100,00 %
15.02.2016 13:11 6,0 C 88 % 1009,4 hPa 0,0 l/m 5,7 km/h (1 Bft) W 265 0 min 0,000 mm 0,6 UV-I 145 W/m 4,2 C 6,0 C 6,4 km/h (2 Bft) 100,00 %
15.02.2016 13:12 6,0 C 89 % 1009,4 hPa 0,0 l/m 5,2 km/h (1 Bft) W-SW 246 0 min 0,000 mm 0,6 UV-I 147 W/m 4,3 C 6,0 C 6,4 km/h (2 Bft) 100,00 %
15.02.2016 13:13 6,1 C 89 % 1009,5 hPa 0,0 l/m 4,8 km/h (1 Bft) S-SW 212 0 min 0,000 mm 0,6 UV-I 148 W/m 4,4 C 6,1 C 6,4 km/h (2 Bft) 100,00 %
15.02.2016 13:14 6,1 C 88 % 1009,5 hPa 0,0 l/m 3,7 km/h (1 Bft) SW 225 0 min 0,000 mm 0,6 UV-I 145 W/m 4,3 C 6,1 C 6,4 km/h (2 Bft) 100,00 %
15.02.2016 13:15 6,1 C 88 % 1009,5 hPa 0,0 l/m 3,9 km/h (1 Bft) W-SW 238 0 min 0,000 mm 0,6 UV-I 141 W/m 4,3 C 6,1 C 6,4 km/h (2 Bft) 100,00 %
15.02.2016 13:16 6,1 C 88 % 1009,5 hPa 0,0 l/m 4,9 km/h (1 Bft) W-SW 243 0 min 0,000 mm 0,6 UV-I 137 W/m 4,3 C 6,1 C 6,4 km/h (2 Bft) 100,00 %
15.02.2016 13:17 6,0 C 88 % 1009,6 hPa 0,0 l/m 5,0 km/h (1 Bft) S-SW 213 0 min 0,000 mm 0,6 UV-I 134 W/m 4,2 C 6,0 C 8,0 km/h (2 Bft) 100,00 %
15.02.2016 13:18 6,0 C 88 % 1009,5 hPa 0,0 l/m 6,5 km/h (2 Bft) W 260 0 min 0,000 mm 0,6 UV-I 133 W/m 4,2 C 5,9 C 9,7 km/h (2 Bft) 92,31 %
15.02.2016 13:19 6,0 C 88 % 1009,5 hPa 0,0 l/m 6,6 km/h (2 Bft) SW 215 0 min 0,000 mm 0,6 UV-I 132 W/m 4,2 C 5,9 C 9,7 km/h (2 Bft) 100,00 %
15.02.2016 13:20 6,0 C 88 % 1009,6 hPa 0,0 l/m 5,4 km/h (1 Bft) S-SW 192 0 min 0,000 mm 0,6 UV-I 132 W/m 4,2 C 6,0 C 11,3 km/h (2 Bft) 100,00 %
15.02.2016 13:21 5,9 C 88 % 1009,6 hPa 0,0 l/m 4,7 km/h (1 Bft) S-SW 194 0 min 0,000 mm 0,6 UV-I 132 W/m 4,1 C 5,9 C 8,0 km/h (2 Bft) 100,00 %
15.02.2016 13:22 5,9 C 88 % 1009,6 hPa 0,0 l/m 4,1 km/h (1 Bft) S 175 0 min 0,000 mm 0,6 UV-I 133 W/m 4,1 C 5,9 C 6,4 km/h (2 Bft) 100,00 %
15.02.2016 13:23 5,9 C 88 % 1009,6 hPa 0,0 l/m 5,9 km/h (2 Bft) SW 224 0 min 0,000 mm 0,6 UV-I 134 W/m 4,1 C 5,9 C 9,7 km/h (2 Bft) 100,00 %
15.02.2016 13:24 5,9 C 89 % 1009,7 hPa 0,0 l/m 4,7 km/h (1 Bft) W-SW 252 0 min 0,000 mm 0,6 UV-I 134 W/m 4,2 C 5,9 C 6,4 km/h (2 Bft) 96,15 %
15.02.2016 13:25 5,9 C 89 % 1009,7 hPa 0,0 l/m 4,7 km/h (1 Bft) W-SW 248 0 min 0,000 mm 0,5 UV-I 132 W/m 4,2 C 5,9 C 6,4 km/h (2 Bft) 100,00 %
15.02.2016 13:26 6,0 C 89 % 1009,6 hPa 0,0 l/m 4,5 km/h (1 Bft) W 267 0 min 0,000 mm 0,5 UV-I 132 W/m 4,3 C 6,0 C 6,4 km/h (2 Bft) 100,00 %
15.02.2016 13:27 6,0 C 88 % 1009,7 hPa 0,0 l/m 6,2 km/h (2 Bft) SW 219 0 min 0,000 mm 0,5 UV-I 135 W/m 4,2 C 6,0 C 11,3 km/h (2 Bft) 100,00 %
15.02.2016 13:28 6,0 C 88 % 1009,7 hPa 0,0 l/m 5,6 km/h (1 Bft) SW 231 0 min 0,000 mm 0,6 UV-I 138 W/m 4,2 C 6,0 C 9,7 km/h (2 Bft) 100,00 %
15.02.2016 13:29 6,0 C 89 % 1009,7 hPa 0,0 l/m 3,8 km/h (1 Bft) W-SW 242 0 min 0,000 mm 0,6 UV-I 145 W/m 4,3 C 6,0 C 4,8 km/h (1 Bft) 100,00 %
15.02.2016 13:30 6,0 C 88 % 1009,7 hPa 0,0 l/m 2,8 km/h (1 Bft) W-SW 242 0 min 0,000 mm 0,6 UV-I 151 W/m 4,2 C 6,0 C 4,8 km/h (1 Bft) 100,00 %
15.02.2016 13:31 6,1 C 88 % 1009,7 hPa 0,0 l/m 3,8 km/h (1 Bft) SW 229 0 min 0,000 mm 0,6 UV-I 153 W/m 4,3 C 6,1 C 8,0 km/h (2 Bft) 95,65 %
15.02.2016 13:32 6,1 C 88 % 1009,8 hPa 0,0 l/m 3,7 km/h (1 Bft) SW 230 0 min 0,000 mm 0,6 UV-I 153 W/m 4,3 C 6,1 C 4,8 km/h (1 Bft) 100,00 %
15.02.2016 13:33 6,1 C 88 % 1009,8 hPa 0,0 l/m 5,0 km/h (1 Bft) W 273 0 min 0,000 mm 0,6 UV-I 150 W/m 4,3 C 6,1 C 6,4 km/h (2 Bft) 100,00 %
15.02.2016 13:34 6,1 C 89 % 1009,8 hPa 0,0 l/m 6,0 km/h (2 Bft) S-SW 210 0 min 0,000 mm 0,6 UV-I 149 W/m 4,4 C 6,1 C 9,7 km/h (2 Bft) 100,00 %
15.02.2016 13:35 6,1 C 88 % 1009,8 hPa 0,0 l/m 7,0 km/h (2 Bft) W-SW 242 0 min 0,000 mm 0,6 UV-I 149 W/m 4,3 C 5,6 C 11,3 km/h (2 Bft) 100,00 %
15.02.2016 13:36 6,1 C 88 % 1009,8 hPa 0,0 l/m 5,8 km/h (2 Bft) W-SW 255 0 min 0,000 mm 0,6 UV-I 153 W/m 4,3 C 6,1 C 8,0 km/h (2 Bft) 100,00 %
15.02.2016 13:37 6,1 C 87 % 1009,8 hPa 0,0 l/m 5,8 km/h (2 Bft) SW 231 0 min 0,000 mm 0,6 UV-I 158 W/m 4,1 C 6,1 C 9,7 km/h (2 Bft) 100,00 %
15.02.2016 13:38 6,1 C 88 % 1009,8 hPa 0,0 l/m 7,1 km/h (2 Bft) SW 229 0 min 0,000 mm 0,6 UV-I 163 W/m 4,3 C 5,5 C 8,0 km/h (2 Bft) 100,00 %
15.02.2016 13:39 6,1 C 88 % 1009,9 hPa 0,0 l/m 6,8 km/h (2 Bft) W-SW 250 0 min 0,000 mm 0,6 UV-I 169 W/m 4,3 C 5,8 C 11,3 km/h (2 Bft) 100,00 %
15.02.2016 13:40 6,1 C 88 % 1009,8 hPa 0,0 l/m 5,4 km/h (1 Bft) W-SW 257 0 min 0,000 mm 0,6 UV-I 174 W/m 4,3 C 6,1 C 8,0 km/h (2 Bft) 100,00 %
15.02.2016 13:41 6,2 C 88 % 1009,8 hPa 0,0 l/m 6,5 km/h (2 Bft) SW 234 0 min 0,000 mm 0,6 UV-I 176 W/m 4,4 C 6,1 C 11,3 km/h (2 Bft) 100,00 %
15.02.2016 13:42 6,2 C 87 % 1009,8 hPa 0,0 l/m 6,0 km/h (2 Bft) W-SW 238 0 min 0,000 mm 0,6 UV-I 175 W/m 4,2 C 6,2 C 8,0 km/h (2 Bft) 100,00 %
15.02.2016 13:43 6,2 C 88 % 1009,8 hPa 0,0 l/m 5,0 km/h (1 Bft) W-SW 238 0 min 0,000 mm 0,6 UV-I 174 W/m 4,4 C 6,2 C 8,0 km/h (2 Bft) 100,00 %
15.02.2016 13:44 6,2 C 88 % 1009,8 hPa 0,0 l/m 6,0 km/h (2 Bft) W-SW 242 0 min 0,000 mm 0,6 UV-I 170 W/m 4,4 C 6,2 C 8,0 km/h (2 Bft) 100,00 %
15.02.2016 13:45 6,2 C 88 % 1009,8 hPa 0,0 l/m 6,5 km/h (2 Bft) SW 229 0 min 0,000 mm 0,6 UV-I 158 W/m 4,4 C 6,1 C 8,0 km/h (2 Bft) 100,00 %
15.02.2016 13:46 6,2 C 87 % 1009,9 hPa 0,0 l/m 6,2 km/h (2 Bft) W-SW 250 0 min 0,000 mm 0,6 UV-I 141 W/m 4,2 C 6,2 C 8,0 km/h (2 Bft) 100,00 %
15.02.2016 13:47 6,2 C 88 % 1009,9 hPa 0,0 l/m 4,9 km/h (1 Bft) SW 231 0 min 0,000 mm 0,5 UV-I 128 W/m 4,4 C 6,2 C 6,4 km/h (2 Bft) 100,00 %
15.02.2016 13:48 6,2 C 88 % 1009,9 hPa 0,0 l/m 5,8 km/h (2 Bft) SW 232 0 min 0,000 mm 0,5 UV-I 118 W/m 4,4 C 6,2 C 9,7 km/h (2 Bft) 100,00 %
15.02.2016 13:49 6,2 C 88 % 1009,9 hPa 0,0 l/m 6,4 km/h (2 Bft) SW 230 0 min 0,000 mm 0,5 UV-I 114 W/m 4,4 C 6,2 C 9,7 km/h (2 Bft) 100,00 %
15.02.2016 13:50 6,2 C 87 % 1009,9 hPa 0,0 l/m 6,0 km/h (2 Bft) W-SW 244 0 min 0,000 mm 0,5 UV-I 118 W/m 4,2 C 6,2 C 8,0 km/h (2 Bft) 96,15 %
15.02.2016 13:51 6,2 C 88 % 1009,9 hPa 0,0 l/m 7,8 km/h (2 Bft) W-NW 283 0 min 0,000 mm 0,5 UV-I 125 W/m 4,4 C 5,0 C 11,3 km/h (2 Bft) 96,15 %
15.02.2016 13:52 6,2 C 87 % 1009,9 hPa 0,0 l/m 4,9 km/h (1 Bft) W 274 0 min 0,000 mm 0,5 UV-I 136 W/m 4,2 C 6,2 C 6,4 km/h (2 Bft) 100,00 %
15.02.2016 13:53 6,2 C 88 % 1009,9 hPa 0,0 l/m 5,3 km/h (1 Bft) SW 223 0 min 0,000 mm 0,6 UV-I 152 W/m 4,4 C 6,2 C 6,4 km/h (2 Bft) 100,00 %
15.02.2016 13:54 6,2 C 88 % 1009,9 hPa 0,0 l/m 4,1 km/h (1 Bft) W-SW 244 0 min 0,000 mm 0,6 UV-I 166 W/m 4,4 C 6,2 C 6,4 km/h (2 Bft) 96,15 %
15.02.2016 13:55 6,2 C 88 % 1009,9 hPa 0,0 l/m 4,3 km/h (1 Bft) W 275 0 min 0,000 mm 0,6 UV-I 177 W/m 4,4 C 6,2 C 6,4 km/h (2 Bft) 100,00 %
15.02.2016 13:56 6,3 C 88 % 1009,9 hPa 0,0 l/m 3,8 km/h (1 Bft) W-SW 253 0 min 0,000 mm 0,6 UV-I 186 W/m 4,5 C 6,3 C 6,4 km/h (2 Bft) 86,96 %
15.02.2016 13:57 6,3 C 88 % 1009,9 hPa 0,0 l/m 5,8 km/h (2 Bft) W 279 0 min 0,000 mm 0,6 UV-I 196 W/m 4,5 C 6,3 C 9,7 km/h (2 Bft) 100,00 %
15.02.2016 13:58 6,3 C 88 % 1009,9 hPa 0,0 l/m 3,8 km/h (1 Bft) W 277 0 min 0,000 mm 0,7 UV-I 198 W/m 4,5 C 6,3 C 4,8 km/h (1 Bft) 81,82 %
15.02.2016 13:59 6,3 C 88 % 1009,9 hPa 0,0 l/m 4,9 km/h (1 Bft) W-SW 258 0 min 0,000 mm 0,7 UV-I 199 W/m 4,5 C 6,3 C 8,0 km/h (2 Bft) 94,44 %
15.02.2016 14:00 6,4 C 88 % 1009,9 hPa 0,0 l/m 8,0 km/h (2 Bft) W 265 0 min 0,000 mm 0,7 UV-I 213 W/m 4,6 C 5,1 C 11,3 km/h (2 Bft) 100,00 %
15.02.2016 14:01 6,4 C 87 % 1009,9 hPa 0,0 l/m 7,8 km/h (2 Bft) W 265 0 min 0,076 mm 0,7 UV-I 229 W/m 4,4 C 5,2 C 11,3 km/h (2 Bft) 95,83 %
15.02.2016 14:02 6,4 C 87 % 1010,0 hPa 0,0 l/m 7,1 km/h (2 Bft) W-SW 244 1 min 0,000 mm 0,7 UV-I 237 W/m 4,4 C 5,8 C 9,7 km/h (2 Bft) 96,55 %
15.02.2016 14:03 6,4 C 87 % 1010,0 hPa 0,0 l/m 3,2 km/h (1 Bft) W-SW 244 0 min 0,000 mm 0,7 UV-I 229 W/m 4,4 C 6,4 C 4,8 km/h (1 Bft) 93,33 %
15.02.2016 14:04 6,4 C 87 % 1010,0 hPa 0,0 l/m 5,1 km/h (1 Bft) W 278 0 min 0,000 mm 0,7 UV-I 210 W/m 4,4 C 6,4 C 9,7 km/h (2 Bft) 96,15 %
15.02.2016 14:05 6,4 C 87 % 1010,0 hPa 0,0 l/m 4,4 km/h (1 Bft) SW 217 0 min 0,000 mm 0,7 UV-I 176 W/m 4,4 C 6,4 C 6,4 km/h (2 Bft) 96,15 %
15.02.2016 14:06 6,4 C 87 % 1010,0 hPa 0,0 l/m 5,9 km/h (2 Bft) W 273 0 min 0,000 mm 0,6 UV-I 139 W/m 4,4 C 6,4 C 8,0 km/h (2 Bft) 100,00 %
15.02.2016 14:07 6,5 C 87 % 1010,0 hPa 0,0 l/m 6,3 km/h (2 Bft) W-SW 252 0 min 0,000 mm 0,5 UV-I 129 W/m 4,5 C 6,5 C 8,0 km/h (2 Bft) 96,15 %
15.02.2016 14:08 6,5 C 87 % 1010,0 hPa 0,0 l/m 7,8 km/h (2 Bft) SW 220 0 min 0,000 mm 0,5 UV-I 98 W/m 4,5 C 5,3 C 11,3 km/h (2 Bft) 100,00 %
15.02.2016 14:09 6,4 C 86 % 1010,1 hPa 0,0 l/m 6,0 km/h (2 Bft) SW 223 0 min 0,000 mm 0,4 UV-I 96 W/m 4,2 C 6,4 C 8,0 km/h (2 Bft) 95,65 %
15.02.2016 14:10 6,4 C 86 % 1010,1 hPa 0,0 l/m 6,6 km/h (2 Bft) W-SW 250 0 min 0,000 mm 0,0 UV-I 101 W/m 4,2 C 6,3 C 8,0 km/h (2 Bft) 95,83 %
15.02.2016 14:11 6,4 C 87 % 1010,2 hPa 0,0 l/m 4,6 km/h (1 Bft) W-SW 252 0 min 0,000 mm 0,3 UV-I 116 W/m 4,4 C 6,4 C 6,4 km/h (2 Bft) 100,00 %
15.02.2016 14:12 6,3 C 87 % 1010,1 hPa 0,0 l/m 3,2 km/h (1 Bft) W 274 0 min 0,000 mm 0,5 UV-I 139 W/m 4,3 C 6,3 C 4,8 km/h (1 Bft) 95,83 %
15.02.2016 14:13 6,3 C 87 % 1010,1 hPa 0,0 l/m 4,3 km/h (1 Bft) W 261 0 min 0,000 mm 0,5 UV-I 171 W/m 4,3 C 6,3 C 6,4 km/h (2 Bft) 94,12 %
15.02.2016 14:14 6,4 C 88 % 1010,2 hPa 0,0 l/m 4,0 km/h (1 Bft) SW 230 0 min 0,000 mm 0,6 UV-I 193 W/m 4,6 C 6,4 C 6,4 km/h (2 Bft) 95,83 %
15.02.2016 14:15 6,4 C 87 % 1010,2 hPa 0,0 l/m 5,0 km/h (1 Bft) SW 229 0 min 0,000 mm 0,6 UV-I 207 W/m 4,4 C 6,4 C 6,4 km/h (2 Bft) 100,00 %
15.02.2016 14:16 6,4 C 86 % 1010,2 hPa 0,0 l/m 5,3 km/h (1 Bft) SW 229 0 min 0,000 mm 0,6 UV-I 208 W/m 4,2 C 6,4 C 9,7 km/h (2 Bft) 97,56 %
15.02.2016 14:17 6,5 C 87 % 1010,2 hPa 0,0 l/m 5,1 km/h (1 Bft) W 265 0 min 0,000 mm 0,6 UV-I 200 W/m 4,5 C 6,5 C 6,4 km/h (2 Bft) 92,31 %
15.02.2016 14:18 6,5 C 87 % 1010,3 hPa 0,0 l/m 5,1 km/h (1 Bft) SW 233 0 min 0,000 mm 0,6 UV-I 187 W/m 4,5 C 6,5 C 6,4 km/h (2 Bft) 98,27 %
15.02.2016 14:19 6,5 C 87 % 1010,3 hPa 0,0 l/m 5,2 km/h (1 Bft) W-SW 258 0 min 0,000 mm 0,5 UV-I 178 W/m 4,5 C 6,5 C 11,3 km/h (2 Bft) 94,74 %
15.02.2016 14:20 6,6 C 86 % 1010,2 hPa 0,0 l/m 6,8 km/h (2 Bft) W-SW 237 0 min 0,000 mm 0,5 UV-I 165 W/m 4,4 C 6,3 C 9,7 km/h (2 Bft) 95,83 %
15.02.2016 14:21 6,6 C 86 % 1010,3 hPa 0,0 l/m 5,5 km/h (1 Bft) W 264 0 min 0,000 mm 0,5 UV-I 142 W/m 4,4 C 6,6 C 6,4 km/h (2 Bft) 95,65 %
15.02.2016 14:22 6,6 C 87 % 1010,3 hPa 0,0 l/m 4,8 km/h (1 Bft) W-SW 250 0 min 0,000 mm 0,2 UV-I 113 W/m 4,6 C 6,6 C 8,0 km/h (2 Bft) 100,00 %
15.02.2016 14:23 6,6 C 86 % 1010,3 hPa 0,0 l/m 7,6 km/h (2 Bft) W-SW 244 0 min 0,000 mm 0,0 UV-I 101 W/m 4,4 C 5,6 C 11,3 km/h (2 Bft) 96,15 %
15.02.2016 14:24 6,6 C 85 % 1010,3 hPa 0,0 l/m 5,2 km/h (1 Bft) W-SW 246 0 min 0,000 mm 0,0 UV-I 93 W/m 4,3 C 6,6 C 8,0 km/h (2 Bft) 95,83 %
15.02.2016 14:25 6,6 C 85 % 1010,3 hPa 0,0 l/m 7,2 km/h (2 Bft) W 259 0 min 0,000 mm 0,0 UV-I 93 W/m 4,3 C 5,9 C 11,3 km/h (2 Bft) 95,65 %
15.02.2016 14:26 6,6 C 85 % 1010,3 hPa 0,0 l/m 6,6 km/h (2 Bft) W 261 0 min 0,000 mm 0,0 UV-I 98 W/m 4,3 C 6,5 C 11,3 km/h (2 Bft) 100,00 %
15.02.2016 14:27 6,5 C 86 % 1010,3 hPa 0,0 l/m 5,5 km/h (1 Bft) W-SW 240 0 min 0,000 mm 0,0 UV-I 109 W/m 4,3 C 6,5 C 8,0 km/h (2 Bft) 100,00 %
15.02.2016 14:28 6,5 C 85 % 1010,3 hPa 0,0 l/m 6,4 km/h (2 Bft) W 263 0 min 0,000 mm 0,0 UV-I 122 W/m 4,2 C 6,5 C 8,0 km/h (2 Bft) 95,83 %
15.02.2016 14:29 6,5 C 85 % 1010,4 hPa 0,0 l/m 4,3 km/h (1 Bft) W 269 0 min 0,000 mm 0,4 UV-I 144 W/m 4,2 C 6,5 C 9,7 km/h (2 Bft) 100,00 %
15.02.2016 14:30 6,5 C 86 % 1010,4 hPa 0,0 l/m 5,6 km/h (1 Bft) SW 220 0 min 0,000 mm 0,5 UV-I 160 W/m 4,3 C 6,5 C 8,0 km/h (2 Bft) 96,15 %
15.02.2016 14:31 6,5 C 85 % 1010,4 hPa 0,0 l/m 5,7 km/h (1 Bft) SW 216 0 min 0,000 mm 0,5 UV-I 173 W/m 4,2 C 6,5 C 9,7 km/h (2 Bft) 100,00 %
15.02.2016 14:32 6,6 C 86 % 1010,4 hPa 0,0 l/m 7,4 km/h (2 Bft) W-SW 240 0 min 0,000 mm 0,5 UV-I 191 W/m 4,4 C 5,8 C 9,7 km/h (2 Bft) 100,00 %
15.02.2016 14:33 6,6 C 86 % 1010,4 hPa 0,0 l/m 6,6 km/h (2 Bft) SW 214 0 min 0,000 mm 0,5 UV-I 207 W/m 4,4 C 6,5 C 9,7 km/h (2 Bft) 100,00 %
15.02.2016 14:34 6,6 C 86 % 1010,5 hPa 0,0 l/m 7,3 km/h (2 Bft) W-SW 240 0 min 0,000 mm 0,5 UV-I 195 W/m 4,4 C 5,8 C 9,7 km/h (2 Bft) 100,00 %
15.02.2016 14:35 6,7 C 86 % 1010,4 hPa 0,0 l/m 5,0 km/h (1 Bft) W-SW 257 0 min 0,000 mm 0,5 UV-I 184 W/m 4,5 C 6,7 C 6,4 km/h (2 Bft) 100,00 %
15.02.2016 14:36 6,7 C 85 % 1010,5 hPa 0,0 l/m 9,7 km/h (2 Bft) SW 230 0 min 0,000 mm 0,6 UV-I 202 W/m 4,4 C 4,2 C 11,3 km/h (2 Bft) 95,65 %
15.02.2016 14:37 6,7 C 85 % 1010,4 hPa 0,0 l/m 8,7 km/h (2 Bft) SW 227 1 min 0,000 mm 0,6 UV-I 223 W/m 4,4 C 4,9 C 9,7 km/h (2 Bft) 96,30 %
15.02.2016 14:38 6,7 C 84 % 1010,4 hPa 0,0 l/m 5,7 km/h (1 Bft) W-SW 239 1 min 0,000 mm 0,6 UV-I 227 W/m 4,2 C 6,7 C 8,0 km/h (2 Bft) 100,00 %
15.02.2016 14:39 6,7 C 85 % 1010,5 hPa 0,0 l/m 6,6 km/h (2 Bft) W 261 1 min 0,000 mm 0,6 UV-I 228 W/m 4,4 C 6,6 C 9,7 km/h (2 Bft) 100,00 %
15.02.2016 14:40 6,8 C 85 % 1010,5 hPa 0,0 l/m 7,0 km/h (2 Bft) SW 228 1 min 0,000 mm 0,6 UV-I 224 W/m 4,5 C 6,3 C 8,0 km/h (2 Bft) 100,00 %
15.02.2016 14:41 6,8 C 84 % 1010,5 hPa 0,0 l/m 5,9 km/h (2 Bft) S-SW 201 1 min 0,000 mm 0,6 UV-I 213 W/m 4,3 C 6,8 C 8,0 km/h (2 Bft) 100,00 %
15.02.2016 14:42 6,8 C 84 % 1010,5 hPa 0,0 l/m 3,6 km/h (1 Bft) W-SW 250 1 min 0,000 mm 0,6 UV-I 212 W/m 4,3 C 6,8 C 6,4 km/h (2 Bft) 100,00 %
15.02.2016 14:43 6,8 C 85 % 1010,5 hPa 0,0 l/m 3,8 km/h (1 Bft) W 261 1 min 0,000 mm 0,6 UV-I 219 W/m 4,5 C 6,8 C 6,4 km/h (2 Bft) 100,00 %
15.02.2016 14:44 6,9 C 85 % 1010,5 hPa 0,0 l/m 4,7 km/h (1 Bft) W 271 1 min 0,000 mm 0,6 UV-I 220 W/m 4,6 C 6,9 C 9,7 km/h (2 Bft) 100,00 %
15.02.2016 14:45 6,9 C 84 % 1010,6 hPa 0,0 l/m 7,2 km/h (2 Bft) W-SW 258 1 min 0,000 mm 0,6 UV-I 215 W/m 4,4 C 6,2 C 9,7 km/h (2 Bft) 100,00 %
15.02.2016 14:46 6,9 C 84 % 1010,6 hPa 0,0 l/m 4,2 km/h (1 Bft) SW 236 1 min 0,000 mm 0,5 UV-I 206 W/m 4,4 C 6,9 C 6,4 km/h (2 Bft) 100,00 %
15.02.2016 14:47 6,9 C 84 % 1010,6 hPa 0,0 l/m 6,0 km/h (2 Bft) SW 235 0 min 0,000 mm 0,5 UV-I 194 W/m 4,4 C 6,9 C 9,7 km/h (2 Bft) 92,59 %
15.02.2016 14:48 6,9 C 84 % 1010,6 hPa 0,0 l/m 3,1 km/h (1 Bft) W-SW 250 0 min 0,000 mm 0,5 UV-I 178 W/m 4,4 C 6,9 C 6,4 km/h (2 Bft) 100,00 %
15.02.2016 14:49 6,9 C 84 % 1010,6 hPa 0,0 l/m 9,3 km/h (2 Bft) W-SW 254 0 min 0,000 mm 0,5 UV-I 170 W/m 4,4 C 4,6 C 12,9 km/h (3 Bft) 96,15 %
15.02.2016 14:50 6,9 C 83 % 1010,7 hPa 0,0 l/m 7,4 km/h (2 Bft) W 265 0 min 0,000 mm 0,5 UV-I 152 W/m 4,2 C 6,1 C 11,3 km/h (2 Bft) 96,30 %
15.02.2016 14:51 6,9 C 83 % 1010,7 hPa 0,0 l/m 6,7 km/h (2 Bft) W-SW 246 0 min 0,000 mm 0,5 UV-I 151 W/m 4,2 C 6,7 C 9,7 km/h (2 Bft) 100,00 %
15.02.2016 14:52 6,8 C 83 % 1010,8 hPa 0,0 l/m 8,4 km/h (2 Bft) W 260 0 min 0,000 mm 0,5 UV-I 161 W/m 4,1 C 5,2 C 9,7 km/h (2 Bft) 100,00 %
15.02.2016 14:53 6,8 C 83 % 1010,7 hPa 0,0 l/m 8,3 km/h (2 Bft) W-SW 257 0 min 0,000 mm 0,5 UV-I 173 W/m 4,1 C 5,3 C 11,3 km/h (2 Bft) 100,00 %
15.02.2016 14:54 6,8 C 83 % 1010,8 hPa 0,0 l/m 7,2 km/h (2 Bft) W-SW 245 0 min 0,000 mm 0,5 UV-I 183 W/m 4,1 C 6,1 C 11,3 km/h (2 Bft) 100,00 %
15.02.2016 14:55 6,8 C 83 % 1010,8 hPa 0,0 l/m 5,3 km/h (1 Bft) W-SW 254 0 min 0,000 mm 0,5 UV-I 183 W/m 4,1 C 6,8 C 6,4 km/h (2 Bft) 100,00 %
15.02.2016 14:56 6,8 C 83 % 1010,8 hPa 0,0 l/m 4,6 km/h (1 Bft) W 267 0 min 0,000 mm 0,5 UV-I 180 W/m 4,1 C 6,8 C 6,4 km/h (2 Bft) 100,00 %
15.02.2016 14:57 6,8 C 83 % 1010,9 hPa 0,0 l/m 5,4 km/h (1 Bft) W 264 0 min 0,000 mm 0,5 UV-I 177 W/m 4,1 C 6,8 C 9,7 km/h (2 Bft) 100,00 %
15.02.2016 14:58 6,8 C 83 % 1010,9 hPa 0,0 l/m 6,4 km/h (2 Bft) W-SW 253 0 min 0,000 mm 0,2 UV-I 173 W/m 4,1 C 6,8 C 9,7 km/h (2 Bft) 100,00 %
15.02.2016 14:59 6,8 C 84 % 1010,9 hPa 0,0 l/m 7,4 km/h (2 Bft) W-SW 248 0 min 0,000 mm 0,0 UV-I 167 W/m 4,3 C 6,0 C 11,3 km/h (2 Bft) 100,00 %
15.02.2016 15:00 6,8 C 83 % 1010,9 hPa 0,0 l/m 6,4 km/h (2 Bft) W-SW 245 0 min 0,000 mm 0,0 UV-I 161 W/m 4,1 C 6,8 C 9,7 km/h (2 Bft) 100,00 %
15.02.2016 15:01 6,8 C 84 % 1011,0 hPa 0,0 l/m 5,8 km/h (2 Bft) SW 234 0 min 0,077 mm 0,0 UV-I 157 W/m 4,3 C 6,8 C 8,0 km/h (2 Bft) 100,00 %
15.02.2016 15:02 6,8 C 84 % 1011,0 hPa 0,0 l/m 5,5 km/h (1 Bft) SW 230 0 min 0,000 mm 0,0 UV-I 155 W/m 4,3 C 6,8 C 6,4 km/h (2 Bft) 100,00 %
15.02.2016 15:03 6,8 C 83 % 1011,0 hPa 0,0 l/m 3,1 km/h (1 Bft) SW 225 0 min 0,000 mm 0,0 UV-I 151 W/m 4,1 C 6,8 C 4,8 km/h (1 Bft) 100,00 %
15.02.2016 15:04 6,8 C 84 % 1011,0 hPa 0,0 l/m 4,3 km/h (1 Bft) W-SW 240 0 min 0,000 mm 0,0 UV-I 143 W/m 4,3 C 6,8 C 6,4 km/h (2 Bft) 93,33 %
15.02.2016 15:05 6,8 C 84 % 1011,1 hPa 0,0 l/m 4,9 km/h (1 Bft) SW 217 0 min 0,000 mm 0,0 UV-I 134 W/m 4,3 C 6,8 C 6,4 km/h (2 Bft) 100,00 %
15.02.2016 15:06 6,8 C 84 % 1011,1 hPa 0,0 l/m 4,1 km/h (1 Bft) SW 225 0 min 0,000 mm 0,0 UV-I 127 W/m 4,3 C 6,8 C 6,4 km/h (2 Bft) 100,00 %
15.02.2016 15:07 6,9 C 84 % 1011,1 hPa 0,0 l/m 4,2 km/h (1 Bft) SW 225 0 min 0,000 mm 0,0 UV-I 120 W/m 4,4 C 6,9 C 6,4 km/h (2 Bft) 100,00 %
15.02.2016 15:08 6,8 C 84 % 1011,1 hPa 0,0 l/m 5,4 km/h (1 Bft) W-SW 240 0 min 0,000 mm 0,0 UV-I 117 W/m 4,3 C 6,8 C 6,4 km/h (2 Bft) 100,00 %
15.02.2016 15:09 6,8 C 84 % 1011,1 hPa 0,0 l/m 4,2 km/h (1 Bft) W-SW 240 0 min 0,000 mm 0,0 UV-I 116 W/m 4,3 C 6,8 C 6,4 km/h (2 Bft) 100,00 %
15.02.2016 15:10 6,9 C 84 % 1011,1 hPa 0,0 l/m 1,7 km/h (1 Bft) W-SW 240 0 min 0,000 mm 0,0 UV-I 117 W/m 4,4 C 6,9 C 3,2 km/h (1 Bft) 100,00 %
15.02.2016 15:11 6,8 C 84 % 1011,2 hPa 0,0 l/m 5,0 km/h (1 Bft) W-SW 258 0 min 0,000 mm 0,0 UV-I 120 W/m 4,3 C 6,8 C 6,4 km/h (2 Bft) 100,00 %
15.02.2016 15:12 6,9 C 84 % 1011,2 hPa 0,0 l/m 2,7 km/h (1 Bft) W-SW 256 0 min 0,000 mm 0,0 UV-I 120 W/m 4,4 C 6,9 C 6,4 km/h (2 Bft) 100,00 %
15.02.2016 15:13 6,8 C 84 % 1011,2 hPa 0,0 l/m 2,2 km/h (1 Bft) W-NW 297 0 min 0,000 mm 0,0 UV-I 120 W/m 4,3 C 6,8 C 4,8 km/h (1 Bft) 100,00 %
15.02.2016 15:14 6,9 C 84 % 1011,2 hPa 0,0 l/m 3,8 km/h (1 Bft) W 271 0 min 0,000 mm 0,0 UV-I 119 W/m 4,4 C 6,9 C 4,8 km/h (1 Bft) 96,15 %
15.02.2016 15:15 6,9 C 84 % 1011,2 hPa 0,0 l/m 1,9 km/h (1 Bft) W 271 0 min 0,000 mm 0,0 UV-I 115 W/m 4,4 C 6,9 C 3,2 km/h (1 Bft) 100,00 %
15.02.2016 15:16 6,9 C 84 % 1011,2 hPa 0,0 l/m 1,1 km/h (1 Bft) W 271 0 min 0,000 mm 0,0 UV-I 112 W/m 4,4 C 6,9 C 1,6 km/h (1 Bft) 100,00 %
15.02.2016 15:17 6,9 C 83 % 1011,2 hPa 0,0 l/m 3,0 km/h (1 Bft) W-NW 285 0 min 0,000 mm 0,0 UV-I 107 W/m 4,2 C 6,9 C 4,8 km/h (1 Bft) 100,00 %
15.02.2016 15:18 6,9 C 84 % 1011,3 hPa 0,0 l/m 3,5 km/h (1 Bft) W 279 0 min 0,000 mm 0,0 UV-I 105 W/m 4,4 C 6,9 C 4,8 km/h (1 Bft) 100,00 %
15.02.2016 15:19 6,9 C 83 % 1011,3 hPa 0,0 l/m 3,3 km/h (1 Bft) W 279 0 min 0,000 mm 0,0 UV-I 105 W/m 4,2 C 6,9 C 4,8 km/h (1 Bft) 96,30 %
15.02.2016 15:20 6,9 C 83 % 1011,3 hPa 0,0 l/m 4,6 km/h (1 Bft) W-SW 254 0 min 0,000 mm 0,0 UV-I 107 W/m 4,2 C 6,9 C 6,4 km/h (2 Bft) 100,00 %
15.02.2016 15:21 6,9 C 83 % 1011,3 hPa 0,0 l/m 4,0 km/h (1 Bft) W-SW 250 0 min 0,000 mm 0,0 UV-I 112 W/m 4,2 C 6,9 C 6,4 km/h (2 Bft) 100,00 %
15.02.2016 15:22 6,9 C 83 % 1011,3 hPa 0,0 l/m 4,1 km/h (1 Bft) W-SW 257 0 min 0,000 mm 0,0 UV-I 118 W/m 4,2 C 6,9 C 4,8 km/h (1 Bft) 100,00 %
15.02.2016 15:23 6,9 C 83 % 1011,3 hPa 0,0 l/m 6,4 km/h (2 Bft) W 280 0 min 0,000 mm 0,0 UV-I 121 W/m 4,2 C 6,9 C 11,3 km/h (2 Bft) 100,00 %
15.02.2016 15:24 6,9 C 84 % 1011,3 hPa 0,0 l/m 3,4 km/h (1 Bft) W 280 0 min 0,000 mm 0,0 UV-I 125 W/m 4,4 C 6,9 C 4,8 km/h (1 Bft) 100,00 %
15.02.2016 15:25 6,9 C 83 % 1011,3 hPa 0,0 l/m 4,2 km/h (1 Bft) W-SW 242 0 min 0,000 mm 0,0 UV-I 125 W/m 4,2 C 6,9 C 9,7 km/h (2 Bft) 100,00 %
15.02.2016 15:26 6,9 C 82 % 1011,3 hPa 0,0 l/m 4,0 km/h (1 Bft) W 277 0 min 0,000 mm 0,0 UV-I 125 W/m 4,0 C 6,9 C 4,8 km/h (1 Bft) 98,33 %
15.02.2016 15:27 6,9 C 83 % 1011,3 hPa 0,0 l/m 3,9 km/h (1 Bft) W 270 0 min 0,000 mm 0,0 UV-I 125 W/m 4,2 C 6,9 C 4,8 km/h (1 Bft) 97,87 %
15.02.2016 15:28 6,9 C 83 % 1011,3 hPa 0,0 l/m 2,8 km/h (1 Bft) W 270 0 min 0,000 mm 0,0 UV-I 125 W/m 4,2 C 6,9 C 4,8 km/h (1 Bft) 100,00 %
15.02.2016 15:29 6,9 C 83 % 1011,4 hPa 0,0 l/m 4,3 km/h (1 Bft) W 270 0 min 0,000 mm 0,0 UV-I 123 W/m 4,2 C 6,9 C 6,4 km/h (2 Bft) 100,00 %
15.02.2016 15:30 6,9 C 83 % 1011,4 hPa 0,0 l/m 3,7 km/h (1 Bft) W 269 0 min 0,000 mm 0,0 UV-I 119 W/m 4,2 C 6,9 C 4,8 km/h (1 Bft) 100,00 %
15.02.2016 15:31 6,9 C 83 % 1011,4 hPa 0,0 l/m 5,0 km/h (1 Bft) W 270 0 min 0,000 mm 0,0 UV-I 114 W/m 4,2 C 6,9 C 6,4 km/h (2 Bft) 100,00 %
15.02.2016 15:32 6,9 C 82 % 1011,4 hPa 0,0 l/m 3,1 km/h (1 Bft) NW 311 0 min 0,000 mm 0,0 UV-I 108 W/m 4,0 C 6,9 C 4,8 km/h (1 Bft) 100,00 %
15.02.2016 15:33 6,9 C 83 % 1011,4 hPa 0,0 l/m 3,2 km/h (1 Bft) W-NW 290 0 min 0,000 mm 0,0 UV-I 105 W/m 4,2 C 6,9 C 4,8 km/h (1 Bft) 95,65 %
15.02.2016 15:34 6,9 C 82 % 1011,4 hPa 0,0 l/m 2,7 km/h (1 Bft) W-NW 290 0 min 0,000 mm 0,0 UV-I 102 W/m 4,0 C 6,9 C 4,8 km/h (1 Bft) 95,83 %
15.02.2016 15:35 6,9 C 83 % 1011,4 hPa 0,0 l/m 3,1 km/h (1 Bft) W 276 0 min 0,000 mm 0,0 UV-I 100 W/m 4,2 C 6,9 C 4,8 km/h (1 Bft) 100,00 %
15.02.2016 15:36 6,9 C 82 % 1011,4 hPa 0,0 l/m 2,0 km/h (1 Bft) W 277 0 min 0,000 mm 0,0 UV-I 98 W/m 4,0 C 6,9 C 3,2 km/h (1 Bft) 100,00 %
15.02.2016 15:37 6,9 C 83 % 1011,5 hPa 0,0 l/m 2,8 km/h (1 Bft) W-NW 292 0 min 0,000 mm 0,0 UV-I 96 W/m 4,2 C 6,9 C 4,8 km/h (1 Bft) 100,00 %
15.02.2016 15:38 6,9 C 84 % 1011,5 hPa 0,0 l/m 3,1 km/h (1 Bft) W-SW 254 0 min 0,000 mm 0,0 UV-I 93 W/m 4,4 C 6,9 C 4,8 km/h (1 Bft) 100,00 %
15.02.2016 15:39 6,9 C 83 % 1011,5 hPa 0,0 l/m 2,5 km/h (1 Bft) W-SW 254 0 min 0,000 mm 0,0 UV-I 90 W/m 4,2 C 6,9 C 3,2 km/h (1 Bft) 100,00 %
15.02.2016 15:40 6,9 C 83 % 1011,5 hPa 0,0 l/m 2,5 km/h (1 Bft) W-SW 258 0 min 0,000 mm 0,0 UV-I 90 W/m 4,2 C 6,9 C 4,8 km/h (1 Bft) 100,00 %
15.02.2016 15:41 6,9 C 84 % 1011,5 hPa 0,0 l/m 0,5 km/h (0 Bft) W 277 0 min 0,000 mm 0,0 UV-I 88 W/m 4,4 C 6,9 C 3,2 km/h (1 Bft) 100,00 %
15.02.2016 15:42 6,9 C 83 % 1011,5 hPa 0,0 l/m 4,0 km/h (1 Bft) W-NW 298 0 min 0,000 mm 0,0 UV-I 87 W/m 4,2 C 6,9 C 6,4 km/h (2 Bft) 100,00 %
15.02.2016 15:43 6,9 C 82 % 1011,5 hPa 0,0 l/m 2,7 km/h (1 Bft) NW 305 0 min 0,000 mm 0,0 UV-I 86 W/m 4,0 C 6,9 C 4,8 km/h (1 Bft) 100,00 %
15.02.2016 15:44 6,9 C 83 % 1011,6 hPa 0,0 l/m 2,0 km/h (1 Bft) W-NW 301 0 min 0,000 mm 0,0 UV-I 86 W/m 4,2 C 6,9 C 3,2 km/h (1 Bft) 95,83 %
15.02.2016 15:45 6,9 C 83 % 1011,6 hPa 0,0 l/m 3,2 km/h (1 Bft) W-NW 284 0 min 0,000 mm 0,0 UV-I 86 W/m 4,2 C 6,9 C 4,8 km/h (1 Bft) 96,15 %
15.02.2016 15:46 6,9 C 83 % 1011,6 hPa 0,0 l/m 3,9 km/h (1 Bft) S-SW 196 0 min 0,000 mm 0,0 UV-I 86 W/m 4,2 C 6,9 C 4,8 km/h (1 Bft) 100,00 %
15.02.2016 15:47 6,9 C 83 % 1011,6 hPa 0,0 l/m 4,2 km/h (1 Bft) W-SW 256 0 min 0,000 mm 0,0 UV-I 86 W/m 4,2 C 6,9 C 6,4 km/h (2 Bft) 100,00 %
15.02.2016 15:48 6,9 C 83 % 1011,6 hPa 0,0 l/m 4,7 km/h (1 Bft) W-SW 249 0 min 0,000 mm 0,0 UV-I 86 W/m 4,2 C 6,9 C 6,4 km/h (2 Bft) 100,00 %
15.02.2016 15:49 6,9 C 83 % 1011,6 hPa 0,0 l/m 3,2 km/h (1 Bft) W-SW 258 0 min 0,000 mm 0,0 UV-I 86 W/m 4,2 C 6,9 C 4,8 km/h (1 Bft) 100,00 %
15.02.2016 15:50 6,9 C 83 % 1011,6 hPa 0,0 l/m 4,3 km/h (1 Bft) W 281 0 min 0,000 mm 0,0 UV-I 86 W/m 4,2 C 6,9 C 4,8 km/h (1 Bft) 100,00 %
15.02.2016 15:51 6,9 C 83 % 1011,6 hPa 0,0 l/m 4,0 km/h (1 Bft) W 279 0 min 0,000 mm 0,0 UV-I 84 W/m 4,2 C 6,9 C 4,8 km/h (1 Bft) 93,33 %
15.02.2016 15:52 6,9 C 83 % 1011,6 hPa 0,0 l/m 3,1 km/h (1 Bft) W 279 0 min 0,000 mm 0,0 UV-I 84 W/m 4,2 C 6,9 C 4,8 km/h (1 Bft) 95,65 %
15.02.2016 15:53 6,9 C 84 % 1011,7 hPa 0,0 l/m 6,3 km/h (2 Bft) W-SW 252 0 min 0,000 mm 0,0 UV-I 84 W/m 4,4 C 6,9 C 11,3 km/h (2 Bft) 100,00 %
15.02.2016 15:54 6,9 C 83 % 1011,6 hPa 0,0 l/m 4,5 km/h (1 Bft) W-SW 246 0 min 0,000 mm 0,0 UV-I 84 W/m 4,2 C 6,9 C 8,0 km/h (2 Bft) 100,00 %
15.02.2016 15:55 6,9 C 83 % 1011,7 hPa 0,0 l/m 4,4 km/h (1 Bft) W-SW 250 0 min 0,000 mm 0,0 UV-I 83 W/m 4,2 C 6,9 C 6,4 km/h (2 Bft) 100,00 %
15.02.2016 15:56 6,9 C 83 % 1011,7 hPa 0,0 l/m 3,7 km/h (1 Bft) W 264 0 min 0,000 mm 0,0 UV-I 82 W/m 4,2 C 6,9 C 6,4 km/h (2 Bft) 98,36 %
15.02.2016 15:57 6,9 C 82 % 1011,7 hPa 0,0 l/m 2,8 km/h (1 Bft) W 265 0 min 0,000 mm 0,0 UV-I 79 W/m 4,0 C 6,9 C 4,8 km/h (1 Bft) 97,37 %
15.02.2016 15:58 6,9 C 83 % 1011,7 hPa 0,0 l/m 2,2 km/h (1 Bft) W 267 0 min 0,000 mm 0,0 UV-I 77 W/m 4,2 C 6,9 C 4,8 km/h (1 Bft) 95,65 %
15.02.2016 15:59 6,9 C 83 % 1011,7 hPa 0,0 l/m 3,9 km/h (1 Bft) W 266 0 min 0,000 mm 0,0 UV-I 77 W/m 4,2 C 6,9 C 4,8 km/h (1 Bft) 100,00 %
15.02.2016 16:00 6,9 C 83 % 1011,7 hPa 0,0 l/m 3,8 km/h (1 Bft) W 266 0 min 0,000 mm 0,0 UV-I 76 W/m 4,2 C 6,9 C 6,4 km/h (2 Bft) 94,12 %
15.02.2016 16:01 6,9 C 83 % 1011,8 hPa 0,0 l/m 2,6 km/h (1 Bft) W 266 0 min 0,050 mm 0,0 UV-I 76 W/m 4,2 C 6,9 C 3,2 km/h (1 Bft) 95,83 %
15.02.2016 16:02 6,9 C 83 % 1011,8 hPa 0,0 l/m 1,1 km/h (1 Bft) W 266 0 min 0,000 mm 0,0 UV-I 74 W/m 4,2 C 6,9 C 3,2 km/h (1 Bft) 92,31 %
15.02.2016 16:03 6,9 C 84 % 1011,8 hPa 0,0 l/m 1,3 km/h (1 Bft) W 271 0 min 0,000 mm 0,0 UV-I 74 W/m 4,4 C 6,9 C 3,2 km/h (1 Bft) 95,83 %
15.02.2016 16:04 6,9 C 84 % 1011,7 hPa 0,0 l/m 2,1 km/h (1 Bft) W 271 0 min 0,000 mm 0,0 UV-I 74 W/m 4,4 C 6,9 C 4,8 km/h (1 Bft) 100,00 %
15.02.2016 16:05 6,9 C 83 % 1011,7 hPa 0,0 l/m 3,8 km/h (1 Bft) W 271 0 min 0,000 mm 0,0 UV-I 74 W/m 4,2 C 6,9 C 6,4 km/h (2 Bft) 95,83 %
15.02.2016 16:06 6,9 C 84 % 1011,8 hPa 0,0 l/m 3,4 km/h (1 Bft) W 273 0 min 0,000 mm 0,0 UV-I 73 W/m 4,4 C 6,9 C 4,8 km/h (1 Bft) 100,00 %
15.02.2016 16:07 6,9 C 83 % 1011,8 hPa 0,0 l/m 1,8 km/h (1 Bft) W 273 0 min 0,000 mm 0,0 UV-I 72 W/m 4,2 C 6,9 C 3,2 km/h (1 Bft) 93,10 %
15.02.2016 16:08 6,9 C 84 % 1011,8 hPa 0,0 l/m 2,6 km/h (1 Bft) W 273 0 min 0,000 mm 0,0 UV-I 72 W/m 4,4 C 6,9 C 4,8 km/h (1 Bft) 100,00 %
15.02.2016 16:09 6,8 C 84 % 1011,8 hPa 0,0 l/m 2,1 km/h (1 Bft) W 273 0 min 0,000 mm 0,0 UV-I 70 W/m 4,3 C 6,8 C 3,2 km/h (1 Bft) 97,37 %
15.02.2016 16:10 6,8 C 84 % 1011,9 hPa 0,0 l/m 0,7 km/h (0 Bft) W 273 0 min 0,000 mm 0,0 UV-I 70 W/m 4,3 C 6,8 C 1,6 km/h (1 Bft) 95,83 %
15.02.2016 16:11 6,8 C 84 % 1011,9 hPa 0,0 l/m 1,1 km/h (1 Bft) W 273 0 min 0,000 mm 0,0 UV-I 70 W/m 4,3 C 6,8 C 1,6 km/h (1 Bft) 100,00 %
15.02.2016 16:12 6,9 C 84 % 1011,8 hPa 0,0 l/m 2,3 km/h (1 Bft) W 273 0 min 0,000 mm 0,0 UV-I 69 W/m 4,4 C 6,9 C 3,2 km/h (1 Bft) 95,83 %
15.02.2016 16:13 6,8 C 84 % 1011,8 hPa 0,0 l/m 4,2 km/h (1 Bft) SW 234 0 min 0,000 mm 0,0 UV-I 68 W/m 4,3 C 6,8 C 6,4 km/h (2 Bft) 100,00 %
15.02.2016 16:14 6,8 C 83 % 1011,8 hPa 0,0 l/m 3,3 km/h (1 Bft) W 266 0 min 0,000 mm 0,0 UV-I 66 W/m 4,1 C 6,8 C 4,8 km/h (1 Bft) 96,30 %
15.02.2016 16:15 6,8 C 84 % 1011,9 hPa 0,0 l/m 3,0 km/h (1 Bft) W 266 0 min 0,000 mm 0,0 UV-I 65 W/m 4,3 C 6,8 C 4,8 km/h (1 Bft) 100,00 %
15.02.2016 16:16 6,8 C 84 % 1011,9 hPa 0,0 l/m 2,3 km/h (1 Bft) W 266 0 min 0,000 mm 0,0 UV-I 63 W/m 4,3 C 6,8 C 3,2 km/h (1 Bft) 100,00 %
15.02.2016 16:17 6,8 C 84 % 1011,8 hPa 0,0 l/m 0,9 km/h (0 Bft) W 266 0 min 0,000 mm 0,0 UV-I 61 W/m 4,3 C 6,8 C 1,6 km/h (1 Bft) 95,12 %
15.02.2016 16:18 6,8 C 84 % 1011,9 hPa 0,0 l/m 1,0 km/h (0 Bft) W 266 0 min 0,000 mm 0,0 UV-I 59 W/m 4,3 C 6,8 C 1,6 km/h (1 Bft) 95,83 %
15.02.2016 16:19 6,8 C 84 % 1011,9 hPa 0,0 l/m 1,0 km/h (0 Bft) W 266 0 min 0,000 mm 0,0 UV-I 58 W/m 4,3 C 6,8 C 3,2 km/h (1 Bft) 96,15 %
15.02.2016 16:20 6,8 C 84 % 1012,0 hPa 0,0 l/m 1,9 km/h (1 Bft) W 266 0 min 0,000 mm 0,0 UV-I 56 W/m 4,3 C 6,8 C 3,2 km/h (1 Bft) 100,00 %
15.02.2016 16:21 6,8 C 84 % 1012,0 hPa 0,0 l/m 0,8 km/h (0 Bft) W 266 0 min 0,000 mm 0,0 UV-I 54 W/m 4,3 C 6,8 C 3,2 km/h (1 Bft) 96,15 %
15.02.2016 16:22 6,8 C 85 % 1012,1 hPa 0,0 l/m 1,3 km/h (1 Bft) W 266 0 min 0,000 mm 0,0 UV-I 53 W/m 4,5 C 6,8 C 1,6 km/h (1 Bft) 100,00 %
15.02.2016 16:23 6,8 C 85 % 1012,0 hPa 0,0 l/m 1,6 km/h (1 Bft) W 266 0 min 0,000 mm 0,0 UV-I 52 W/m 4,5 C 6,8 C 3,2 km/h (1 Bft) 95,65 %
15.02.2016 16:24 6,8 C 85 % 1012,0 hPa 0,0 l/m 1,6 km/h (1 Bft) W 266 0 min 0,000 mm 0,0 UV-I 51 W/m 4,5 C 6,8 C 3,2 km/h (1 Bft) 100,00 %
15.02.2016 16:25 6,8 C 85 % 1012,1 hPa 0,0 l/m 2,0 km/h (1 Bft) W 266 0 min 0,000 mm 0,0 UV-I 50 W/m 4,5 C 6,8 C 4,8 km/h (1 Bft) 91,67 %
15.02.2016 16:26 6,8 C 84 % 1012,1 hPa 0,0 l/m 4,9 km/h (1 Bft) W 265 0 min 0,000 mm 0,0 UV-I 49 W/m 4,3 C 6,8 C 6,4 km/h (2 Bft) 95,65 %
15.02.2016 16:27 6,8 C 84 % 1012,1 hPa 0,0 l/m 2,3 km/h (1 Bft) W 265 0 min 0,000 mm 0,0 UV-I 47 W/m 4,3 C 6,8 C 3,2 km/h (1 Bft) 96,30 %
15.02.2016 16:28 6,8 C 84 % 1012,2 hPa 0,0 l/m 2,1 km/h (1 Bft) W 265 0 min 0,000 mm 0,0 UV-I 47 W/m 4,3 C 6,8 C 3,2 km/h (1 Bft) 96,15 %
15.02.2016 16:29 6,8 C 84 % 1012,1 hPa 0,0 l/m 1,0 km/h (0 Bft) W 265 0 min 0,000 mm 0,0 UV-I 46 W/m 4,3 C 6,8 C 1,6 km/h (1 Bft) 100,00 %
15.02.2016 16:30 6,8 C 84 % 1012,1 hPa 0,0 l/m 0,9 km/h (0 Bft) W 265 0 min 0,000 mm 0,0 UV-I 45 W/m 4,3 C 6,8 C 1,6 km/h (1 Bft) 100,00 %
15.02.2016 16:31 6,8 C 84 % 1012,1 hPa 0,0 l/m 2,2 km/h (1 Bft) W 265 0 min 0,000 mm 0,0 UV-I 44 W/m 4,3 C 6,8 C 3,2 km/h (1 Bft) 96,30 %
15.02.2016 16:32 6,8 C 84 % 1012,2 hPa 0,0 l/m 1,7 km/h (1 Bft) W 265 0 min 0,000 mm 0,0 UV-I 44 W/m 4,3 C 6,8 C 3,2 km/h (1 Bft) 95,65 %
15.02.2016 16:33 6,8 C 84 % 1012,2 hPa 0,0 l/m 3,0 km/h (1 Bft) W 265 0 min 0,000 mm 0,0 UV-I 42 W/m 4,3 C 6,8 C 4,8 km/h (1 Bft) 100,00 %
15.02.2016 16:34 6,8 C 83 % 1012,2 hPa 0,0 l/m 1,9 km/h (1 Bft) W 265 0 min 0,000 mm 0,0 UV-I 42 W/m 4,1 C 6,8 C 3,2 km/h (1 Bft) 95,65 %
15.02.2016 16:35 6,8 C 84 % 1012,2 hPa 0,0 l/m 2,4 km/h (1 Bft) W 265 0 min 0,000 mm 0,0 UV-I 41 W/m 4,3 C 6,8 C 3,2 km/h (1 Bft) 100,00 %
15.02.2016 16:36 6,8 C 84 % 1012,2 hPa 0,0 l/m 1,9 km/h (1 Bft) W 265 0 min 0,000 mm 0,0 UV-I 40 W/m 4,3 C 6,8 C 3,2 km/h (1 Bft) 100,00 %
15.02.2016 16:37 6,7 C 84 % 1012,2 hPa 0,0 l/m 2,3 km/h (1 Bft) W 265 0 min 0,000 mm 0,0 UV-I 40 W/m 4,2 C 6,7 C 3,2 km/h (1 Bft) 100,00 %
15.02.2016 16:38 6,7 C 84 % 1012,3 hPa 0,0 l/m 2,4 km/h (1 Bft) W 265 0 min 0,000 mm 0,0 UV-I 40 W/m 4,2 C 6,7 C 3,2 km/h (1 Bft) 100,00 %
15.02.2016 16:39 6,7 C 85 % 1012,3 hPa 0,0 l/m 2,6 km/h (1 Bft) W 265 0 min 0,000 mm 0,0 UV-I 39 W/m 4,4 C 6,7 C 3,2 km/h (1 Bft) 100,00 %
15.02.2016 16:40 6,7 C 84 % 1012,3 hPa 0,0 l/m 2,3 km/h (1 Bft) W 265 0 min 0,000 mm 0,0 UV-I 39 W/m 4,2 C 6,7 C 3,2 km/h (1 Bft) 100,00 %
15.02.2016 16:41 6,7 C 85 % 1012,3 hPa 0,0 l/m 2,5 km/h (1 Bft) W 265 0 min 0,000 mm 0,0 UV-I 38 W/m 4,4 C 6,7 C 3,2 km/h (1 Bft) 100,00 %
15.02.2016 16:42 6,7 C 84 % 1012,3 hPa 0,0 l/m 1,4 km/h (1 Bft) W 265 0 min 0,000 mm 0,0 UV-I 37 W/m 4,2 C 6,7 C 3,2 km/h (1 Bft) 100,00 %
15.02.2016 16:43 6,7 C 84 % 1012,4 hPa 0,0 l/m 0,5 km/h (0 Bft) W 265 0 min 0,000 mm 0,0 UV-I 36 W/m 4,2 C 6,7 C 1,6 km/h (1 Bft) 95,83 %
15.02.2016 16:44 6,7 C 85 % 1012,4 hPa 0,0 l/m 0,6 km/h (0 Bft) W 265 0 min 0,000 mm 0,0 UV-I 33 W/m 4,4 C 6,7 C 1,6 km/h (1 Bft) 100,00 %
15.02.2016 16:45 6,7 C 85 % 1012,4 hPa 0,0 l/m 1,1 km/h (1 Bft) W 265 0 min 0,000 mm 0,0 UV-I 33 W/m 4,4 C 6,7 C 3,2 km/h (1 Bft) 100,00 %
15.02.2016 16:46 6,7 C 85 % 1012,4 hPa 0,0 l/m 1,1 km/h (1 Bft) W 265 0 min 0,000 mm 0,0 UV-I 32 W/m 4,4 C 6,7 C 3,2 km/h (1 Bft) 91,67 %
15.02.2016 16:47 6,7 C 85 % 1012,5 hPa 0,0 l/m 0,8 km/h (0 Bft) W 265 0 min 0,000 mm 0,0 UV-I 29 W/m 4,4 C 6,7 C 1,6 km/h (1 Bft) 100,00 %
15.02.2016 16:48 6,7 C 85 % 1012,5 hPa 0,0 l/m 0,4 km/h (0 Bft) W 265 0 min 0,000 mm 0,0 UV-I 27 W/m 4,4 C 6,7 C 1,6 km/h (1 Bft) 97,44 %
15.02.2016 16:49 6,7 C 85 % 1012,5 hPa 0,0 l/m 0,0 km/h (0 Bft) W 265 0 min 0,000 mm 0,0 UV-I 26 W/m 4,4 C 6,7 C 0,0 km/h (0 Bft) 100,00 %
15.02.2016 16:50 6,7 C 85 % 1012,5 hPa 0,0 l/m 0,0 km/h (0 Bft) W 265 0 min 0,000 mm 0,0 UV-I 25 W/m 4,4 C 6,7 C 0,0 km/h (0 Bft) 100,00 %
15.02.2016 16:51 6,7 C 85 % 1012,6 hPa 0,0 l/m 0,0 km/h (0 Bft) W 265 0 min 0,000 mm 0,0 UV-I 25 W/m 4,4 C 6,7 C 0,0 km/h (0 Bft) 100,00 %
15.02.2016 16:52 6,7 C 85 % 1012,6 hPa 0,0 l/m 0,0 km/h (0 Bft) W 265 0 min 0,000 mm 0,0 UV-I 23 W/m 4,4 C 6,7 C 0,0 km/h (0 Bft) 95,83 %
15.02.2016 16:53 6,7 C 85 % 1012,6 hPa 0,0 l/m 0,1 km/h (0 Bft) W 265 0 min 0,000 mm 0,0 UV-I 22 W/m 4,4 C 6,7 C 1,6 km/h (1 Bft) 100,00 %
15.02.2016 16:54 6,6 C 85 % 1012,6 hPa 0,0 l/m 0,0 km/h (0 Bft) W 265 0 min 0,000 mm 0,0 UV-I 21 W/m 4,3 C 6,6 C 0,0 km/h (0 Bft) 100,00 %
15.02.2016 16:55 6,7 C 85 % 1012,6 hPa 0,0 l/m 0,0 km/h (0 Bft) W 265 0 min 0,000 mm 0,0 UV-I 20 W/m 4,4 C 6,7 C 0,0 km/h (0 Bft) 100,00 %
15.02.2016 16:56 6,6 C 85 % 1012,6 hPa 0,0 l/m 0,0 km/h (0 Bft) W 265 0 min 0,000 mm 0,0 UV-I 19 W/m 4,3 C 6,6 C 0,0 km/h (0 Bft) 95,83 %
15.02.2016 16:57 6,6 C 85 % 1012,6 hPa 0,0 l/m 0,0 km/h (0 Bft) W 265 0 min 0,000 mm 0,0 UV-I 18 W/m 4,3 C 6,6 C 0,0 km/h (0 Bft) 98,31 %
15.02.2016 16:58 6,6 C 85 % 1012,7 hPa 0,0 l/m 0,0 km/h (0 Bft) W 265 0 min 0,000 mm 0,0 UV-I 18 W/m 4,3 C 6,6 C 0,0 km/h (0 Bft) 100,00 %
15.02.2016 16:59 6,6 C 85 % 1012,7 hPa 0,0 l/m 0,0 km/h (0 Bft) W 266 0 min 0,000 mm 0,0 UV-I 17 W/m 4,3 C 6,6 C 0,0 km/h (0 Bft) 96,15 %
15.02.2016 17:00 6,6 C 85 % 1012,7 hPa 0,0 l/m 0,7 km/h (0 Bft) W 265 0 min 0,000 mm 0,0 UV-I 16 W/m 4,3 C 6,6 C 1,6 km/h (1 Bft) 100,00 %
15.02.2016 17:01 6,6 C 85 % 1012,7 hPa 0,0 l/m 0,8 km/h (0 Bft) W 265 0 min 0,026 mm 0,0 UV-I 16 W/m 4,3 C 6,6 C 1,6 km/h (1 Bft) 100,00 %
15.02.2016 17:02 6,6 C 85 % 1012,7 hPa 0,0 l/m 0,9 km/h (0 Bft) W 265 0 min 0,000 mm 0,0 UV-I 16 W/m 4,3 C 6,6 C 1,6 km/h (1 Bft) 100,00 %
15.02.2016 17:03 6,6 C 85 % 1012,7 hPa 0,0 l/m 1,1 km/h (1 Bft) W 265 0 min 0,000 mm 0,0 UV-I 14 W/m 4,3 C 6,6 C 1,6 km/h (1 Bft) 95,65 %
15.02.2016 17:04 6,6 C 85 % 1012,8 hPa 0,0 l/m 0,8 km/h (0 Bft) W 265 0 min 0,000 mm 0,0 UV-I 14 W/m 4,3 C 6,6 C 1,6 km/h (1 Bft) 100,00 %
15.02.2016 17:05 6,6 C 85 % 1012,8 hPa 0,0 l/m 0,5 km/h (0 Bft) W 265 0 min 0,000 mm 0,0 UV-I 14 W/m 4,3 C 6,6 C 1,6 km/h (1 Bft) 95,83 %
15.02.2016 17:06 6,6 C 86 % 1012,8 hPa 0,0 l/m 0,7 km/h (0 Bft) W 265 0 min 0,000 mm 0,0 UV-I 13 W/m 4,4 C 6,6 C 1,6 km/h (1 Bft) 100,00 %
15.02.2016 17:07 6,5 C 86 % 1012,8 hPa 0,0 l/m 0,1 km/h (0 Bft) W 265 0 min 0,000 mm 0,0 UV-I 12 W/m 4,3 C 6,5 C 1,6 km/h (1 Bft) 100,00 %
15.02.2016 17:08 6,5 C 86 % 1012,8 hPa 0,0 l/m 0,3 km/h (0 Bft) W 265 0 min 0,000 mm 0,0 UV-I 12 W/m 4,3 C 6,5 C 1,6 km/h (1 Bft) 100,00 %
15.02.2016 17:09 6,5 C 86 % 1012,8 hPa 0,0 l/m 0,5 km/h (0 Bft) W 265 0 min 0,000 mm 0,0 UV-I 11 W/m 4,3 C 6,5 C 1,6 km/h (1 Bft) 100,00 %
15.02.2016 17:10 6,5 C 86 % 1012,8 hPa 0,0 l/m 1,5 km/h (1 Bft) W 265 0 min 0,000 mm 0,0 UV-I 10 W/m 4,3 C 6,5 C 3,2 km/h (1 Bft) 100,00 %
15.02.2016 17:11 6,4 C 86 % 1012,8 hPa 0,0 l/m 1,0 km/h (0 Bft) W 265 0 min 0,000 mm 0,0 UV-I 9 W/m 4,2 C 6,4 C 1,6 km/h (1 Bft) 100,00 %
15.02.2016 17:12 6,4 C 87 % 1012,9 hPa 0,0 l/m 0,9 km/h (0 Bft) W 265 0 min 0,000 mm 0,0 UV-I 9 W/m 4,4 C 6,4 C 1,6 km/h (1 Bft) 100,00 %
15.02.2016 17:13 6,4 C 87 % 1012,8 hPa 0,0 l/m 1,0 km/h (0 Bft) W 265 0 min 0,000 mm 0,0 UV-I 8 W/m 4,4 C 6,4 C 1,6 km/h (1 Bft) 100,00 %
15.02.2016 17:14 6,4 C 87 % 1012,8 hPa 0,0 l/m 1,2 km/h (1 Bft) W 265 0 min 0,000 mm 0,0 UV-I 7 W/m 4,4 C 6,4 C 1,6 km/h (1 Bft) 92,86 %
15.02.2016 17:15 6,3 C 87 % 1012,9 hPa 0,0 l/m 1,3 km/h (1 Bft) W 265 0 min 0,000 mm 0,0 UV-I 7 W/m 4,3 C 6,3 C 3,2 km/h (1 Bft) 100,00 %
15.02.2016 17:16 6,3 C 87 % 1012,9 hPa 0,0 l/m 1,5 km/h (1 Bft) W 265 0 min 0,000 mm 0,0 UV-I 5 W/m 4,3 C 6,3 C 1,6 km/h (1 Bft) 100,00 %
15.02.2016 17:17 6,3 C 88 % 1012,9 hPa 0,0 l/m 1,6 km/h (1 Bft) W 265 0 min 0,000 mm 0,0 UV-I 5 W/m 4,5 C 6,3 C 1,6 km/h (1 Bft) 100,00 %
15.02.2016 17:18 6,2 C 89 % 1012,9 hPa 0,0 l/m 1,9 km/h (1 Bft) W 265 0 min 0,000 mm 0,0 UV-I 5 W/m 4,5 C 6,2 C 3,2 km/h (1 Bft) 100,00 %
15.02.2016 17:19 6,1 C 89 % 1013,0 hPa 0,0 l/m 0,8 km/h (0 Bft) W 265 0 min 0,000 mm 0,0 UV-I 5 W/m 4,4 C 6,1 C 1,6 km/h (1 Bft) 100,00 %
15.02.2016 17:20 6,1 C 89 % 1013,0 hPa 0,0 l/m 0,2 km/h (0 Bft) W 265 0 min 0,000 mm 0,0 UV-I 0 W/m 4,4 C 6,1 C 1,6 km/h (1 Bft) 100,00 %
15.02.2016 17:21 6,0 C 90 % 1013,1 hPa 0,0 l/m 0,3 km/h (0 Bft) W 265 0 min 0,000 mm 0,0 UV-I 0 W/m 4,5 C 6,0 C 1,6 km/h (1 Bft) 100,00 %
15.02.2016 17:22 5,9 C 90 % 1013,1 hPa 0,0 l/m 1,3 km/h (1 Bft) W 265 0 min 0,000 mm 0,0 UV-I 0 W/m 4,4 C 5,9 C 1,6 km/h (1 Bft) 100,00 %
15.02.2016 17:23 5,9 C 90 % 1013,1 hPa 0,0 l/m 0,6 km/h (0 Bft) W 265 0 min 0,000 mm 0,0 UV-I 0 W/m 4,4 C 5,9 C 1,6 km/h (1 Bft) 100,00 %
15.02.2016 17:24 5,8 C 90 % 1013,1 hPa 0,0 l/m 1,9 km/h (1 Bft) W 265 0 min 0,000 mm 0,0 UV-I 0 W/m 4,3 C 5,8 C 3,2 km/h (1 Bft) 100,00 %
15.02.2016 17:25 5,8 C 90 % 1013,1 hPa 0,0 l/m 1,8 km/h (1 Bft) W 265 0 min 0,000 mm 0,0 UV-I 0 W/m 4,3 C 5,8 C 3,2 km/h (1 Bft) 100,00 %
15.02.2016 17:26 5,8 C 91 % 1013,2 hPa 0,0 l/m 0,9 km/h (0 Bft) W 265 0 min 0,000 mm 0,0 UV-I 0 W/m 4,4 C 5,8 C 1,6 km/h (1 Bft) 100,00 %
15.02.2016 17:27 5,7 C 91 % 1013,2 hPa 0,0 l/m 1,8 km/h (1 Bft) W 265 0 min 0,000 mm 0,0 UV-I 0 W/m 4,3 C 5,7 C 3,2 km/h (1 Bft) 100,00 %
15.02.2016 17:28 5,7 C 91 % 1013,2 hPa 0,0 l/m 2,4 km/h (1 Bft) W 265 0 min 0,000 mm 0,0 UV-I 0 W/m 4,3 C 5,7 C 3,2 km/h (1 Bft) 100,00 %
15.02.2016 17:29 5,7 C 91 % 1013,2 hPa 0,0 l/m 1,9 km/h (1 Bft) W 265 0 min 0,000 mm 0,0 UV-I 0 W/m 4,3 C 5,7 C 3,2 km/h (1 Bft) 96,15 %
15.02.2016 17:30 5,7 C 91 % 1013,2 hPa 0,0 l/m 1,4 km/h (1 Bft) W 265 0 min 0,000 mm 0,0 UV-I 0 W/m 4,3 C 5,7 C 3,2 km/h (1 Bft) 100,00 %
15.02.2016 17:31 5,7 C 91 % 1013,3 hPa 0,0 l/m 0,1 km/h (0 Bft) W 265 0 min 0,000 mm 0,0 UV-I 0 W/m 4,3 C 5,7 C 1,6 km/h (1 Bft) 100,00 %
15.02.2016 17:32 5,7 C 91 % 1013,3 hPa 0,0 l/m 0,9 km/h (0 Bft) W 265 0 min 0,000 mm 0,0 UV-I 0 W/m 4,3 C 5,7 C 1,6 km/h (1 Bft) 100,00 %
15.02.2016 17:33 5,7 C 91 % 1013,4 hPa 0,0 l/m 0,3 km/h (0 Bft) W 265 0 min 0,000 mm 0,0 UV-I 0 W/m 4,3 C 5,7 C 1,6 km/h (1 Bft) 100,00 %
15.02.2016 17:34 5,7 C 91 % 1013,4 hPa 0,0 l/m 1,5 km/h (1 Bft) W 265 0 min 0,000 mm 0,0 UV-I 0 W/m 4,3 C 5,7 C 3,2 km/h (1 Bft) 93,33 %
15.02.2016 17:35 5,7 C 91 % 1013,4 hPa 0,0 l/m 0,8 km/h (0 Bft) W 265 0 min 0,000 mm 0,0 UV-I 0 W/m 4,3 C 5,7 C 1,6 km/h (1 Bft) 96,15 %
15.02.2016 17:36 5,6 C 91 % 1013,4 hPa 0,0 l/m 0,8 km/h (0 Bft) W 265 0 min 0,000 mm 0,0 UV-I 0 W/m 4,2 C 5,6 C 1,6 km/h (1 Bft) 100,00 %
15.02.2016 17:37 5,6 C 91 % 1013,4 hPa 0,0 l/m 1,5 km/h (1 Bft) W 265 0 min 0,000 mm 0,0 UV-I 0 W/m 4,2 C 5,6 C 3,2 km/h (1 Bft) 100,00 %
15.02.2016 17:38 5,6 C 91 % 1013,4 hPa 0,0 l/m 1,6 km/h (1 Bft) W 265 0 min 0,000 mm 0,0 UV-I 0 W/m 4,2 C 5,6 C 1,6 km/h (1 Bft) 98,36 %
15.02.2016 17:40 5,6 C 91 % 1013,5 hPa 0,0 l/m 1,4 km/h (1 Bft) W 265 0 min 0,000 mm 0,0 UV-I 0 W/m 4,2 C 5,6 C 1,6 km/h (1 Bft) 100,00 %
15.02.2016 17:41 5,6 C 91 % 1013,5 hPa 0,0 l/m 1,8 km/h (1 Bft) W 265 0 min 0,000 mm 0,0 UV-I 0 W/m 4,2 C 5,6 C 3,2 km/h (1 Bft) 98,36 %
15.02.2016 17:42 5,6 C 91 % 1013,5 hPa 0,0 l/m 2,1 km/h (1 Bft) W 265 0 min 0,000 mm 0,0 UV-I 0 W/m 4,2 C 5,6 C 3,2 km/h (1 Bft) 100,00 %
15.02.2016 17:43 5,6 C 91 % 1013,5 hPa 0,0 l/m 1,1 km/h (1 Bft) W 265 0 min 0,000 mm 0,0 UV-I 0 W/m 4,2 C 5,6 C 1,6 km/h (1 Bft) 100,00 %
15.02.2016 17:44 5,6 C 91 % 1013,6 hPa 0,0 l/m 0,5 km/h (0 Bft) W 265 0 min 0,000 mm 0,0 UV-I 0 W/m 4,2 C 5,6 C 1,6 km/h (1 Bft) 96,30 %
15.02.2016 17:45 5,6 C 91 % 1013,6 hPa 0,0 l/m 0,5 km/h (0 Bft) W 265 0 min 0,000 mm 0,0 UV-I 0 W/m 4,2 C 5,6 C 1,6 km/h (1 Bft) 96,15 %
15.02.2016 17:46 5,5 C 91 % 1013,7 hPa 0,0 l/m 1,2 km/h (1 Bft) W 265 0 min 0,000 mm 0,0 UV-I 0 W/m 4,2 C 5,5 C 1,6 km/h (1 Bft) 100,00 %
15.02.2016 17:47 5,5 C 91 % 1013,7 hPa 0,0 l/m 1,9 km/h (1 Bft) W 265 0 min 0,000 mm 0,0 UV-I 0 W/m 4,2 C 5,5 C 3,2 km/h (1 Bft) 100,00 %
15.02.2016 17:48 5,5 C 91 % 1013,7 hPa 0,0 l/m 2,6 km/h (1 Bft) W 265 0 min 0,000 mm 0,0 UV-I 0 W/m 4,2 C 5,5 C 3,2 km/h (1 Bft) 100,00 %
15.02.2016 17:49 5,5 C 91 % 1013,7 hPa 0,0 l/m 2,0 km/h (1 Bft) W 265 0 min 0,000 mm 0,0 UV-I 0 W/m 4,2 C 5,5 C 3,2 km/h (1 Bft) 100,00 %
15.02.2016 17:50 5,5 C 91 % 1013,8 hPa 0,0 l/m 2,7 km/h (1 Bft) W 265 0 min 0,000 mm 0,0 UV-I 0 W/m 4,2 C 5,5 C 3,2 km/h (1 Bft) 100,00 %
15.02.2016 17:51 5,4 C 91 % 1013,8 hPa 0,0 l/m 2,3 km/h (1 Bft) W 265 0 min 0,000 mm 0,0 UV-I 0 W/m 4,1 C 5,4 C 3,2 km/h (1 Bft) 100,00 %
15.02.2016 17:52 5,4 C 91 % 1013,8 hPa 0,0 l/m 2,5 km/h (1 Bft) W 265 0 min 0,000 mm 0,0 UV-I 0 W/m 4,1 C 5,4 C 3,2 km/h (1 Bft) 100,00 %
15.02.2016 17:53 5,4 C 91 % 1013,8 hPa 0,0 l/m 2,2 km/h (1 Bft) W 265 0 min 0,000 mm 0,0 UV-I 0 W/m 4,1 C 5,4 C 3,2 km/h (1 Bft) 100,00 %
15.02.2016 17:54 5,4 C 91 % 1013,9 hPa 0,0 l/m 2,5 km/h (1 Bft) W 265 0 min 0,000 mm 0,0 UV-I 0 W/m 4,1 C 5,4 C 3,2 km/h (1 Bft) 100,00 %
15.02.2016 17:55 5,4 C 91 % 1013,9 hPa 0,0 l/m 2,4 km/h (1 Bft) W 265 0 min 0,000 mm 0,0 UV-I 0 W/m 4,1 C 5,4 C 3,2 km/h (1 Bft) 95,83 %
15.02.2016 17:56 5,4 C 92 % 1013,9 hPa 0,0 l/m 2,7 km/h (1 Bft) W 265 0 min 0,000 mm 0,0 UV-I 0 W/m 4,2 C 5,4 C 3,2 km/h (1 Bft) 95,65 %
15.02.2016 17:57 5,4 C 91 % 1013,9 hPa 0,0 l/m 2,9 km/h (1 Bft) W 265 0 min 0,000 mm 0,0 UV-I 0 W/m 4,1 C 5,4 C 3,2 km/h (1 Bft) 95,83 %
15.02.2016 17:58 5,4 C 91 % 1014,0 hPa 0,0 l/m 2,5 km/h (1 Bft) W 265 0 min 0,000 mm 0,0 UV-I 0 W/m 4,1 C 5,4 C 3,2 km/h (1 Bft) 100,00 %
15.02.2016 17:59 5,4 C 91 % 1014,0 hPa 0,0 l/m 2,1 km/h (1 Bft) W 265 0 min 0,000 mm 0,0 UV-I 0 W/m 4,1 C 5,4 C 3,2 km/h (1 Bft) 100,00 %
15.02.2016 18:00 5,4 C 91 % 1014,0 hPa 0,0 l/m 2,3 km/h (1 Bft) W 265 0 min 0,000 mm 0,0 UV-I 0 W/m 4,1 C 5,4 C 3,2 km/h (1 Bft) 100,00 %
15.02.2016 18:01 5,5 C 91 % 1014,0 hPa 0,0 l/m 2,3 km/h (1 Bft) W 265 0 min 0,000 mm 0,0 UV-I 0 W/m 4,2 C 5,5 C 3,2 km/h (1 Bft) 100,00 %
15.02.2016 18:02 5,5 C 91 % 1014,0 hPa 0,0 l/m 2,6 km/h (1 Bft) W 265 0 min 0,000 mm 0,0 UV-I 0 W/m 4,2 C 5,5 C 4,8 km/h (1 Bft) 93,33 %
15.02.2016 18:03 5,5 C 91 % 1014,1 hPa 0,0 l/m 1,9 km/h (1 Bft) W 265 0 min 0,000 mm 0,0 UV-I 0 W/m 4,2 C 5,5 C 3,2 km/h (1 Bft) 95,65 %
15.02.2016 18:04 5,4 C 91 % 1014,1 hPa 0,0 l/m 1,6 km/h (1 Bft) W 265 0 min 0,000 mm 0,0 UV-I 0 W/m 4,1 C 5,4 C 3,2 km/h (1 Bft) 95,83 %
15.02.2016 18:05 5,4 C 91 % 1014,1 hPa 0,0 l/m 1,5 km/h (1 Bft) W 265 0 min 0,000 mm 0,0 UV-I 0 W/m 4,1 C 5,4 C 3,2 km/h (1 Bft) 95,65 %
15.02.2016 18:06 5,4 C 91 % 1014,2 hPa 0,0 l/m 2,0 km/h (1 Bft) W 265 0 min 0,000 mm 0,0 UV-I 0 W/m 4,1 C 5,4 C 3,2 km/h (1 Bft) 100,00 %
15.02.2016 18:07 5,4 C 91 % 1014,2 hPa 0,0 l/m 1,3 km/h (1 Bft) W 265 0 min 0,000 mm 0,0 UV-I 0 W/m 4,1 C 5,4 C 1,6 km/h (1 Bft) 96,15 %
15.02.2016 18:08 5,3 C 91 % 1014,2 hPa 0,0 l/m 0,4 km/h (0 Bft) W 265 0 min 0,000 mm 0,0 UV-I 0 W/m 4,0 C 5,3 C 1,6 km/h (1 Bft) 100,00 %
15.02.2016 18:09 5,3 C 91 % 1014,3 hPa 0,0 l/m 0,2 km/h (0 Bft) W 265 0 min 0,000 mm 0,0 UV-I 0 W/m 4,0 C 5,3 C 1,6 km/h (1 Bft) 96,15 %
15.02.2016 18:10 5,3 C 91 % 1014,3 hPa 0,0 l/m 0,1 km/h (0 Bft) W 265 0 min 0,000 mm 0,0 UV-I 0 W/m 4,0 C 5,3 C 1,6 km/h (1 Bft) 100,00 %
15.02.2016 18:11 5,3 C 91 % 1014,3 hPa 0,0 l/m 0,4 km/h (0 Bft) W 265 0 min 0,000 mm 0,0 UV-I 0 W/m 4,0 C 5,3 C 1,6 km/h (1 Bft) 96,55 %
15.02.2016 18:12 5,3 C 91 % 1014,3 hPa 0,0 l/m 1,7 km/h (1 Bft) W 265 0 min 0,000 mm 0,0 UV-I 0 W/m 4,0 C 5,3 C 3,2 km/h (1 Bft) 96,30 %
15.02.2016 18:13 5,3 C 91 % 1014,4 hPa 0,0 l/m 1,3 km/h (1 Bft) W 265 0 min 0,000 mm 0,0 UV-I 0 W/m 4,0 C 5,3 C 1,6 km/h (1 Bft) 100,00 %
15.02.2016 18:14 5,3 C 91 % 1014,3 hPa 0,0 l/m 1,9 km/h (1 Bft) W 265 0 min 0,000 mm 0,0 UV-I 0 W/m 4,0 C 5,3 C 3,2 km/h (1 Bft) 100,00 %
15.02.2016 18:15 5,3 C 91 % 1014,4 hPa 0,0 l/m 1,4 km/h (1 Bft) W 265 0 min 0,000 mm 0,0 UV-I 0 W/m 4,0 C 5,3 C 3,2 km/h (1 Bft) 96,15 %
15.02.2016 18:16 5,3 C 92 % 1014,4 hPa 0,0 l/m 1,8 km/h (1 Bft) W 265 0 min 0,000 mm 0,0 UV-I 0 W/m 4,1 C 5,3 C 3,2 km/h (1 Bft) 96,30 %
15.02.2016 18:17 5,3 C 92 % 1014,4 hPa 0,0 l/m 2,3 km/h (1 Bft) W 261 0 min 0,000 mm 0,0 UV-I 0 W/m 4,1 C 5,3 C 3,2 km/h (1 Bft) 100,00 %
15.02.2016 18:18 5,3 C 92 % 1014,4 hPa 0,0 l/m 1,6 km/h (1 Bft) W 260 0 min 0,000 mm 0,0 UV-I 0 W/m 4,1 C 5,3 C 3,2 km/h (1 Bft) 96,30 %
15.02.2016 18:19 5,3 C 92 % 1014,5 hPa 0,0 l/m 2,4 km/h (1 Bft) W 260 0 min 0,000 mm 0,0 UV-I 0 W/m 4,1 C 5,3 C 3,2 km/h (1 Bft) 100,00 %
15.02.2016 18:20 5,3 C 92 % 1014,5 hPa 0,0 l/m 1,7 km/h (1 Bft) W 260 0 min 0,000 mm 0,0 UV-I 0 W/m 4,1 C 5,3 C 3,2 km/h (1 Bft) 96,30 %
15.02.2016 18:21 5,3 C 92 % 1014,5 hPa 0,0 l/m 2,2 km/h (1 Bft) W 261 0 min 0,000 mm 0,0 UV-I 0 W/m 4,1 C 5,3 C 3,2 km/h (1 Bft) 86,96 %
15.02.2016 18:22 5,3 C 91 % 1014,5 hPa 0,0 l/m 2,0 km/h (1 Bft) W 260 0 min 0,000 mm 0,0 UV-I 0 W/m 4,0 C 5,3 C 3,2 km/h (1 Bft) 100,00 %
15.02.2016 18:23 5,3 C 91 % 1014,5 hPa 0,0 l/m 2,5 km/h (1 Bft) W 260 0 min 0,000 mm 0,0 UV-I 0 W/m 4,0 C 5,3 C 3,2 km/h (1 Bft) 95,65 %
15.02.2016 18:24 5,3 C 91 % 1014,6 hPa 0,0 l/m 2,3 km/h (1 Bft) W 260 0 min 0,000 mm 0,0 UV-I 0 W/m 4,0 C 5,3 C 3,2 km/h (1 Bft) 100,00 %
15.02.2016 18:25 5,3 C 91 % 1014,6 hPa 0,0 l/m 1,5 km/h (1 Bft) W 261 0 min 0,000 mm 0,0 UV-I 0 W/m 4,0 C 5,3 C 3,2 km/h (1 Bft) 96,15 %
15.02.2016 18:26 5,4 C 91 % 1014,6 hPa 0,0 l/m 1,2 km/h (1 Bft) W 261 0 min 0,000 mm 0,0 UV-I 0 W/m 4,1 C 5,4 C 1,6 km/h (1 Bft) 98,34 %
15.02.2016 18:27 5,4 C 91 % 1014,6 hPa 0,0 l/m 1,6 km/h (1 Bft) W 261 0 min 0,000 mm 0,0 UV-I 0 W/m 4,1 C 5,4 C 3,2 km/h (1 Bft) 97,44 %
15.02.2016 18:28 5,4 C 91 % 1014,6 hPa 0,0 l/m 1,5 km/h (1 Bft) W 261 0 min 0,000 mm 0,0 UV-I 0 W/m 4,1 C 5,4 C 3,2 km/h (1 Bft) 96,15 %
15.02.2016 18:29 5,4 C 91 % 1014,7 hPa 0,0 l/m 1,6 km/h (1 Bft) W 260 0 min 0,000 mm 0,0 UV-I 0 W/m 4,1 C 5,4 C 1,6 km/h (1 Bft) 96,30 %
15.02.2016 18:30 5,3 C 91 % 1014,7 hPa 0,0 l/m 1,8 km/h (1 Bft) W 261 0 min 0,000 mm 0,0 UV-I 0 W/m 4,0 C 5,3 C 3,2 km/h (1 Bft) 96,15 %
15.02.2016 18:31 5,3 C 91 % 1014,7 hPa 0,0 l/m 1,2 km/h (1 Bft) W 261 0 min 0,000 mm 0,0 UV-I 0 W/m 4,0 C 5,3 C 1,6 km/h (1 Bft) 100,00 %
15.02.2016 18:32 5,3 C 91 % 1014,8 hPa 0,0 l/m 1,5 km/h (1 Bft) W 260 0 min 0,000 mm 0,0 UV-I 0 W/m 4,0 C 5,3 C 1,6 km/h (1 Bft) 96,15 %
15.02.2016 18:33 5,4 C 91 % 1014,8 hPa 0,0 l/m 1,6 km/h (1 Bft) W 261 0 min 0,000 mm 0,0 UV-I 0 W/m 4,1 C 5,4 C 1,6 km/h (1 Bft) 100,00 %
15.02.2016 18:34 5,4 C 91 % 1014,8 hPa 0,0 l/m 1,6 km/h (1 Bft) W 261 0 min 0,000 mm 0,0 UV-I 0 W/m 4,1 C 5,4 C 3,2 km/h (1 Bft) 96,15 %
15.02.2016 18:35 5,4 C 91 % 1014,8 hPa 0,0 l/m 1,5 km/h (1 Bft) W 261 0 min 0,000 mm 0,0 UV-I 0 W/m 4,1 C 5,4 C 1,6 km/h (1 Bft) 100,00 %
15.02.2016 18:36 5,4 C 91 % 1014,8 hPa 0,0 l/m 1,9 km/h (1 Bft) W 261 0 min 0,000 mm 0,0 UV-I 0 W/m 4,1 C 5,4 C 3,2 km/h (1 Bft) 95,65 %
15.02.2016 18:37 5,4 C 91 % 1014,8 hPa 0,0 l/m 1,7 km/h (1 Bft) W 261 0 min 0,000 mm 0,0 UV-I 0 W/m 4,1 C 5,4 C 3,2 km/h (1 Bft) 95,83 %
15.02.2016 18:38 5,4 C 90 % 1014,8 hPa 0,0 l/m 1,6 km/h (1 Bft) W 261 0 min 0,000 mm 0,0 UV-I 0 W/m 3,9 C 5,4 C 1,6 km/h (1 Bft) 100,00 %
15.02.2016 18:39 5,3 C 90 % 1014,9 hPa 0,0 l/m 0,8 km/h (0 Bft) W 261 0 min 0,000 mm 0,0 UV-I 0 W/m 3,8 C 5,3 C 1,6 km/h (1 Bft) 92,59 %
15.02.2016 18:40 5,3 C 91 % 1014,9 hPa 0,0 l/m 2,0 km/h (1 Bft) W 261 0 min 0,000 mm 0,0 UV-I 0 W/m 4,0 C 5,3 C 3,2 km/h (1 Bft) 100,00 %
15.02.2016 18:41 5,3 C 91 % 1014,9 hPa 0,0 l/m 1,9 km/h (1 Bft) W 261 0 min 0,000 mm 0,0 UV-I 0 W/m 4,0 C 5,3 C 3,2 km/h (1 Bft) 100,00 %
15.02.2016 18:42 5,2 C 91 % 1014,9 hPa 0,0 l/m 2,2 km/h (1 Bft) W 261 0 min 0,000 mm 0,0 UV-I 0 W/m 3,9 C 5,2 C 3,2 km/h (1 Bft) 100,00 %
15.02.2016 18:43 5,2 C 91 % 1014,9 hPa 0,0 l/m 1,9 km/h (1 Bft) W 260 0 min 0,000 mm 0,0 UV-I 0 W/m 3,9 C 5,2 C 3,2 km/h (1 Bft) 100,00 %
15.02.2016 18:44 5,2 C 91 % 1014,9 hPa 0,0 l/m 2,6 km/h (1 Bft) W 260 0 min 0,000 mm 0,0 UV-I 0 W/m 3,9 C 5,2 C 3,2 km/h (1 Bft) 100,00 %
15.02.2016 18:45 5,2 C 91 % 1015,0 hPa 0,0 l/m 2,4 km/h (1 Bft) W 260 0 min 0,000 mm 0,0 UV-I 0 W/m 3,9 C 5,2 C 3,2 km/h (1 Bft) 100,00 %
15.02.2016 18:46 5,2 C 92 % 1015,0 hPa 0,0 l/m 2,5 km/h (1 Bft) W 260 0 min 0,000 mm 0,0 UV-I 0 W/m 4,0 C 5,2 C 3,2 km/h (1 Bft) 96,30 %
15.02.2016 18:47 5,2 C 92 % 1015,0 hPa 0,0 l/m 2,3 km/h (1 Bft) W 261 0 min 0,000 mm 0,0 UV-I 0 W/m 4,0 C 5,2 C 3,2 km/h (1 Bft) 95,65 %
15.02.2016 18:48 5,1 C 92 % 1015,0 hPa 0,0 l/m 2,1 km/h (1 Bft) W 261 0 min 0,000 mm 0,0 UV-I 0 W/m 3,9 C 5,1 C 3,2 km/h (1 Bft) 93,33 %
15.02.2016 18:49 5,1 C 92 % 1015,0 hPa 0,0 l/m 2,0 km/h (1 Bft) W 260 0 min 0,000 mm 0,0 UV-I 0 W/m 3,9 C 5,1 C 3,2 km/h (1 Bft) 100,00 %
15.02.2016 18:50 5,1 C 92 % 1015,1 hPa 0,0 l/m 1,2 km/h (1 Bft) W 260 0 min 0,000 mm 0,0 UV-I 0 W/m 3,9 C 5,1 C 3,2 km/h (1 Bft) 100,00 %
15.02.2016 18:51 5,1 C 92 % 1015,1 hPa 0,0 l/m 0,9 km/h (0 Bft) W 260 0 min 0,000 mm 0,0 UV-I 0 W/m 3,9 C 5,1 C 3,2 km/h (1 Bft) 100,00 %
15.02.2016 18:52 5,0 C 92 % 1015,1 hPa 0,0 l/m 0,7 km/h (0 Bft) W 260 0 min 0,000 mm 0,0 UV-I 0 W/m 3,8 C 5,0 C 3,2 km/h (1 Bft) 100,00 %
15.02.2016 18:53 5,0 C 92 % 1015,2 hPa 0,0 l/m 0,6 km/h (0 Bft) W 261 0 min 0,000 mm 0,0 UV-I 0 W/m 3,8 C 5,0 C 1,6 km/h (1 Bft) 100,00 %
15.02.2016 18:54 5,0 C 92 % 1015,2 hPa 0,0 l/m 0,1 km/h (0 Bft) W 261 0 min 0,000 mm 0,0 UV-I 0 W/m 3,8 C 5,0 C 1,6 km/h (1 Bft) 100,00 %
15.02.2016 18:55 5,0 C 92 % 1015,3 hPa 0,0 l/m 0,1 km/h (0 Bft) W 261 0 min 0,000 mm 0,0 UV-I 0 W/m 3,8 C 5,0 C 1,6 km/h (1 Bft) 96,15 %
15.02.2016 18:56 5,0 C 92 % 1015,3 hPa 0,0 l/m 0,2 km/h (0 Bft) W 260 0 min 0,000 mm 0,0 UV-I 0 W/m 3,8 C 5,0 C 1,6 km/h (1 Bft) 100,00 %
15.02.2016 18:57 5,0 C 92 % 1015,3 hPa 0,0 l/m 1,9 km/h (1 Bft) W 260 0 min 0,000 mm 0,0 UV-I 0 W/m 3,8 C 5,0 C 3,2 km/h (1 Bft) 100,00 %
15.02.2016 18:58 5,0 C 92 % 1015,3 hPa 0,0 l/m 0,9 km/h (0 Bft) W 260 0 min 0,000 mm 0,0 UV-I 0 W/m 3,8 C 5,0 C 3,2 km/h (1 Bft) 100,00 %
15.02.2016 18:59 5,0 C 92 % 1015,3 hPa 0,0 l/m 0,4 km/h (0 Bft) W 260 0 min 0,000 mm 0,0 UV-I 0 W/m 3,8 C 5,0 C 1,6 km/h (1 Bft) 100,00 %
15.02.2016 19:00 5,1 C 92 % 1015,4 hPa 0,0 l/m 0,4 km/h (0 Bft) W 260 0 min 0,000 mm 0,0 UV-I 0 W/m 3,9 C 5,1 C 1,6 km/h (1 Bft) 100,00 %
15.02.2016 19:01 5,1 C 92 % 1015,4 hPa 0,0 l/m 0,1 km/h (0 Bft) W 260 0 min 0,000 mm 0,0 UV-I 0 W/m 3,9 C 5,1 C 1,6 km/h (1 Bft) 100,00 %
15.02.2016 19:02 5,1 C 92 % 1015,4 hPa 0,0 l/m 1,2 km/h (1 Bft) W 260 0 min 0,000 mm 0,0 UV-I 0 W/m 3,9 C 5,1 C 1,6 km/h (1 Bft) 95,83 %
15.02.2016 19:03 5,1 C 92 % 1015,4 hPa 0,0 l/m 0,1 km/h (0 Bft) W 260 0 min 0,000 mm 0,0 UV-I 0 W/m 3,9 C 5,1 C 1,6 km/h (1 Bft) 100,00 %
15.02.2016 19:04 5,1 C 92 % 1015,4 hPa 0,0 l/m 0,8 km/h (0 Bft) W 260 0 min 0,000 mm 0,0 UV-I 0 W/m 3,9 C 5,1 C 1,6 km/h (1 Bft) 100,00 %
15.02.2016 19:05 5,1 C 92 % 1015,5 hPa 0,0 l/m 1,4 km/h (1 Bft) W 260 0 min 0,000 mm 0,0 UV-I 0 W/m 3,9 C 5,1 C 3,2 km/h (1 Bft) 100,00 %
15.02.2016 19:06 5,1 C 92 % 1015,5 hPa 0,0 l/m 1,5 km/h (1 Bft) W 260 0 min 0,000 mm 0,0 UV-I 0 W/m 3,9 C 5,1 C 3,2 km/h (1 Bft) 100,00 %
15.02.2016 19:07 5,1 C 92 % 1015,5 hPa 0,0 l/m 1,4 km/h (1 Bft) W 260 0 min 0,000 mm 0,0 UV-I 0 W/m 3,9 C 5,1 C 1,6 km/h (1 Bft) 100,00 %
15.02.2016 19:08 5,1 C 92 % 1015,5 hPa 0,0 l/m 1,5 km/h (1 Bft) W 260 0 min 0,000 mm 0,0 UV-I 0 W/m 3,9 C 5,1 C 1,6 km/h (1 Bft) 96,15 %
15.02.2016 19:09 5,1 C 92 % 1015,5 hPa 0,0 l/m 1,9 km/h (1 Bft) W 260 0 min 0,000 mm 0,0 UV-I 0 W/m 3,9 C 5,1 C 3,2 km/h (1 Bft) 100,00 %
15.02.2016 19:10 5,1 C 92 % 1015,5 hPa 0,0 l/m 2,7 km/h (1 Bft) W 260 0 min 0,000 mm 0,0 UV-I 0 W/m 3,9 C 5,1 C 3,2 km/h (1 Bft) 96,15 %
15.02.2016 19:11 5,1 C 92 % 1015,4 hPa 0,0 l/m 2,7 km/h (1 Bft) W 260 0 min 0,000 mm 0,0 UV-I 0 W/m 3,9 C 5,1 C 3,2 km/h (1 Bft) 100,00 %
15.02.2016 19:12 5,1 C 92 % 1015,4 hPa 0,0 l/m 2,8 km/h (1 Bft) W 260 0 min 0,000 mm 0,0 UV-I 0 W/m 3,9 C 5,1 C 3,2 km/h (1 Bft) 100,00 %
15.02.2016 19:13 5,1 C 92 % 1015,4 hPa 0,0 l/m 3,1 km/h (1 Bft) W 260 0 min 0,000 mm 0,0 UV-I 0 W/m 3,9 C 5,1 C 3,2 km/h (1 Bft) 100,00 %
15.02.2016 19:14 5,0 C 92 % 1015,4 hPa 0,0 l/m 3,5 km/h (1 Bft) W 260 0 min 0,000 mm 0,0 UV-I 0 W/m 3,8 C 5,0 C 4,8 km/h (1 Bft) 96,15 %
15.02.2016 19:15 5,0 C 92 % 1015,5 hPa 0,0 l/m 3,2 km/h (1 Bft) W 260 0 min 0,000 mm 0,0 UV-I 0 W/m 3,8 C 5,0 C 3,2 km/h (1 Bft) 100,00 %
15.02.2016 19:16 5,0 C 92 % 1015,5 hPa 0,0 l/m 2,6 km/h (1 Bft) W 260 0 min 0,000 mm 0,0 UV-I 0 W/m 3,8 C 5,0 C 3,2 km/h (1 Bft) 100,00 %
15.02.2016 19:17 5,0 C 92 % 1015,5 hPa 0,0 l/m 3,4 km/h (1 Bft) SW 236 0 min 0,000 mm 0,0 UV-I 0 W/m 3,8 C 5,0 C 4,8 km/h (1 Bft) 100,00 %
15.02.2016 19:18 4,9 C 92 % 1015,5 hPa 0,0 l/m 2,6 km/h (1 Bft) SW 236 0 min 0,000 mm 0,0 UV-I 0 W/m 3,7 C 4,9 C 3,2 km/h (1 Bft) 100,00 %
15.02.2016 19:19 4,9 C 92 % 1015,5 hPa 0,0 l/m 2,5 km/h (1 Bft) SW 236 0 min 0,000 mm 0,0 UV-I 0 W/m 3,7 C 4,9 C 4,8 km/h (1 Bft) 100,00 %
15.02.2016 19:20 4,9 C 92 % 1015,5 hPa 0,0 l/m 2,3 km/h (1 Bft) SW 236 0 min 0,000 mm 0,0 UV-I 0 W/m 3,7 C 4,9 C 3,2 km/h (1 Bft) 95,65 %
15.02.2016 19:21 4,9 C 92 % 1015,5 hPa 0,0 l/m 3,5 km/h (1 Bft) SW 235 0 min 0,000 mm 0,0 UV-I 0 W/m 3,7 C 4,9 C 4,8 km/h (1 Bft) 95,83 %
15.02.2016 19:22 4,9 C 92 % 1015,5 hPa 0,0 l/m 3,5 km/h (1 Bft) SW 235 0 min 0,000 mm 0,0 UV-I 0 W/m 3,7 C 4,9 C 4,8 km/h (1 Bft) 100,00 %
15.02.2016 19:23 4,9 C 92 % 1015,6 hPa 0,0 l/m 3,4 km/h (1 Bft) SW 235 0 min 0,000 mm 0,0 UV-I 0 W/m 3,7 C 4,9 C 4,8 km/h (1 Bft) 100,00 %
15.02.2016 19:24 4,9 C 92 % 1015,5 hPa 0,0 l/m 2,9 km/h (1 Bft) SW 235 0 min 0,000 mm 0,0 UV-I 0 W/m 3,7 C 4,9 C 4,8 km/h (1 Bft) 100,00 %
15.02.2016 19:25 4,9 C 92 % 1015,6 hPa 0,0 l/m 2,9 km/h (1 Bft) SW 235 0 min 0,000 mm 0,0 UV-I 0 W/m 3,7 C 4,9 C 3,2 km/h (1 Bft) 100,00 %
15.02.2016 19:26 4,9 C 92 % 1015,6 hPa 0,0 l/m 3,2 km/h (1 Bft) SW 235 0 min 0,000 mm 0,0 UV-I 0 W/m 3,7 C 4,9 C 4,8 km/h (1 Bft) 100,00 %
15.02.2016 19:27 5,0 C 92 % 1015,6 hPa 0,0 l/m 3,4 km/h (1 Bft) SW 235 0 min 0,000 mm 0,0 UV-I 0 W/m 3,8 C 5,0 C 4,8 km/h (1 Bft) 98,35 %
15.02.2016 19:28 5,0 C 92 % 1015,6 hPa 0,0 l/m 3,6 km/h (1 Bft) SW 235 0 min 0,000 mm 0,0 UV-I 0 W/m 3,8 C 5,0 C 4,8 km/h (1 Bft) 100,00 %
15.02.2016 19:29 5,0 C 92 % 1015,6 hPa 0,0 l/m 2,5 km/h (1 Bft) SW 235 0 min 0,000 mm 0,0 UV-I 0 W/m 3,8 C 5,0 C 3,2 km/h (1 Bft) 100,00 %
15.02.2016 19:30 5,0 C 92 % 1015,6 hPa 0,0 l/m 3,1 km/h (1 Bft) SW 235 0 min 0,000 mm 0,0 UV-I 0 W/m 3,8 C 5,0 C 3,2 km/h (1 Bft) 100,00 %
15.02.2016 19:31 4,9 C 92 % 1015,7 hPa 0,0 l/m 3,6 km/h (1 Bft) SW 235 0 min 0,000 mm 0,0 UV-I 0 W/m 3,7 C 4,9 C 4,8 km/h (1 Bft) 100,00 %
15.02.2016 19:32 4,9 C 92 % 1015,7 hPa 0,0 l/m 2,0 km/h (1 Bft) SW 235 0 min 0,000 mm 0,0 UV-I 0 W/m 3,7 C 4,9 C 3,2 km/h (1 Bft) 100,00 %
15.02.2016 19:33 4,9 C 92 % 1015,7 hPa 0,0 l/m 1,9 km/h (1 Bft) SW 235 0 min 0,000 mm 0,0 UV-I 0 W/m 3,7 C 4,9 C 3,2 km/h (1 Bft) 100,00 %
15.02.2016 19:34 4,9 C 92 % 1015,7 hPa 0,0 l/m 2,7 km/h (1 Bft) SW 235 0 min 0,000 mm 0,0 UV-I 0 W/m 3,7 C 4,9 C 4,8 km/h (1 Bft) 100,00 %
15.02.2016 19:35 4,9 C 92 % 1015,7 hPa 0,0 l/m 3,7 km/h (1 Bft) S-SW 195 0 min 0,000 mm 0,0 UV-I 0 W/m 3,7 C 4,9 C 4,8 km/h (1 Bft) 100,00 %
15.02.2016 19:36 4,9 C 92 % 1015,7 hPa 0,0 l/m 4,4 km/h (1 Bft) S 182 0 min 0,000 mm 0,0 UV-I 0 W/m 3,7 C 4,9 C 4,8 km/h (1 Bft) 100,00 %
15.02.2016 19:37 4,8 C 92 % 1015,8 hPa 0,0 l/m 3,2 km/h (1 Bft) S 182 0 min 0,000 mm 0,0 UV-I 0 W/m 3,6 C 4,8 C 4,8 km/h (1 Bft) 100,00 %
15.02.2016 19:38 4,8 C 92 % 1015,8 hPa 0,0 l/m 2,1 km/h (1 Bft) S 182 0 min 0,000 mm 0,0 UV-I 0 W/m 3,6 C 4,8 C 3,2 km/h (1 Bft) 100,00 %
15.02.2016 19:39 4,8 C 92 % 1015,8 hPa 0,0 l/m 3,0 km/h (1 Bft) S 182 0 min 0,000 mm 0,0 UV-I 0 W/m 3,6 C 4,8 C 3,2 km/h (1 Bft) 100,00 %
15.02.2016 19:40 4,8 C 92 % 1015,8 hPa 0,0 l/m 2,7 km/h (1 Bft) S 182 0 min 0,000 mm 0,0 UV-I 0 W/m 3,6 C 4,8 C 3,2 km/h (1 Bft) 100,00 %
15.02.2016 19:41 4,8 C 92 % 1015,8 hPa 0,0 l/m 2,6 km/h (1 Bft) S 182 0 min 0,000 mm 0,0 UV-I 0 W/m 3,6 C 4,8 C 4,8 km/h (1 Bft) 92,31 %
15.02.2016 19:42 4,7 C 92 % 1015,8 hPa 0,0 l/m 2,4 km/h (1 Bft) S 182 0 min 0,000 mm 0,0 UV-I 0 W/m 3,5 C 4,7 C 3,2 km/h (1 Bft) 100,00 %
15.02.2016 19:43 4,7 C 92 % 1015,8 hPa 0,0 l/m 2,3 km/h (1 Bft) S 182 0 min 0,000 mm 0,0 UV-I 0 W/m 3,5 C 4,7 C 3,2 km/h (1 Bft) 100,00 %
15.02.2016 19:44 4,7 C 93 % 1015,9 hPa 0,0 l/m 2,1 km/h (1 Bft) S 182 0 min 0,000 mm 0,0 UV-I 0 W/m 3,7 C 4,7 C 3,2 km/h (1 Bft) 91,67 %
15.02.2016 19:45 4,7 C 93 % 1015,8 hPa 0,0 l/m 2,8 km/h (1 Bft) S 182 0 min 0,000 mm 0,0 UV-I 0 W/m 3,7 C 4,7 C 3,2 km/h (1 Bft) 100,00 %
15.02.2016 19:46 4,6 C 93 % 1015,8 hPa 0,0 l/m 2,0 km/h (1 Bft) S 182 0 min 0,000 mm 0,0 UV-I 0 W/m 3,6 C 4,6 C 3,2 km/h (1 Bft) 100,00 %
15.02.2016 19:47 4,6 C 93 % 1015,9 hPa 0,0 l/m 2,0 km/h (1 Bft) S 182 0 min 0,000 mm 0,0 UV-I 0 W/m 3,6 C 4,6 C 3,2 km/h (1 Bft) 100,00 %
15.02.2016 19:48 4,6 C 93 % 1015,9 hPa 0,0 l/m 2,1 km/h (1 Bft) S 182 0 min 0,000 mm 0,0 UV-I 0 W/m 3,6 C 4,6 C 3,2 km/h (1 Bft) 100,00 %
15.02.2016 19:49 4,6 C 93 % 1015,9 hPa 0,0 l/m 2,0 km/h (1 Bft) S 182 0 min 0,000 mm 0,0 UV-I 0 W/m 3,6 C 4,6 C 3,2 km/h (1 Bft) 100,00 %
15.02.2016 19:50 4,6 C 93 % 1015,9 hPa 0,0 l/m 1,1 km/h (1 Bft) S 182 0 min 0,000 mm 0,0 UV-I 0 W/m 3,6 C 4,6 C 3,2 km/h (1 Bft) 100,00 %
15.02.2016 19:51 4,6 C 93 % 1015,9 hPa 0,0 l/m 1,8 km/h (1 Bft) S 182 0 min 0,000 mm 0,0 UV-I 0 W/m 3,6 C 4,6 C 3,2 km/h (1 Bft) 100,00 %
15.02.2016 19:52 4,6 C 93 % 1015,9 hPa 0,0 l/m 1,4 km/h (1 Bft) S 182 0 min 0,000 mm 0,0 UV-I 0 W/m 3,6 C 4,6 C 1,6 km/h (1 Bft) 100,00 %
15.02.2016 19:53 4,5 C 93 % 1015,9 hPa 0,0 l/m 1,5 km/h (1 Bft) S 182 0 min 0,000 mm 0,0 UV-I 0 W/m 3,5 C 4,5 C 3,2 km/h (1 Bft) 100,00 %
15.02.2016 19:54 4,5 C 93 % 1015,9 hPa 0,0 l/m 1,8 km/h (1 Bft) S 182 0 min 0,000 mm 0,0 UV-I 0 W/m 3,5 C 4,5 C 3,2 km/h (1 Bft) 100,00 %
15.02.2016 19:55 4,6 C 93 % 1016,0 hPa 0,0 l/m 2,5 km/h (1 Bft) S 183 0 min 0,000 mm 0,0 UV-I 0 W/m 3,6 C 4,6 C 4,8 km/h (1 Bft) 100,00 %
15.02.2016 19:56 4,6 C 94 % 1015,9 hPa 0,0 l/m 1,9 km/h (1 Bft) S 183 0 min 0,000 mm 0,0 UV-I 0 W/m 3,7 C 4,6 C 3,2 km/h (1 Bft) 100,00 %
15.02.2016 19:57 4,6 C 94 % 1015,9 hPa 0,0 l/m 2,1 km/h (1 Bft) S 183 0 min 0,000 mm 0,0 UV-I 0 W/m 3,7 C 4,6 C 3,2 km/h (1 Bft) 100,00 %
15.02.2016 19:58 4,6 C 93 % 1015,9 hPa 0,0 l/m 2,7 km/h (1 Bft) SW 224 0 min 0,000 mm 0,0 UV-I 0 W/m 3,6 C 4,6 C 3,2 km/h (1 Bft) 100,00 %
15.02.2016 19:59 4,6 C 93 % 1015,9 hPa 0,0 l/m 2,0 km/h (1 Bft) SW 224 0 min 0,000 mm 0,0 UV-I 0 W/m 3,6 C 4,6 C 3,2 km/h (1 Bft) 100,00 %
15.02.2016 20:00 4,6 C 93 % 1015,9 hPa 0,0 l/m 2,2 km/h (1 Bft) SW 224 0 min 0,000 mm 0,0 UV-I 0 W/m 3,6 C 4,6 C 3,2 km/h (1 Bft) 100,00 %
15.02.2016 20:01 4,6 C 93 % 1015,9 hPa 0,0 l/m 1,1 km/h (1 Bft) SW 224 0 min 0,000 mm 0,0 UV-I 0 W/m 3,6 C 4,6 C 3,2 km/h (1 Bft) 100,00 %
15.02.2016 20:02 4,6 C 93 % 1015,9 hPa 0,0 l/m 0,9 km/h (0 Bft) SW 224 0 min 0,000 mm 0,0 UV-I 0 W/m 3,6 C 4,6 C 1,6 km/h (1 Bft) 100,00 %
15.02.2016 20:03 4,6 C 93 % 1015,9 hPa 0,0 l/m 1,5 km/h (1 Bft) SW 224 0 min 0,000 mm 0,0 UV-I 0 W/m 3,6 C 4,6 C 3,2 km/h (1 Bft) 100,00 %
15.02.2016 20:04 4,6 C 93 % 1015,9 hPa 0,0 l/m 1,0 km/h (0 Bft) SW 224 0 min 0,000 mm 0,0 UV-I 0 W/m 3,6 C 4,6 C 3,2 km/h (1 Bft) 100,00 %
15.02.2016 20:05 4,6 C 93 % 1015,9 hPa 0,0 l/m 0,7 km/h (0 Bft) SW 224 0 min 0,000 mm 0,0 UV-I 0 W/m 3,6 C 4,6 C 1,6 km/h (1 Bft) 100,00 %
15.02.2016 20:06 4,6 C 93 % 1015,9 hPa 0,0 l/m 0,9 km/h (0 Bft) SW 224 0 min 0,000 mm 0,0 UV-I 0 W/m 3,6 C 4,6 C 3,2 km/h (1 Bft) 100,00 %
15.02.2016 20:07 4,6 C 93 % 1015,9 hPa 0,0 l/m 0,0 km/h (0 Bft) SW 224 0 min 0,000 mm 0,0 UV-I 0 W/m 3,6 C 4,6 C 0,0 km/h (0 Bft) 91,30 %
15.02.2016 20:08 4,6 C 93 % 1015,9 hPa 0,0 l/m 0,0 km/h (0 Bft) SW 224 0 min 0,000 mm 0,0 UV-I 0 W/m 3,6 C 4,6 C 0,0 km/h (0 Bft) 100,00 %
15.02.2016 20:09 4,6 C 93 % 1016,0 hPa 0,0 l/m 0,0 km/h (0 Bft) SW 224 0 min 0,000 mm 0,0 UV-I 0 W/m 3,6 C 4,6 C 0,0 km/h (0 Bft) 100,00 %
15.02.2016 20:10 4,6 C 93 % 1016,0 hPa 0,0 l/m 0,0 km/h (0 Bft) SW 224 0 min 0,000 mm 0,0 UV-I 0 W/m 3,6 C 4,6 C 0,0 km/h (0 Bft) 100,00 %
15.02.2016 20:11 4,6 C 93 % 1015,9 hPa 0,0 l/m 0,0 km/h (0 Bft) SW 224 0 min 0,000 mm 0,0 UV-I 0 W/m 3,6 C 4,6 C 0,0 km/h (0 Bft) 95,65 %
15.02.2016 20:12 4,6 C 93 % 1016,0 hPa 0,0 l/m 0,0 km/h (0 Bft) SW 224 0 min 0,000 mm 0,0 UV-I 0 W/m 3,6 C 4,6 C 0,0 km/h (0 Bft) 100,00 %
15.02.2016 20:13 4,6 C 93 % 1016,0 hPa 0,0 l/m 0,3 km/h (0 Bft) SW 224 0 min 0,000 mm 0,0 UV-I 0 W/m 3,6 C 4,6 C 1,6 km/h (1 Bft) 100,00 %
15.02.2016 20:14 4,6 C 93 % 1016,0 hPa 0,0 l/m 1,1 km/h (1 Bft) SW 224 0 min 0,000 mm 0,0 UV-I 0 W/m 3,6 C 4,6 C 1,6 km/h (1 Bft) 100,00 %
15.02.2016 20:15 4,6 C 92 % 1016,1 hPa 0,0 l/m 0,6 km/h (0 Bft) SW 224 0 min 0,000 mm 0,0 UV-I 0 W/m 3,4 C 4,6 C 1,6 km/h (1 Bft) 96,67 %
15.02.2016 20:16 4,7 C 92 % 1016,1 hPa 0,0 l/m 0,8 km/h (0 Bft) SW 224 0 min 0,000 mm 0,0 UV-I 0 W/m 3,5 C 4,7 C 1,6 km/h (1 Bft) 96,30 %
15.02.2016 20:17 4,7 C 92 % 1016,1 hPa 0,0 l/m 0,5 km/h (0 Bft) SW 224 0 min 0,000 mm 0,0 UV-I 0 W/m 3,5 C 4,7 C 1,6 km/h (1 Bft) 100,00 %
15.02.2016 20:18 4,7 C 92 % 1016,2 hPa 0,0 l/m 0,4 km/h (0 Bft) SW 224 0 min 0,000 mm 0,0 UV-I 0 W/m 3,5 C 4,7 C 1,6 km/h (1 Bft) 95,83 %
15.02.2016 20:19 4,7 C 92 % 1016,2 hPa 0,0 l/m 0,8 km/h (0 Bft) SW 224 0 min 0,000 mm 0,0 UV-I 0 W/m 3,5 C 4,7 C 1,6 km/h (1 Bft) 98,40 %
15.02.2016 20:20 4,7 C 92 % 1016,2 hPa 0,0 l/m 1,6 km/h (1 Bft) SW 223 0 min 0,000 mm 0,0 UV-I 0 W/m 3,5 C 4,7 C 3,2 km/h (1 Bft) 97,37 %
15.02.2016 20:21 4,7 C 92 % 1016,3 hPa 0,0 l/m 1,5 km/h (1 Bft) SW 223 0 min 0,000 mm 0,0 UV-I 0 W/m 3,5 C 4,7 C 3,2 km/h (1 Bft) 95,83 %
15.02.2016 20:22 4,7 C 92 % 1016,3 hPa 0,0 l/m 1,3 km/h (1 Bft) SW 223 0 min 0,000 mm 0,0 UV-I 0 W/m 3,5 C 4,7 C 1,6 km/h (1 Bft) 95,65 %
15.02.2016 20:23 4,7 C 92 % 1016,3 hPa 0,0 l/m 1,3 km/h (1 Bft) SW 221 0 min 0,000 mm 0,0 UV-I 0 W/m 3,5 C 4,7 C 3,2 km/h (1 Bft) 95,83 %
15.02.2016 20:24 4,7 C 92 % 1016,3 hPa 0,0 l/m 2,0 km/h (1 Bft) SW 221 0 min 0,000 mm 0,0 UV-I 0 W/m 3,5 C 4,7 C 3,2 km/h (1 Bft) 100,00 %
15.02.2016 20:25 4,8 C 92 % 1016,3 hPa 0,0 l/m 2,7 km/h (1 Bft) S 169 0 min 0,000 mm 0,0 UV-I 0 W/m 3,6 C 4,8 C 3,2 km/h (1 Bft) 96,88 %
15.02.2016 20:26 4,8 C 92 % 1016,3 hPa 0,0 l/m 2,5 km/h (1 Bft) S 169 0 min 0,000 mm 0,0 UV-I 0 W/m 3,6 C 4,8 C 6,4 km/h (2 Bft) 100,00 %
15.02.2016 20:27 4,8 C 92 % 1016,4 hPa 0,0 l/m 2,6 km/h (1 Bft) S 169 0 min 0,000 mm 0,0 UV-I 0 W/m 3,6 C 4,8 C 6,4 km/h (2 Bft) 96,67 %
15.02.2016 20:28 4,8 C 92 % 1016,3 hPa 0,0 l/m 2,7 km/h (1 Bft) S-SO 168 0 min 0,000 mm 0,0 UV-I 0 W/m 3,6 C 4,8 C 4,8 km/h (1 Bft) 96,15 %
15.02.2016 20:29 4,8 C 92 % 1016,3 hPa 0,0 l/m 1,4 km/h (1 Bft) S-SO 168 0 min 0,000 mm 0,0 UV-I 0 W/m 3,6 C 4,8 C 3,2 km/h (1 Bft) 96,30 %
15.02.2016 20:30 4,8 C 92 % 1016,4 hPa 0,0 l/m 2,4 km/h (1 Bft) S 169 0 min 0,000 mm 0,0 UV-I 0 W/m 3,6 C 4,8 C 6,4 km/h (2 Bft) 100,00 %
15.02.2016 20:31 4,7 C 92 % 1016,4 hPa 0,0 l/m 2,4 km/h (1 Bft) S-SO 166 0 min 0,000 mm 0,0 UV-I 0 W/m 3,5 C 4,7 C 4,8 km/h (1 Bft) 96,30 %
15.02.2016 20:32 4,7 C 92 % 1016,4 hPa 0,0 l/m 3,0 km/h (1 Bft) S-SO 157 0 min 0,000 mm 0,0 UV-I 0 W/m 3,5 C 4,7 C 6,4 km/h (2 Bft) 91,30 %
15.02.2016 20:33 4,7 C 92 % 1016,4 hPa 0,0 l/m 2,1 km/h (1 Bft) S-SO 157 0 min 0,000 mm 0,0 UV-I 0 W/m 3,5 C 4,7 C 4,8 km/h (1 Bft) 95,83 %
15.02.2016 20:34 4,7 C 92 % 1016,4 hPa 0,0 l/m 2,1 km/h (1 Bft) S-SO 153 0 min 0,000 mm 0,0 UV-I 0 W/m 3,5 C 4,7 C 3,2 km/h (1 Bft) 95,65 %
15.02.2016 20:35 4,7 C 92 % 1016,5 hPa 0,0 l/m 1,9 km/h (1 Bft) S-SO 153 0 min 0,000 mm 0,0 UV-I 0 W/m 3,5 C 4,7 C 3,2 km/h (1 Bft) 100,00 %
15.02.2016 20:36 4,7 C 92 % 1016,5 hPa 0,0 l/m 2,6 km/h (1 Bft) S-SO 153 0 min 0,000 mm 0,0 UV-I 0 W/m 3,5 C 4,7 C 4,8 km/h (1 Bft) 95,65 %
15.02.2016 20:37 4,7 C 92 % 1016,5 hPa 0,0 l/m 3,5 km/h (1 Bft) S-SO 166 0 min 0,000 mm 0,0 UV-I 0 W/m 3,5 C 4,7 C 4,8 km/h (1 Bft) 100,00 %
15.02.2016 20:38 4,7 C 92 % 1016,6 hPa 0,0 l/m 3,6 km/h (1 Bft) S-SO 155 0 min 0,000 mm 0,0 UV-I 0 W/m 3,5 C 4,7 C 6,4 km/h (2 Bft) 92,86 %
15.02.2016 20:39 4,7 C 92 % 1016,6 hPa 0,0 l/m 3,6 km/h (1 Bft) S-SO 155 0 min 0,000 mm 0,0 UV-I 0 W/m 3,5 C 4,7 C 8,0 km/h (2 Bft) 100,00 %
15.02.2016 20:40 4,7 C 92 % 1016,7 hPa 0,0 l/m 2,7 km/h (1 Bft) S-SO 159 0 min 0,000 mm 0,0 UV-I 0 W/m 3,5 C 4,7 C 4,8 km/h (1 Bft) 96,15 %
15.02.2016 20:41 4,8 C 92 % 1016,7 hPa 0,0 l/m 2,8 km/h (1 Bft) S-SO 161 0 min 0,000 mm 0,0 UV-I 0 W/m 3,6 C 4,8 C 4,8 km/h (1 Bft) 95,83 %
15.02.2016 20:42 4,8 C 92 % 1016,7 hPa 0,0 l/m 2,1 km/h (1 Bft) S-SO 161 0 min 0,000 mm 0,0 UV-I 0 W/m 3,6 C 4,8 C 3,2 km/h (1 Bft) 100,00 %
15.02.2016 20:43 4,8 C 92 % 1016,8 hPa 0,0 l/m 3,6 km/h (1 Bft) S-SO 167 0 min 0,000 mm 0,0 UV-I 0 W/m 3,6 C 4,8 C 6,4 km/h (2 Bft) 95,83 %
15.02.2016 20:44 4,8 C 92 % 1016,8 hPa 0,0 l/m 3,1 km/h (1 Bft) S-SO 165 0 min 0,000 mm 0,0 UV-I 0 W/m 3,6 C 4,8 C 8,0 km/h (2 Bft) 100,00 %
15.02.2016 20:45 4,8 C 92 % 1016,8 hPa 0,0 l/m 3,0 km/h (1 Bft) S-SO 165 0 min 0,000 mm 0,0 UV-I 0 W/m 3,6 C 4,8 C 6,4 km/h (2 Bft) 96,55 %
15.02.2016 20:46 4,8 C 91 % 1016,8 hPa 0,0 l/m 2,1 km/h (1 Bft) SO 138 0 min 0,000 mm 0,0 UV-I 0 W/m 3,5 C 4,8 C 4,8 km/h (1 Bft) 100,00 %
15.02.2016 20:47 4,8 C 91 % 1016,9 hPa 0,0 l/m 2,5 km/h (1 Bft) S 173 0 min 0,000 mm 0,0 UV-I 0 W/m 3,5 C 4,8 C 4,8 km/h (1 Bft) 96,15 %
15.02.2016 20:48 4,8 C 91 % 1016,9 hPa 0,0 l/m 6,6 km/h (2 Bft) S-SW 201 0 min 0,000 mm 0,0 UV-I 0 W/m 3,5 C 4,6 C 9,7 km/h (2 Bft) 100,00 %
15.02.2016 20:49 4,8 C 91 % 1016,9 hPa 0,0 l/m 4,3 km/h (1 Bft) S 174 0 min 0,000 mm 0,0 UV-I 0 W/m 3,5 C 4,8 C 6,4 km/h (2 Bft) 100,00 %
15.02.2016 20:50 4,8 C 91 % 1016,9 hPa 0,0 l/m 4,2 km/h (1 Bft) S-SO 165 0 min 0,000 mm 0,0 UV-I 0 W/m 3,5 C 4,8 C 8,0 km/h (2 Bft) 100,00 %
15.02.2016 20:51 4,8 C 91 % 1016,9 hPa 0,0 l/m 4,0 km/h (1 Bft) S 178 0 min 0,000 mm 0,0 UV-I 0 W/m 3,5 C 4,8 C 6,4 km/h (2 Bft) 100,00 %
15.02.2016 20:52 4,8 C 91 % 1016,9 hPa 0,0 l/m 5,8 km/h (2 Bft) S 169 0 min 0,000 mm 0,0 UV-I 0 W/m 3,5 C 4,8 C 8,0 km/h (2 Bft) 100,00 %
15.02.2016 20:53 4,8 C 91 % 1016,9 hPa 0,0 l/m 5,6 km/h (1 Bft) S 174 0 min 0,000 mm 0,0 UV-I 0 W/m 3,5 C 4,8 C 8,0 km/h (2 Bft) 100,00 %
15.02.2016 20:54 4,8 C 91 % 1016,9 hPa 0,0 l/m 6,3 km/h (2 Bft) S 175 0 min 0,000 mm 0,0 UV-I 0 W/m 3,5 C 4,8 C 9,7 km/h (2 Bft) 91,67 %
15.02.2016 20:55 4,8 C 91 % 1017,0 hPa 0,0 l/m 5,3 km/h (1 Bft) S-SO 167 0 min 0,000 mm 0,0 UV-I 0 W/m 3,5 C 4,8 C 9,7 km/h (2 Bft) 100,00 %
15.02.2016 20:56 4,8 C 91 % 1017,0 hPa 0,0 l/m 7,2 km/h (2 Bft) S-SO 158 0 min 0,000 mm 0,0 UV-I 0 W/m 3,5 C 4,1 C 9,7 km/h (2 Bft) 100,00 %
15.02.2016 20:57 4,9 C 91 % 1017,0 hPa 0,0 l/m 6,6 km/h (2 Bft) S 173 0 min 0,000 mm 0,0 UV-I 0 W/m 3,6 C 4,7 C 9,7 km/h (2 Bft) 100,00 %
15.02.2016 20:58 4,9 C 91 % 1017,0 hPa 0,0 l/m 3,1 km/h (1 Bft) S-SO 159 0 min 0,000 mm 0,0 UV-I 0 W/m 3,6 C 4,9 C 4,8 km/h (1 Bft) 96,30 %
15.02.2016 20:59 4,9 C 91 % 1017,1 hPa 0,0 l/m 3,8 km/h (1 Bft) S 191 0 min 0,000 mm 0,0 UV-I 0 W/m 3,6 C 4,9 C 8,0 km/h (2 Bft) 100,00 %
15.02.2016 21:00 4,9 C 91 % 1017,1 hPa 0,0 l/m 7,1 km/h (2 Bft) S 186 0 min 0,000 mm 0,0 UV-I 0 W/m 3,6 C 4,3 C 8,0 km/h (2 Bft) 100,00 %
15.02.2016 21:01 4,9 C 91 % 1017,1 hPa 0,0 l/m 6,6 km/h (2 Bft) S-SO 166 0 min 0,000 mm 0,0 UV-I 0 W/m 3,6 C 4,7 C 9,7 km/h (2 Bft) 100,00 %
15.02.2016 21:02 4,9 C 91 % 1017,1 hPa 0,0 l/m 6,3 km/h (2 Bft) S-SO 161 0 min 0,000 mm 0,0 UV-I 0 W/m 3,6 C 4,9 C 11,3 km/h (2 Bft) 100,00 %
15.02.2016 21:03 4,9 C 91 % 1017,2 hPa 0,0 l/m 6,1 km/h (2 Bft) S-SO 161 0 min 0,000 mm 0,0 UV-I 0 W/m 3,6 C 4,9 C 9,7 km/h (2 Bft) 100,00 %
15.02.2016 21:04 4,9 C 91 % 1017,2 hPa 0,0 l/m 6,1 km/h (2 Bft) S 175 0 min 0,000 mm 0,0 UV-I 0 W/m 3,6 C 4,9 C 9,7 km/h (2 Bft) 100,00 %
15.02.2016 21:05 4,9 C 91 % 1017,2 hPa 0,0 l/m 6,0 km/h (2 Bft) S 176 0 min 0,000 mm 0,0 UV-I 0 W/m 3,6 C 4,9 C 8,0 km/h (2 Bft) 100,00 %
15.02.2016 21:06 4,9 C 91 % 1017,3 hPa 0,0 l/m 6,4 km/h (2 Bft) S 186 0 min 0,000 mm 0,0 UV-I 0 W/m 3,6 C 4,9 C 8,0 km/h (2 Bft) 93,33 %
15.02.2016 21:07 4,9 C 91 % 1017,3 hPa 0,0 l/m 5,4 km/h (1 Bft) S 186 0 min 0,000 mm 0,0 UV-I 0 W/m 3,6 C 4,9 C 6,4 km/h (2 Bft) 100,00 %
15.02.2016 21:08 4,9 C 91 % 1017,3 hPa 0,0 l/m 5,1 km/h (1 Bft) S 186 0 min 0,000 mm 0,0 UV-I 0 W/m 3,6 C 4,9 C 6,4 km/h (2 Bft) 100,00 %
15.02.2016 21:09 4,9 C 91 % 1017,3 hPa 0,0 l/m 5,0 km/h (1 Bft) S-SW 194 0 min 0,000 mm 0,0 UV-I 0 W/m 3,6 C 4,9 C 6,4 km/h (2 Bft) 100,00 %
15.02.2016 21:10 4,9 C 91 % 1017,3 hPa 0,0 l/m 4,9 km/h (1 Bft) S-SW 195 0 min 0,000 mm 0,0 UV-I 0 W/m 3,6 C 4,9 C 6,4 km/h (2 Bft) 100,00 %
15.02.2016 21:11 4,8 C 91 % 1017,4 hPa 0,0 l/m 4,6 km/h (1 Bft) S 184 0 min 0,000 mm 0,0 UV-I 0 W/m 3,5 C 4,8 C 6,4 km/h (2 Bft) 100,00 %
15.02.2016 21:12 4,8 C 91 % 1017,4 hPa 0,0 l/m 5,0 km/h (1 Bft) S 183 0 min 0,000 mm 0,0 UV-I 0 W/m 3,5 C 4,8 C 6,4 km/h (2 Bft) 100,00 %
15.02.2016 21:13 4,8 C 91 % 1017,4 hPa 0,0 l/m 4,4 km/h (1 Bft) S 181 0 min 0,000 mm 0,0 UV-I 0 W/m 3,5 C 4,8 C 6,4 km/h (2 Bft) 100,00 %
15.02.2016 21:14 4,8 C 91 % 1017,4 hPa 0,0 l/m 4,9 km/h (1 Bft) S-SW 196 0 min 0,000 mm 0,0 UV-I 0 W/m 3,5 C 4,8 C 6,4 km/h (2 Bft) 100,00 %
15.02.2016 21:15 4,8 C 91 % 1017,5 hPa 0,0 l/m 3,9 km/h (1 Bft) S 187 0 min 0,000 mm 0,0 UV-I 0 W/m 3,5 C 4,8 C 6,4 km/h (2 Bft) 100,00 %
15.02.2016 21:16 4,8 C 91 % 1017,5 hPa 0,0 l/m 6,9 km/h (2 Bft) S 188 0 min 0,000 mm 0,0 UV-I 0 W/m 3,5 C 4,4 C 9,7 km/h (2 Bft) 96,15 %
15.02.2016 21:17 4,8 C 91 % 1017,5 hPa 0,0 l/m 4,4 km/h (1 Bft) S 190 0 min 0,000 mm 0,0 UV-I 0 W/m 3,5 C 4,8 C 4,8 km/h (1 Bft) 100,00 %
15.02.2016 21:18 4,8 C 91 % 1017,5 hPa 0,0 l/m 4,2 km/h (1 Bft) S-SW 192 0 min 0,000 mm 0,0 UV-I 0 W/m 3,5 C 4,8 C 6,4 km/h (2 Bft) 100,00 %
15.02.2016 21:19 4,8 C 91 % 1017,5 hPa 0,0 l/m 4,7 km/h (1 Bft) S-SW 198 0 min 0,000 mm 0,0 UV-I 0 W/m 3,5 C 4,8 C 6,4 km/h (2 Bft) 100,00 %
15.02.2016 21:20 4,8 C 91 % 1017,5 hPa 0,0 l/m 5,3 km/h (1 Bft) S-SW 198 0 min 0,000 mm 0,0 UV-I 0 W/m 3,5 C 4,8 C 8,0 km/h (2 Bft) 100,00 %
15.02.2016 21:21 4,8 C 91 % 1017,5 hPa 0,0 l/m 4,1 km/h (1 Bft) S-SW 200 0 min 0,000 mm 0,0 UV-I 0 W/m 3,5 C 4,8 C 4,8 km/h (1 Bft) 100,00 %
15.02.2016 21:22 4,8 C 91 % 1017,6 hPa 0,0 l/m 4,4 km/h (1 Bft) S-SW 200 0 min 0,000 mm 0,0 UV-I 0 W/m 3,5 C 4,8 C 4,8 km/h (1 Bft) 100,00 %
15.02.2016 21:23 4,8 C 91 % 1017,6 hPa 0,0 l/m 4,7 km/h (1 Bft) S-SW 192 0 min 0,000 mm 0,0 UV-I 0 W/m 3,5 C 4,8 C 6,4 km/h (2 Bft) 100,00 %
15.02.2016 21:24 4,8 C 91 % 1017,6 hPa 0,0 l/m 3,8 km/h (1 Bft) S-SW 194 0 min 0,000 mm 0,0 UV-I 0 W/m 3,5 C 4,8 C 4,8 km/h (1 Bft) 100,00 %
15.02.2016 21:25 4,8 C 91 % 1017,6 hPa 0,0 l/m 3,6 km/h (1 Bft) S-SW 196 0 min 0,000 mm 0,0 UV-I 0 W/m 3,5 C 4,8 C 4,8 km/h (1 Bft) 100,00 %
15.02.2016 21:26 4,8 C 91 % 1017,6 hPa 0,0 l/m 3,1 km/h (1 Bft) S-SW 196 0 min 0,000 mm 0,0 UV-I 0 W/m 3,5 C 4,8 C 4,8 km/h (1 Bft) 100,00 %
15.02.2016 21:27 4,8 C 91 % 1017,6 hPa 0,0 l/m 4,2 km/h (1 Bft) S-SW 196 0 min 0,000 mm 0,0 UV-I 0 W/m 3,5 C 4,8 C 4,8 km/h (1 Bft) 95,65 %
15.02.2016 21:28 4,8 C 91 % 1017,6 hPa 0,0 l/m 4,5 km/h (1 Bft) S-SW 196 0 min 0,000 mm 0,0 UV-I 0 W/m 3,5 C 4,8 C 6,4 km/h (2 Bft) 100,00 %
15.02.2016 21:29 4,8 C 91 % 1017,6 hPa 0,0 l/m 3,7 km/h (1 Bft) S-SW 196 0 min 0,000 mm 0,0 UV-I 0 W/m 3,5 C 4,8 C 6,4 km/h (2 Bft) 100,00 %
15.02.2016 21:30 4,8 C 91 % 1017,6 hPa 0,0 l/m 4,7 km/h (1 Bft) S-SW 196 0 min 0,000 mm 0,0 UV-I 0 W/m 3,5 C 4,8 C 6,4 km/h (2 Bft) 100,00 %
15.02.2016 21:31 4,8 C 91 % 1017,6 hPa 0,0 l/m 5,0 km/h (1 Bft) S-SW 196 0 min 0,000 mm 0,0 UV-I 0 W/m 3,5 C 4,8 C 6,4 km/h (2 Bft) 100,00 %
15.02.2016 21:32 4,8 C 91 % 1017,7 hPa 0,0 l/m 5,5 km/h (1 Bft) S-SW 196 0 min 0,000 mm 0,0 UV-I 0 W/m 3,5 C 4,8 C 8,0 km/h (2 Bft) 100,00 %
15.02.2016 21:33 4,8 C 91 % 1017,7 hPa 0,0 l/m 5,1 km/h (1 Bft) S-SW 196 0 min 0,000 mm 0,0 UV-I 0 W/m 3,5 C 4,8 C 6,4 km/h (2 Bft) 96,55 %
15.02.2016 21:34 4,8 C 91 % 1017,7 hPa 0,0 l/m 4,0 km/h (1 Bft) S-SW 196 0 min 0,000 mm 0,0 UV-I 0 W/m 3,5 C 4,8 C 4,8 km/h (1 Bft) 95,83 %
15.02.2016 21:35 4,8 C 91 % 1017,7 hPa 0,0 l/m 4,3 km/h (1 Bft) S-SW 193 0 min 0,000 mm 0,0 UV-I 0 W/m 3,5 C 4,8 C 6,4 km/h (2 Bft) 100,00 %
15.02.2016 21:36 4,8 C 91 % 1017,7 hPa 0,0 l/m 4,4 km/h (1 Bft) S 188 0 min 0,000 mm 0,0 UV-I 0 W/m 3,5 C 4,8 C 6,4 km/h (2 Bft) 100,00 %
15.02.2016 21:37 4,8 C 91 % 1017,8 hPa 0,0 l/m 4,9 km/h (1 Bft) S-SW 195 0 min 0,000 mm 0,0 UV-I 0 W/m 3,5 C 4,8 C 6,4 km/h (2 Bft) 100,00 %
15.02.2016 21:38 4,8 C 91 % 1017,8 hPa 0,0 l/m 4,2 km/h (1 Bft) S-SW 195 0 min 0,000 mm 0,0 UV-I 0 W/m 3,5 C 4,8 C 4,8 km/h (1 Bft) 100,00 %
15.02.2016 21:39 4,8 C 91 % 1017,8 hPa 0,0 l/m 3,2 km/h (1 Bft) S-SW 195 0 min 0,000 mm 0,0 UV-I 0 W/m 3,5 C 4,8 C 4,8 km/h (1 Bft) 100,00 %
15.02.2016 21:40 4,8 C 91 % 1017,9 hPa 0,0 l/m 3,4 km/h (1 Bft) S-SW 195 0 min 0,000 mm 0,0 UV-I 0 W/m 3,5 C 4,8 C 4,8 km/h (1 Bft) 100,00 %
15.02.2016 21:41 4,8 C 91 % 1017,9 hPa 0,0 l/m 3,5 km/h (1 Bft) S-SW 195 0 min 0,000 mm 0,0 UV-I 0 W/m 3,5 C 4,8 C 4,8 km/h (1 Bft) 100,00 %
15.02.2016 21:42 4,8 C 91 % 1017,9 hPa 0,0 l/m 3,8 km/h (1 Bft) S-SW 195 0 min 0,000 mm 0,0 UV-I 0 W/m 3,5 C 4,8 C 4,8 km/h (1 Bft) 100,00 %
15.02.2016 21:43 4,8 C 91 % 1017,9 hPa 0,0 l/m 3,5 km/h (1 Bft) S-SW 195 0 min 0,000 mm 0,0 UV-I 0 W/m 3,5 C 4,8 C 4,8 km/h (1 Bft) 100,00 %
15.02.2016 21:44 4,8 C 91 % 1017,9 hPa 0,0 l/m 3,8 km/h (1 Bft) S-SW 195 0 min 0,000 mm 0,0 UV-I 0 W/m 3,5 C 4,8 C 4,8 km/h (1 Bft) 100,00 %
15.02.2016 21:45 4,8 C 91 % 1018,0 hPa 0,0 l/m 4,9 km/h (1 Bft) S-SW 195 0 min 0,000 mm 0,0 UV-I 0 W/m 3,5 C 4,8 C 6,4 km/h (2 Bft) 100,00 %
15.02.2016 21:46 4,8 C 91 % 1018,0 hPa 0,0 l/m 3,8 km/h (1 Bft) S-SW 195 0 min 0,000 mm 0,0 UV-I 0 W/m 3,5 C 4,8 C 4,8 km/h (1 Bft) 100,00 %
15.02.2016 21:47 4,8 C 91 % 1018,0 hPa 0,0 l/m 4,1 km/h (1 Bft) S-SW 195 0 min 0,000 mm 0,0 UV-I 0 W/m 3,5 C 4,8 C 4,8 km/h (1 Bft) 100,00 %
15.02.2016 21:48 4,8 C 91 % 1018,1 hPa 0,0 l/m 3,9 km/h (1 Bft) S-SW 195 0 min 0,000 mm 0,0 UV-I 0 W/m 3,5 C 4,8 C 4,8 km/h (1 Bft) 95,65 %
15.02.2016 21:49 4,8 C 91 % 1018,1 hPa 0,0 l/m 4,2 km/h (1 Bft) S-SW 195 0 min 0,000 mm 0,0 UV-I 0 W/m 3,5 C 4,8 C 4,8 km/h (1 Bft) 100,00 %
15.02.2016 21:50 4,8 C 91 % 1018,2 hPa 0,0 l/m 3,5 km/h (1 Bft) S-SW 195 0 min 0,000 mm 0,0 UV-I 0 W/m 3,5 C 4,8 C 4,8 km/h (1 Bft) 96,15 %
15.02.2016 21:51 4,8 C 91 % 1018,1 hPa 0,0 l/m 4,0 km/h (1 Bft) S-SW 195 0 min 0,000 mm 0,0 UV-I 0 W/m 3,5 C 4,8 C 6,4 km/h (2 Bft) 100,00 %
15.02.2016 21:52 4,8 C 91 % 1018,2 hPa 0,0 l/m 3,6 km/h (1 Bft) S-SW 195 0 min 0,000 mm 0,0 UV-I 0 W/m 3,5 C 4,8 C 4,8 km/h (1 Bft) 100,00 %
15.02.2016 21:53 4,8 C 91 % 1018,2 hPa 0,0 l/m 3,8 km/h (1 Bft) S-SW 195 0 min 0,000 mm 0,0 UV-I 0 W/m 3,5 C 4,8 C 4,8 km/h (1 Bft) 91,67 %
15.02.2016 21:54 4,8 C 91 % 1018,2 hPa 0,0 l/m 4,3 km/h (1 Bft) S-SW 199 0 min 0,000 mm 0,0 UV-I 0 W/m 3,5 C 4,8 C 4,8 km/h (1 Bft) 96,15 %
15.02.2016 21:55 4,8 C 91 % 1018,2 hPa 0,0 l/m 4,0 km/h (1 Bft) S-SW 199 0 min 0,000 mm 0,0 UV-I 0 W/m 3,5 C 4,8 C 6,4 km/h (2 Bft) 100,00 %
15.02.2016 21:56 4,8 C 91 % 1018,2 hPa 0,0 l/m 3,1 km/h (1 Bft) S-SW 199 0 min 0,000 mm 0,0 UV-I 0 W/m 3,5 C 4,8 C 4,8 km/h (1 Bft) 100,00 %
15.02.2016 21:57 4,8 C 91 % 1018,3 hPa 0,0 l/m 4,2 km/h (1 Bft) S-SW 199 0 min 0,000 mm 0,0 UV-I 0 W/m 3,5 C 4,8 C 4,8 km/h (1 Bft) 100,00 %
15.02.2016 21:58 4,8 C 91 % 1018,3 hPa 0,0 l/m 3,8 km/h (1 Bft) S-SW 199 0 min 0,000 mm 0,0 UV-I 0 W/m 3,5 C 4,8 C 6,4 km/h (2 Bft) 100,00 %
15.02.2016 21:59 4,8 C 91 % 1018,3 hPa 0,0 l/m 3,6 km/h (1 Bft) S-SW 199 0 min 0,000 mm 0,0 UV-I 0 W/m 3,5 C 4,8 C 4,8 km/h (1 Bft) 100,00 %
15.02.2016 22:00 4,8 C 91 % 1018,3 hPa 0,0 l/m 4,2 km/h (1 Bft) S-SW 199 0 min 0,000 mm 0,0 UV-I 0 W/m 3,5 C 4,8 C 4,8 km/h (1 Bft) 100,00 %
15.02.2016 22:01 4,8 C 91 % 1018,3 hPa 0,0 l/m 4,2 km/h (1 Bft) S-SW 199 0 min 0,000 mm 0,0 UV-I 0 W/m 3,5 C 4,8 C 4,8 km/h (1 Bft) 100,00 %
15.02.2016 22:02 4,8 C 91 % 1018,3 hPa 0,0 l/m 4,4 km/h (1 Bft) S-SW 196 0 min 0,000 mm 0,0 UV-I 0 W/m 3,5 C 4,8 C 6,4 km/h (2 Bft) 100,00 %
15.02.2016 22:03 4,8 C 91 % 1018,3 hPa 0,0 l/m 5,0 km/h (1 Bft) S-SW 196 0 min 0,000 mm 0,0 UV-I 0 W/m 3,5 C 4,8 C 6,4 km/h (2 Bft) 95,83 %
15.02.2016 22:04 4,8 C 91 % 1018,3 hPa 0,0 l/m 3,5 km/h (1 Bft) S-SW 196 0 min 0,000 mm 0,0 UV-I 0 W/m 3,5 C 4,8 C 4,8 km/h (1 Bft) 93,33 %
15.02.2016 22:05 4,8 C 91 % 1018,3 hPa 0,0 l/m 4,7 km/h (1 Bft) S-SW 193 0 min 0,000 mm 0,0 UV-I 0 W/m 3,5 C 4,8 C 6,4 km/h (2 Bft) 100,00 %
15.02.2016 22:06 4,8 C 91 % 1018,4 hPa 0,0 l/m 5,4 km/h (1 Bft) S-SW 192 0 min 0,000 mm 0,0 UV-I 0 W/m 3,5 C 4,8 C 6,4 km/h (2 Bft) 100,00 %
15.02.2016 22:07 4,8 C 91 % 1018,4 hPa 0,0 l/m 3,9 km/h (1 Bft) S-SW 192 0 min 0,000 mm 0,0 UV-I 0 W/m 3,5 C 4,8 C 4,8 km/h (1 Bft) 100,00 %
15.02.2016 22:08 4,8 C 91 % 1018,4 hPa 0,0 l/m 3,2 km/h (1 Bft) S-SW 192 0 min 0,000 mm 0,0 UV-I 0 W/m 3,5 C 4,8 C 4,8 km/h (1 Bft) 95,83 %
15.02.2016 22:09 4,7 C 91 % 1018,4 hPa 0,0 l/m 4,1 km/h (1 Bft) S-SW 192 0 min 0,000 mm 0,0 UV-I 0 W/m 3,4 C 4,7 C 4,8 km/h (1 Bft) 100,00 %
15.02.2016 22:10 4,7 C 91 % 1018,4 hPa 0,0 l/m 2,8 km/h (1 Bft) S-SW 192 0 min 0,000 mm 0,0 UV-I 0 W/m 3,4 C 4,7 C 4,8 km/h (1 Bft) 95,83 %
15.02.2016 22:11 4,7 C 91 % 1018,4 hPa 0,0 l/m 2,8 km/h (1 Bft) S-SW 192 0 min 0,000 mm 0,0 UV-I 0 W/m 3,4 C 4,7 C 3,2 km/h (1 Bft) 100,00 %
15.02.2016 22:12 4,7 C 92 % 1018,4 hPa 0,0 l/m 2,4 km/h (1 Bft) S-SW 192 0 min 0,000 mm 0,0 UV-I 0 W/m 3,5 C 4,7 C 3,2 km/h (1 Bft) 100,00 %
15.02.2016 22:13 4,7 C 92 % 1018,5 hPa 0,0 l/m 3,3 km/h (1 Bft) S-SW 192 0 min 0,000 mm 0,0 UV-I 0 W/m 3,5 C 4,7 C 4,8 km/h (1 Bft) 100,00 %
15.02.2016 22:14 4,7 C 92 % 1018,4 hPa 0,0 l/m 3,2 km/h (1 Bft) S-SW 192 0 min 0,000 mm 0,0 UV-I 0 W/m 3,5 C 4,7 C 3,2 km/h (1 Bft) 100,00 %
15.02.2016 22:15 4,7 C 92 % 1018,5 hPa 0,0 l/m 3,2 km/h (1 Bft) S-SW 192 0 min 0,000 mm 0,0 UV-I 0 W/m 3,5 C 4,7 C 3,2 km/h (1 Bft) 100,00 %
15.02.2016 22:16 4,7 C 92 % 1018,5 hPa 0,0 l/m 3,6 km/h (1 Bft) S-SW 192 0 min 0,000 mm 0,0 UV-I 0 W/m 3,5 C 4,7 C 4,8 km/h (1 Bft) 95,83 %
15.02.2016 22:17 4,7 C 92 % 1018,5 hPa 0,0 l/m 3,2 km/h (1 Bft) S-SW 192 0 min 0,000 mm 0,0 UV-I 0 W/m 3,5 C 4,7 C 3,2 km/h (1 Bft) 100,00 %
15.02.2016 22:18 4,7 C 92 % 1018,5 hPa 0,0 l/m 4,4 km/h (1 Bft) S-SW 192 0 min 0,000 mm 0,0 UV-I 0 W/m 3,5 C 4,7 C 6,4 km/h (2 Bft) 100,00 %
15.02.2016 22:19 4,7 C 92 % 1018,5 hPa 0,0 l/m 4,3 km/h (1 Bft) S-SW 197 0 min 0,000 mm 0,0 UV-I 0 W/m 3,5 C 4,7 C 6,4 km/h (2 Bft) 95,65 %
15.02.2016 22:20 4,7 C 92 % 1018,5 hPa 0,0 l/m 3,9 km/h (1 Bft) S-SW 198 0 min 0,000 mm 0,0 UV-I 0 W/m 3,5 C 4,7 C 6,4 km/h (2 Bft) 95,83 %
15.02.2016 22:21 4,7 C 92 % 1018,5 hPa 0,0 l/m 4,1 km/h (1 Bft) S-SW 198 0 min 0,000 mm 0,0 UV-I 0 W/m 3,5 C 4,7 C 6,4 km/h (2 Bft) 100,00 %
15.02.2016 22:22 4,7 C 91 % 1018,5 hPa 0,0 l/m 4,5 km/h (1 Bft) S-SW 198 0 min 0,000 mm 0,0 UV-I 0 W/m 3,4 C 4,7 C 6,4 km/h (2 Bft) 96,15 %
15.02.2016 22:23 4,7 C 91 % 1018,5 hPa 0,0 l/m 4,0 km/h (1 Bft) S-SW 198 0 min 0,000 mm 0,0 UV-I 0 W/m 3,4 C 4,7 C 4,8 km/h (1 Bft) 100,00 %
15.02.2016 22:24 4,7 C 91 % 1018,5 hPa 0,0 l/m 4,9 km/h (1 Bft) S-SW 202 0 min 0,000 mm 0,0 UV-I 0 W/m 3,4 C 4,7 C 6,4 km/h (2 Bft) 95,65 %
15.02.2016 22:25 4,7 C 91 % 1018,6 hPa 0,0 l/m 4,9 km/h (1 Bft) S-SW 201 0 min 0,000 mm 0,0 UV-I 0 W/m 3,4 C 4,7 C 6,4 km/h (2 Bft) 100,00 %
15.02.2016 22:26 4,7 C 91 % 1018,6 hPa 0,0 l/m 4,2 km/h (1 Bft) S-SW 196 0 min 0,000 mm 0,0 UV-I 0 W/m 3,4 C 4,7 C 4,8 km/h (1 Bft) 95,12 %
15.02.2016 22:27 4,7 C 92 % 1018,6 hPa 0,0 l/m 3,9 km/h (1 Bft) S-SW 196 0 min 0,000 mm 0,0 UV-I 0 W/m 3,5 C 4,7 C 6,4 km/h (2 Bft) 95,83 %
15.02.2016 22:28 4,7 C 92 % 1018,6 hPa 0,0 l/m 4,5 km/h (1 Bft) S-SW 196 0 min 0,000 mm 0,0 UV-I 0 W/m 3,5 C 4,7 C 4,8 km/h (1 Bft) 100,00 %
15.02.2016 22:29 4,7 C 92 % 1018,6 hPa 0,0 l/m 3,6 km/h (1 Bft) S-SW 196 0 min 0,000 mm 0,0 UV-I 0 W/m 3,5 C 4,7 C 4,8 km/h (1 Bft) 96,97 %
15.02.2016 22:30 4,7 C 92 % 1018,6 hPa 0,0 l/m 4,9 km/h (1 Bft) S-SW 196 0 min 0,000 mm 0,0 UV-I 0 W/m 3,5 C 4,7 C 6,4 km/h (2 Bft) 100,00 %
15.02.2016 22:31 4,7 C 92 % 1018,6 hPa 0,0 l/m 5,2 km/h (1 Bft) S-SW 196 0 min 0,000 mm 0,0 UV-I 0 W/m 3,5 C 4,7 C 6,4 km/h (2 Bft) 91,67 %
15.02.2016 22:32 4,7 C 92 % 1018,6 hPa 0,0 l/m 4,2 km/h (1 Bft) S-SW 196 0 min 0,000 mm 0,0 UV-I 0 W/m 3,5 C 4,7 C 6,4 km/h (2 Bft) 91,30 %
15.02.2016 22:33 4,7 C 91 % 1018,7 hPa 0,0 l/m 3,9 km/h (1 Bft) S-SW 196 0 min 0,000 mm 0,0 UV-I 0 W/m 3,4 C 4,7 C 6,4 km/h (2 Bft) 100,00 %
15.02.2016 22:34 4,7 C 92 % 1018,7 hPa 0,0 l/m 5,2 km/h (1 Bft) S-SO 159 0 min 0,000 mm 0,0 UV-I 0 W/m 3,5 C 4,7 C 8,0 km/h (2 Bft) 95,65 %
15.02.2016 22:35 4,7 C 92 % 1018,7 hPa 0,0 l/m 5,3 km/h (1 Bft) S 186 0 min 0,000 mm 0,0 UV-I 0 W/m 3,5 C 4,7 C 6,4 km/h (2 Bft) 100,00 %
15.02.2016 22:36 4,7 C 92 % 1018,7 hPa 0,0 l/m 5,7 km/h (1 Bft) S 190 0 min 0,000 mm 0,0 UV-I 0 W/m 3,5 C 4,7 C 8,0 km/h (2 Bft) 95,65 %
15.02.2016 22:37 4,7 C 92 % 1018,7 hPa 0,0 l/m 5,6 km/h (1 Bft) S-SW 205 0 min 0,000 mm 0,0 UV-I 0 W/m 3,5 C 4,7 C 6,4 km/h (2 Bft) 100,00 %
15.02.2016 22:38 4,7 C 92 % 1018,7 hPa 0,0 l/m 4,5 km/h (1 Bft) S-SW 200 0 min 0,000 mm 0,0 UV-I 0 W/m 3,5 C 4,7 C 6,4 km/h (2 Bft) 96,15 %
15.02.2016 22:39 4,7 C 92 % 1018,8 hPa 0,0 l/m 4,4 km/h (1 Bft) S 188 0 min 0,000 mm 0,0 UV-I 0 W/m 3,5 C 4,7 C 6,4 km/h (2 Bft) 100,00 %
15.02.2016 22:40 4,7 C 92 % 1018,8 hPa 0,0 l/m 4,1 km/h (1 Bft) S-SW 207 0 min 0,000 mm 0,0 UV-I 0 W/m 3,5 C 4,7 C 4,8 km/h (1 Bft) 95,65 %
15.02.2016 22:41 4,8 C 92 % 1018,8 hPa 0,0 l/m 4,3 km/h (1 Bft) S-SW 207 0 min 0,000 mm 0,0 UV-I 0 W/m 3,6 C 4,8 C 4,8 km/h (1 Bft) 95,83 %
15.02.2016 22:42 4,7 C 92 % 1018,8 hPa 0,0 l/m 5,0 km/h (1 Bft) S-SW 207 0 min 0,000 mm 0,0 UV-I 0 W/m 3,5 C 4,7 C 6,4 km/h (2 Bft) 100,00 %
15.02.2016 22:43 4,7 C 92 % 1018,8 hPa 0,0 l/m 4,1 km/h (1 Bft) S-SW 207 0 min 0,000 mm 0,0 UV-I 0 W/m 3,5 C 4,7 C 4,8 km/h (1 Bft) 96,30 %
15.02.2016 22:44 4,7 C 92 % 1018,8 hPa 0,0 l/m 5,1 km/h (1 Bft) S-SW 207 0 min 0,000 mm 0,0 UV-I 0 W/m 3,5 C 4,7 C 6,4 km/h (2 Bft) 100,00 %
15.02.2016 22:45 4,7 C 92 % 1018,9 hPa 0,0 l/m 4,0 km/h (1 Bft) S-SW 207 0 min 0,000 mm 0,0 UV-I 0 W/m 3,5 C 4,7 C 4,8 km/h (1 Bft) 96,15 %
15.02.2016 22:46 4,7 C 92 % 1018,9 hPa 0,0 l/m 4,1 km/h (1 Bft) S-SW 207 0 min 0,000 mm 0,0 UV-I 0 W/m 3,5 C 4,7 C 4,8 km/h (1 Bft) 100,00 %
15.02.2016 22:47 4,7 C 92 % 1018,9 hPa 0,0 l/m 5,0 km/h (1 Bft) S-SW 207 0 min 0,000 mm 0,0 UV-I 0 W/m 3,5 C 4,7 C 8,0 km/h (2 Bft) 91,30 %
15.02.2016 22:48 4,7 C 92 % 1018,9 hPa 0,0 l/m 5,6 km/h (1 Bft) S-SW 206 0 min 0,000 mm 0,0 UV-I 0 W/m 3,5 C 4,7 C 6,4 km/h (2 Bft) 100,00 %
15.02.2016 22:49 4,7 C 92 % 1019,0 hPa 0,0 l/m 4,9 km/h (1 Bft) S-SW 206 0 min 0,000 mm 0,0 UV-I 0 W/m 3,5 C 4,7 C 6,4 km/h (2 Bft) 95,65 %
15.02.2016 22:50 4,6 C 92 % 1019,0 hPa 0,0 l/m 4,6 km/h (1 Bft) S-SW 203 0 min 0,000 mm 0,0 UV-I 0 W/m 3,4 C 4,6 C 6,4 km/h (2 Bft) 96,30 %
15.02.2016 22:51 4,6 C 92 % 1019,0 hPa 0,0 l/m 4,5 km/h (1 Bft) S 188 0 min 0,000 mm 0,0 UV-I 0 W/m 3,4 C 4,6 C 6,4 km/h (2 Bft) 100,00 %
15.02.2016 22:52 4,6 C 92 % 1019,0 hPa 0,0 l/m 6,7 km/h (2 Bft) S-SW 196 0 min 0,000 mm 0,0 UV-I 0 W/m 3,4 C 4,3 C 8,0 km/h (2 Bft) 92,59 %
15.02.2016 22:53 4,6 C 92 % 1019,1 hPa 0,0 l/m 5,4 km/h (1 Bft) S-SW 196 0 min 0,000 mm 0,0 UV-I 0 W/m 3,4 C 4,6 C 8,0 km/h (2 Bft) 95,65 %
15.02.2016 22:54 4,6 C 92 % 1019,1 hPa 0,0 l/m 6,6 km/h (2 Bft) S-SW 202 0 min 0,000 mm 0,0 UV-I 0 W/m 3,4 C 4,4 C 8,0 km/h (2 Bft) 100,00 %
15.02.2016 22:55 4,6 C 92 % 1019,1 hPa 0,0 l/m 6,7 km/h (2 Bft) S 186 0 min 0,000 mm 0,0 UV-I 0 W/m 3,4 C 4,3 C 8,0 km/h (2 Bft) 100,00 %
15.02.2016 22:56 4,6 C 92 % 1019,1 hPa 0,0 l/m 8,1 km/h (2 Bft) S 187 0 min 0,000 mm 0,0 UV-I 0 W/m 3,4 C 3,1 C 11,3 km/h (2 Bft) 100,00 %
15.02.2016 22:57 4,6 C 92 % 1019,1 hPa 0,0 l/m 6,1 km/h (2 Bft) S 175 0 min 0,000 mm 0,0 UV-I 0 W/m 3,4 C 4,6 C 8,0 km/h (2 Bft) 100,00 %
15.02.2016 22:58 4,6 C 92 % 1019,1 hPa 0,0 l/m 6,8 km/h (2 Bft) S 188 0 min 0,000 mm 0,0 UV-I 0 W/m 3,4 C 4,3 C 9,7 km/h (2 Bft) 100,00 %
15.02.2016 22:59 4,6 C 92 % 1019,1 hPa 0,0 l/m 6,0 km/h (2 Bft) S 169 0 min 0,000 mm 0,0 UV-I 0 W/m 3,4 C 4,6 C 8,0 km/h (2 Bft) 95,65 %
15.02.2016 23:00 4,6 C 93 % 1019,1 hPa 0,0 l/m 5,4 km/h (1 Bft) S 173 0 min 0,000 mm 0,0 UV-I 0 W/m 3,6 C 4,6 C 8,0 km/h (2 Bft) 100,00 %
15.02.2016 23:01 4,6 C 93 % 1019,2 hPa 0,0 l/m 2,9 km/h (1 Bft) S 173 0 min 0,000 mm 0,0 UV-I 0 W/m 3,6 C 4,6 C 4,8 km/h (1 Bft) 100,00 %
15.02.2016 23:02 4,6 C 93 % 1019,2 hPa 0,0 l/m 3,1 km/h (1 Bft) S 173 0 min 0,000 mm 0,0 UV-I 0 W/m 3,6 C 4,6 C 4,8 km/h (1 Bft) 100,00 %
15.02.2016 23:03 4,6 C 93 % 1019,2 hPa 0,0 l/m 3,5 km/h (1 Bft) S 182 0 min 0,000 mm 0,0 UV-I 0 W/m 3,6 C 4,6 C 4,8 km/h (1 Bft) 100,00 %
15.02.2016 23:04 4,6 C 93 % 1019,2 hPa 0,0 l/m 4,8 km/h (1 Bft) S-SW 198 0 min 0,000 mm 0,0 UV-I 0 W/m 3,6 C 4,6 C 8,0 km/h (2 Bft) 100,00 %
15.02.2016 23:05 4,5 C 93 % 1019,3 hPa 0,0 l/m 6,0 km/h (2 Bft) SW 218 0 min 0,000 mm 0,0 UV-I 0 W/m 3,5 C 4,5 C 11,3 km/h (2 Bft) 100,00 %
15.02.2016 23:06 4,6 C 93 % 1019,3 hPa 0,0 l/m 4,0 km/h (1 Bft) SW 215 0 min 0,000 mm 0,0 UV-I 0 W/m 3,6 C 4,6 C 6,4 km/h (2 Bft) 95,65 %
15.02.2016 23:07 4,6 C 93 % 1019,3 hPa 0,0 l/m 3,8 km/h (1 Bft) S-SW 193 0 min 0,000 mm 0,0 UV-I 0 W/m 3,6 C 4,6 C 6,4 km/h (2 Bft) 100,00 %
15.02.2016 23:08 4,6 C 93 % 1019,3 hPa 0,0 l/m 5,8 km/h (2 Bft) S 191 0 min 0,000 mm 0,0 UV-I 0 W/m 3,6 C 4,6 C 8,0 km/h (2 Bft) 95,65 %
15.02.2016 23:09 4,6 C 93 % 1019,3 hPa 0,0 l/m 4,8 km/h (1 Bft) S 182 0 min 0,000 mm 0,0 UV-I 0 W/m 3,6 C 4,6 C 6,4 km/h (2 Bft) 96,67 %
15.02.2016 23:10 4,6 C 93 % 1019,3 hPa 0,0 l/m 5,1 km/h (1 Bft) S 185 0 min 0,000 mm 0,0 UV-I 0 W/m 3,6 C 4,6 C 6,4 km/h (2 Bft) 100,00 %
15.02.2016 23:11 4,6 C 93 % 1019,4 hPa 0,0 l/m 4,0 km/h (1 Bft) S 184 0 min 0,000 mm 0,0 UV-I 0 W/m 3,6 C 4,6 C 6,4 km/h (2 Bft) 100,00 %
15.02.2016 23:12 4,6 C 93 % 1019,4 hPa 0,0 l/m 5,2 km/h (1 Bft) S 180 0 min 0,000 mm 0,0 UV-I 0 W/m 3,6 C 4,6 C 8,0 km/h (2 Bft) 95,65 %
15.02.2016 23:13 4,6 C 93 % 1019,4 hPa 0,0 l/m 7,2 km/h (2 Bft) S-SO 167 0 min 0,000 mm 0,0 UV-I 0 W/m 3,6 C 3,9 C 9,7 km/h (2 Bft) 96,30 %
15.02.2016 23:14 4,6 C 93 % 1019,5 hPa 0,0 l/m 5,2 km/h (1 Bft) S 169 0 min 0,000 mm 0,0 UV-I 0 W/m 3,6 C 4,6 C 6,4 km/h (2 Bft) 100,00 %
15.02.2016 23:15 4,6 C 93 % 1019,4 hPa 0,0 l/m 3,2 km/h (1 Bft) S 182 0 min 0,000 mm 0,0 UV-I 0 W/m 3,6 C 4,6 C 8,0 km/h (2 Bft) 100,00 %
15.02.2016 23:16 4,6 C 93 % 1019,5 hPa 0,2 l/m 6,0 km/h (2 Bft) S 184 0 min 0,000 mm 0,0 UV-I 0 W/m 3,6 C 4,6 C 8,0 km/h (2 Bft) 100,00 %
15.02.2016 23:17 4,6 C 93 % 1019,5 hPa 0,0 l/m 6,7 km/h (2 Bft) S-SW 196 0 min 0,000 mm 0,0 UV-I 0 W/m 3,6 C 4,3 C 9,7 km/h (2 Bft) 100,00 %
15.02.2016 23:18 4,6 C 93 % 1019,6 hPa 0,0 l/m 6,7 km/h (2 Bft) S-SW 202 0 min 0,000 mm 0,0 UV-I 0 W/m 3,6 C 4,3 C 8,0 km/h (2 Bft) 100,00 %
15.02.2016 23:19 4,6 C 93 % 1019,5 hPa 0,0 l/m 5,5 km/h (1 Bft) S-SW 196 0 min 0,000 mm 0,0 UV-I 0 W/m 3,6 C 4,6 C 6,4 km/h (2 Bft) 96,15 %
15.02.2016 23:20 4,6 C 93 % 1019,6 hPa 0,0 l/m 4,5 km/h (1 Bft) S-SW 200 0 min 0,000 mm 0,0 UV-I 0 W/m 3,6 C 4,6 C 6,4 km/h (2 Bft) 100,00 %
15.02.2016 23:21 4,6 C 93 % 1019,6 hPa 0,0 l/m 5,2 km/h (1 Bft) S 178 0 min 0,000 mm 0,0 UV-I 0 W/m 3,6 C 4,6 C 8,0 km/h (2 Bft) 96,30 %
15.02.2016 23:22 4,6 C 93 % 1019,6 hPa 0,0 l/m 3,6 km/h (1 Bft) S 190 0 min 0,000 mm 0,0 UV-I 0 W/m 3,6 C 4,6 C 4,8 km/h (1 Bft) 100,00 %
15.02.2016 23:23 4,6 C 93 % 1019,6 hPa 0,0 l/m 2,7 km/h (1 Bft) S 190 0 min 0,000 mm 0,0 UV-I 0 W/m 3,6 C 4,6 C 3,2 km/h (1 Bft) 100,00 %
15.02.2016 23:24 4,6 C 93 % 1019,6 hPa 0,0 l/m 3,2 km/h (1 Bft) S 190 0 min 0,000 mm 0,0 UV-I 0 W/m 3,6 C 4,6 C 4,8 km/h (1 Bft) 100,00 %
15.02.2016 23:25 4,6 C 93 % 1019,7 hPa 0,0 l/m 2,4 km/h (1 Bft) S 190 0 min 0,000 mm 0,0 UV-I 0 W/m 3,6 C 4,6 C 3,2 km/h (1 Bft) 100,00 %
15.02.2016 23:26 4,6 C 93 % 1019,7 hPa 0,0 l/m 1,7 km/h (1 Bft) S 190 0 min 0,000 mm 0,0 UV-I 0 W/m 3,6 C 4,6 C 3,2 km/h (1 Bft) 100,00 %
15.02.2016 23:27 4,6 C 93 % 1019,7 hPa 0,0 l/m 1,7 km/h (1 Bft) S 190 0 min 0,000 mm 0,0 UV-I 0 W/m 3,6 C 4,6 C 3,2 km/h (1 Bft) 100,00 %
15.02.2016 23:28 4,6 C 93 % 1019,7 hPa 0,0 l/m 2,5 km/h (1 Bft) S 190 0 min 0,000 mm 0,0 UV-I 0 W/m 3,6 C 4,6 C 3,2 km/h (1 Bft) 100,00 %
15.02.2016 23:29 4,6 C 93 % 1019,7 hPa 0,0 l/m 2,8 km/h (1 Bft) S 188 0 min 0,000 mm 0,0 UV-I 0 W/m 3,6 C 4,6 C 4,8 km/h (1 Bft) 100,00 %
15.02.2016 23:30 4,6 C 93 % 1019,7 hPa 0,0 l/m 4,2 km/h (1 Bft) S 188 0 min 0,000 mm 0,0 UV-I 0 W/m 3,6 C 4,6 C 6,4 km/h (2 Bft) 100,00 %
15.02.2016 23:31 4,6 C 93 % 1019,7 hPa 0,0 l/m 2,8 km/h (1 Bft) S 188 0 min 0,000 mm 0,0 UV-I 0 W/m 3,6 C 4,6 C 4,8 km/h (1 Bft) 100,00 %
15.02.2016 23:32 4,6 C 93 % 1019,7 hPa 0,0 l/m 2,9 km/h (1 Bft) S 188 0 min 0,000 mm 0,0 UV-I 0 W/m 3,6 C 4,6 C 4,8 km/h (1 Bft) 100,00 %
15.02.2016 23:33 4,6 C 93 % 1019,8 hPa 0,0 l/m 2,6 km/h (1 Bft) S 188 0 min 0,000 mm 0,0 UV-I 0 W/m 3,6 C 4,6 C 3,2 km/h (1 Bft) 92,31 %
15.02.2016 23:34 4,6 C 93 % 1019,8 hPa 0,0 l/m 1,7 km/h (1 Bft) S 188 0 min 0,000 mm 0,0 UV-I 0 W/m 3,6 C 4,6 C 3,2 km/h (1 Bft) 100,00 %
15.02.2016 23:35 4,6 C 93 % 1019,8 hPa 0,0 l/m 1,0 km/h (0 Bft) S 188 0 min 0,000 mm 0,0 UV-I 0 W/m 3,6 C 4,6 C 3,2 km/h (1 Bft) 100,00 %
15.02.2016 23:36 4,6 C 93 % 1019,8 hPa 0,0 l/m 0,3 km/h (0 Bft) S 188 0 min 0,000 mm 0,0 UV-I 0 W/m 3,6 C 4,6 C 1,6 km/h (1 Bft) 100,00 %
15.02.2016 23:37 4,6 C 93 % 1019,8 hPa 0,0 l/m 0,0 km/h (0 Bft) S 188 0 min 0,000 mm 0,0 UV-I 0 W/m 3,6 C 4,6 C 0,0 km/h (0 Bft) 100,00 %
15.02.2016 23:38 4,6 C 93 % 1019,8 hPa 0,0 l/m 0,0 km/h (0 Bft) S 188 0 min 0,000 mm 0,0 UV-I 0 W/m 3,6 C 4,6 C 0,0 km/h (0 Bft) 100,00 %
15.02.2016 23:39 4,6 C 93 % 1019,8 hPa 0,0 l/m 0,0 km/h (0 Bft) S 188 0 min 0,000 mm 0,0 UV-I 0 W/m 3,6 C 4,6 C 0,0 km/h (0 Bft) 96,15 %
15.02.2016 23:40 4,6 C 94 % 1019,9 hPa 0,0 l/m 0,0 km/h (0 Bft) S 188 0 min 0,000 mm 0,0 UV-I 0 W/m 3,7 C 4,6 C 0,0 km/h (0 Bft) 100,00 %
15.02.2016 23:41 4,5 C 93 % 1019,9 hPa 0,0 l/m 0,3 km/h (0 Bft) S 188 0 min 0,000 mm 0,0 UV-I 0 W/m 3,5 C 4,5 C 1,6 km/h (1 Bft) 92,31 %
15.02.2016 23:42 4,5 C 94 % 1019,9 hPa 0,0 l/m 1,1 km/h (1 Bft) S 188 0 min 0,000 mm 0,0 UV-I 0 W/m 3,6 C 4,5 C 1,6 km/h (1 Bft) 100,00 %
15.02.2016 23:43 4,5 C 94 % 1019,9 hPa 0,0 l/m 1,1 km/h (1 Bft) S 188 0 min 0,000 mm 0,0 UV-I 0 W/m 3,6 C 4,5 C 1,6 km/h (1 Bft) 100,00 %
15.02.2016 23:44 4,5 C 94 % 1020,0 hPa 0,0 l/m 1,6 km/h (1 Bft) S 188 0 min 0,000 mm 0,0 UV-I 0 W/m 3,6 C 4,5 C 3,2 km/h (1 Bft) 100,00 %
15.02.2016 23:45 4,5 C 94 % 1020,0 hPa 0,0 l/m 1,8 km/h (1 Bft) S 188 0 min 0,000 mm 0,0 UV-I 0 W/m 3,6 C 4,5 C 3,2 km/h (1 Bft) 100,00 %
15.02.2016 23:46 4,5 C 94 % 1020,0 hPa 0,0 l/m 1,9 km/h (1 Bft) S 188 0 min 0,000 mm 0,0 UV-I 0 W/m 3,6 C 4,5 C 3,2 km/h (1 Bft) 100,00 %
15.02.2016 23:47 4,5 C 94 % 1020,0 hPa 0,0 l/m 2,1 km/h (1 Bft) S 188 0 min 0,000 mm 0,0 UV-I 0 W/m 3,6 C 4,5 C 3,2 km/h (1 Bft) 100,00 %
15.02.2016 23:48 4,4 C 94 % 1020,0 hPa 0,0 l/m 2,8 km/h (1 Bft) S 188 0 min 0,000 mm 0,0 UV-I 0 W/m 3,5 C 4,4 C 4,8 km/h (1 Bft) 100,00 %
15.02.2016 23:49 4,4 C 94 % 1020,0 hPa 0,0 l/m 3,2 km/h (1 Bft) S 188 0 min 0,000 mm 0,0 UV-I 0 W/m 3,5 C 4,4 C 3,2 km/h (1 Bft) 95,83 %
15.02.2016 23:50 4,4 C 94 % 1020,1 hPa 0,0 l/m 1,7 km/h (1 Bft) S 188 0 min 0,000 mm 0,0 UV-I 0 W/m 3,5 C 4,4 C 3,2 km/h (1 Bft) 100,00 %
15.02.2016 23:51 4,4 C 94 % 1020,1 hPa 0,0 l/m 1,5 km/h (1 Bft) S 188 0 min 0,000 mm 0,0 UV-I 0 W/m 3,5 C 4,4 C 3,2 km/h (1 Bft) 100,00 %
15.02.2016 23:52 4,4 C 94 % 1020,1 hPa 0,0 l/m 2,1 km/h (1 Bft) S 188 0 min 0,000 mm 0,0 UV-I 0 W/m 3,5 C 4,4 C 3,2 km/h (1 Bft) 100,00 %
15.02.2016 23:53 4,4 C 94 % 1020,2 hPa 0,0 l/m 1,8 km/h (1 Bft) S 188 0 min 0,000 mm 0,0 UV-I 0 W/m 3,5 C 4,4 C 3,2 km/h (1 Bft) 100,00 %
15.02.2016 23:54 4,4 C 94 % 1020,2 hPa 0,0 l/m 3,5 km/h (1 Bft) S 188 0 min 0,000 mm 0,0 UV-I 0 W/m 3,5 C 4,4 C 4,8 km/h (1 Bft) 100,00 %
15.02.2016 23:55 4,5 C 94 % 1020,2 hPa 0,0 l/m 4,5 km/h (1 Bft) S 189 0 min 0,000 mm 0,0 UV-I 0 W/m 3,6 C 4,5 C 4,8 km/h (1 Bft) 95,83 %
15.02.2016 23:56 4,5 C 94 % 1020,3 hPa 0,0 l/m 3,1 km/h (1 Bft) S 189 0 min 0,000 mm 0,0 UV-I 0 W/m 3,6 C 4,5 C 4,8 km/h (1 Bft) 96,55 %
15.02.2016 23:57 4,5 C 94 % 1020,3 hPa 0,0 l/m 4,2 km/h (1 Bft) S 189 0 min 0,000 mm 0,0 UV-I 0 W/m 3,6 C 4,5 C 4,8 km/h (1 Bft) 100,00 %
15.02.2016 23:58 4,5 C 94 % 1020,3 hPa 0,0 l/m 3,7 km/h (1 Bft) S 189 0 min 0,000 mm 0,0 UV-I 0 W/m 3,6 C 4,5 C 4,8 km/h (1 Bft) 91,30 %
15.02.2016 23:59 4,6 C 94 % 1020,3 hPa 0,0 l/m 4,2 km/h (1 Bft) S 190 0 min 0,000 mm 0,0 UV-I 0 W/m 3,7 C 4,6 C 6,4 km/h (2 Bft) 100,00 %
_ Min-Zeit 03:23 15:26 00:00 - 16:49 - - - - - - 03:23 02:01 16:49 13:58
Minimum _ 2,8 C 82 % 998,2 hPa - 0,0 km/h (0 Bft) - - - - - - 1,9 C -6,3 C 0,0 km/h (0 Bft) 81,82 %
_ Max-Zeit 14:44 05:55 23:56 00:37 02:01 - - 14:02 15:01 12:49 14:02 14:22 15:23 00:47 00:00
Maximum _ 6,9 C 96 % 1020,3 hPa 0,2 l/m 22,8 km/h
SW (4 Bft)
- - 1 min 0,077 mm 0,8 UV-I 237 W/m 4,6 C 6,9 C 29,0 km/h
W-SW (5 Bft)
100,00 %
Durchschnitt _ 4,6 C 92 % 1008,9 hPa #2,4 l/m 5,7 km/h (1 Bft) W - #11 min. #0,432 mm 0,6 UV-I 97 W/m 3,3 C 3,5 C 8,3 km/h (2 Bft) 98,35 %